     2              OBSERVATION DATA    GPS                 RINEX VERSION / TYPE
teqc 1997Jul24 19970902 21:10:30UTC                         PGM / RUN BY / DATE
                                                            COMMENT
BIT 2 OF LLI FLAGS DATA COLLECTED UNDER A-S CONDITION       COMMENT
BIT 2 OF LLI FLAGS DATA COLLECTED UNDER A-S CONDITION       COMMENT
Original Marker Name: 555487-PINY                           COMMENT
Campaign Name: Salt. Tr. Crust. Monit. May-Jun 1986         COMMENT
4-Character Station Name: PINY                              COMMENT
6-Character Antenna Code: TI4100                            COMMENT
Vertical Measurement Point: PAE                             COMMENT
Vertical Offset to Rinex Ref. Point: 0.0000                 COMMENT
Radial Measurement Point: RRP                               COMMENT
Radial Offset to Rinex Ref. Point: 0.0000                   COMMENT
Antenna Height from Field Measurement: 1.3840 m             COMMENT
Original XYZ: -2369651.1411 -4761728.7028 3511432.5920      COMMENT
New XYZ position is based on association with SCEC monument COMMENT
E1D0K5S1+0011. Position of that monument is believed to be  COMMENT
valid to within 1 m horizontally; vertical accuracy         COMMENT
should be no worse than 3-times this value.                 COMMENT
                                                            COMMENT
Revised Rinex header created by UCSD GPS archive for        COMMENT
GSAC on 28-May-1999 (1999:148) 21:06:12 GMT                 COMMENT
For assistance contact dagnew@ucsd.edu or hjohnson@ucsd.edu COMMENT
                                                            COMMENT
PINYON FLAT NCMN 1981                                       MARKER NAME
5 NATIONAL GEODETIC SURVEY                                  OBSERVER / AGENCY
UT-09 TI 4100 1.0                                           REC # / TYPE / VERS
156 TI 4100                                                 ANT # / TYPE
 -2369636.0000 -4761325.0000  3511116.0000                  APPROX POSITION XYZ
        1.3840        0.0000        0.0000                  ANTENNA: DELTA H/E/N
     1     1     0                                          WAVELENGTH FACT L1/2
     4    P1    P2    L1    L2                              # / TYPES OF OBSERV
     6                                                      INTERVAL
  1986     6    12     2    57   35.000000                  TIME OF FIRST OBS
  1986     6    12     4    34   53.000000                  TIME OF LAST OBS
     0                                                      # OF SATELLITES
                                                            END OF HEADER
 86  6 12  2 57 35.0800000  0  4G12G13G 9G11
  21239445.995    21239450.984     7740219.009 9 -18324827.434 8
  20735657.842    20735664.018    30638755.813 8 -44436692.465 9
  21123407.367    21123412.826    64540848.596 7-106395172.260 7
  24193182.260    24193189.892    92525897.919 9 -84682725.183 9
 86  6 12  2 57 41.0800000  0  4G12G13G 9G11
  21237610.189    21237615.593     7730573.536 9 -18332343.390 7
  20736456.670    20736463.044    30642954.497 8 -44433420.754 8
  21126498.996    21126505.099    64557098.685 8-106382509.870 7
  24196315.401    24196323.224    92542362.809 8 -84669895.400 8
 86  6 12  2 57 47.0800000  0  4G12G13G 9G11
  21235779.299    21235784.700     7720949.883 9 -18339842.348 7
  20737258.451    20737263.510    30647165.205 9 -44430139.689 8
  21129595.573    21129601.780    64573369.607 8-106369831.230 7
  24199448.640    24199455.127    92558825.906 9 -84657067.015 8
 86  6 12  2 57 53.0800000  0  4G12G13G 9G11
  21233952.547    21233957.571     7711347.980 9 -18347324.342 8
  20738062.489    20738067.268    30651387.807 8 -44426849.351 8
  21132694.505    21132702.268    64589661.185 8-106357136.488 7
  24202579.881    24202587.422    92575287.057 8 -84644240.146 8
 86  6 12  2 57 59.0800000  0  4G12G13G 9G11
  21232128.778    21232135.770     7701767.890 8 -18354789.350 8
  20738868.775    20738873.009    30655622.210 8 -44423549.819 8
  21135799.829    21135804.984    64605973.492 8-106344425.615 7
  24205711.867    24205718.941    92591746.294 9 -84631414.764 8
 86  6 12  2 58  5.0800000  0  4G12G13G 9G11
  21230309.747    21230316.634     7692209.691 9 -18362237.295 8
  20739676.141    20739680.695    30659868.525 9 -44420241.007 8
  21138907.972    21138913.316    64622306.459 8-106331698.619 8
  24208843.741    24208850.759    92608203.674 9 -84618590.838 8
 86  6 12  2 58 11.0800000  0  4G12G13G 9G11
  21228494.437    21228501.759     7682673.361 9 -18369668.213 9
  20740486.404    20740491.324    30664126.761 9 -44416922.898 9
  21142019.114    21142025.623    64638660.149 7-106318955.492 8
  24211975.255    24211982.367    92624659.180 9 -84605768.377 8
 86  6 12  2 58 17.0800000  0  4G12G13G 9G11
  21226683.769    21226690.747     7673158.995 8 -18377081.987 8
  20741299.730    20741304.255    30668396.949 9 -44413595.471 8
  21145133.988    21145140.699    64655034.524 8-106306196.247 7
  24215105.584    24215113.212    92641112.789 8 -84592947.379 8
 86  6 12  2 58 23.0800000  0  4G12G13G 9G11
  21224877.263    21224884.100     7663666.539 9 -18384478.709 8
  20742113.604    20742117.934    30672679.060 8 -44410258.773 8
  21148255.207    21148261.938    64671429.524 8-106293420.928 8
  24218236.466    24218242.762    92657564.552 9 -84580127.823 8
 86  6 12  2 58 29.0800000  0  4G12G13G 9G11
  21223075.638    21223081.909     7654196.090 9 -18391858.281 8
  20742931.086    20742937.051    30676973.046 8 -44406912.809 9
  21151378.655    21151385.088    64687845.218 7-106280629.483 7
  24221366.370    24221373.334    92674014.412 8 -84567309.747 9
 86  6 12  2 58 35.0800000  0  4G12G13G 9G11
  21221278.815    21221282.608     7644747.648 8 -18399220.711 8
  20743750.862    20743755.995    30681278.970 9 -44403557.544 8
  21154507.473    21154512.047    64704281.610 7-106267821.904 7
  24224497.604    24224503.091    92690462.434 9 -84554493.111 8
 86  6 12  2 58 41.0800000  0  4G12G13G 9G11
  21219484.963    21219490.033     7635321.218 8 -18406565.977 8
  20744572.760    20744577.713    30685596.799 8 -44400192.991 8
  21157638.855    21157644.128    64720738.711 8-106254998.192 8
  24227626.502    24227634.213    92706908.641 8 -84541677.885 9
 86  6 12  2 58 47.0800000  0  4G12G13G 9G11
  21217693.922    21217700.182     7625916.860 8 -18413894.051 8
  20745396.615    20745401.246    30689926.563 8 -44396819.152 8
  21160774.857    21160781.756    64737216.416 8-106242158.421 8
  24230755.100    24230763.436    92723352.949 8 -84528864.134 8
 86  6 12  2 58 53.0800000  0  4G12G13G 9G11
  21215909.159    21215914.887     7616534.545 8 -18421204.943 8
  20746222.456    20746227.650    30694268.168 9 -44393436.085 9
  21163914.539    21163920.136    64753714.749 8-106229302.586 8
  24233884.486    24233891.387    92739795.337 8 -84516051.887 9
 86  6 12  2 58 59.0800000  0  4G12G13G 9G11
  21214128.420    21214134.503     7607174.239 9 -18428498.680 9
  20747050.100    20747056.707    30698621.442 9 -44390043.917 8
  21167057.919    21167063.780    64770233.567 8-106216430.789 8
  24237013.004    24237020.760    92756235.831 9 -84503241.113 8
 86  6 12  2 59  5.0800000  0  4G12G13G 9G11
  21212350.995    21212358.154     7597836.048 8 -18435775.208 8
  20747879.689    20747887.183    30702986.440 9 -44386642.616 9
  21170204.143    21170210.376    64786772.909 8-106203542.988 8
  24240142.053    24240148.915    92772674.336 9 -84490431.893 8
 86  6 12  2 59 11.0800000  0  4G12G13G 9G11
  21210578.710    21210583.654     7588519.889 9 -18443034.546 8
  20748713.224    20748719.702    30707363.095 8 -44383232.242 8
  21173355.284    21173361.113    64803332.746 8-106190639.220 7
  24243269.172    24243276.211    92789110.860 8 -84477624.220 8
 86  6 12  2 59 17.0800000  0  4G12G13G 9G11
  21208809.842    21208816.168     7579225.774 9 -18450276.714 7
  20749546.919    20749555.005    30711751.559 8 -44379812.666 9
  21176510.401    21176515.575    64819913.072 7-106177719.483 9
  24246396.745    24246403.545    92805545.387 9 -84464818.088 8
 86  6 12  2 59 23.0800000  0  4G12G13G 9G11
  21207044.603    21207051.407     7569953.737 9 -18457501.691 8
  20750384.615    20750392.438    30716151.671 8 -44376384.007 8
  21179670.329    21179675.331    64836513.779 8-106164783.871 7
  24249524.243    24249530.196    92821977.919 8 -84452013.512 8
 86  6 12  2 59 29.0800000  0  4G12G13G 9G11
  21205284.859    21205290.695     7560703.814 8 -18464709.408 9
  20751225.522    20751231.088    30720563.457 8 -44372946.250 8
  21182831.339    21182840.000    64853134.962 8-106151832.316 6
  24252650.679    24252656.624    92838408.451 9 -84439210.496 7
 86  6 12  2 59 35.0800000  0  4G12G13G 9G11
  21203528.966    21203535.987     7551476.088 9 -18471899.853 9
  20752066.845    20752073.404    30724986.919 8 -44369499.410 7
  21185999.682    21186005.284    64869776.410 8-106138864.963 8
  24255776.804    24255783.717    92854836.959 9 -84426409.064 8
 86  6 12  2 59 41.0800000  0  4G12G13G 9G11
  21201778.099    21201782.802     7542270.442 8 -18479073.084 8
  20752911.667    20752917.000    30729421.994 9 -44366043.497 8
  21189170.471    21189175.716    64886438.265 8-106125881.704 7
  24258903.162    24258908.685    92871263.436 9 -84413609.182 8
 86  6 12  2 59 47.0800000  0  4G12G13G 9G11
  21200029.012    21200035.395     7533086.920 8 -18486229.076 9
  20753756.420    20753762.539    30733868.622 9 -44362578.599 8
  21192345.133    21192349.807    64903120.489 8-106112882.571 8
  24262028.602    24262034.929    92887687.902 9 -84400810.879 7
 86  6 12  2 59 53.0800000  0  4G12G13G 9G11
  21198286.776    21198292.172     7523925.515 8 -18493367.837 8
  20754606.080    20754611.111    30738326.845 8 -44359104.643 9
  21195523.850    21195529.310    64919822.952 8-106099867.661 8
  24265153.446    24265160.216    92904110.253 9 -84388014.242 8
 86  6 12  2 59 59.0800000  0  4G12G13G 9G11
  21196547.695    21196552.815     7514786.199 8 -18500489.376 8
  20755456.797    20755461.909    30742796.675 9 -44355621.660 8
  21198706.254    21198711.243    64936545.706 8-106086836.947 7
  24268277.871    24268284.781    92920530.513 9 -84375219.233 8
 86  6 12  3  0  5.0800000  0  4G12G13G 9G11
  21194812.230    21194817.525     7505669.103 9 -18507593.598 9
  20756309.253    20756314.508    30747278.080 9 -44352129.665 8
  21201892.009    21201896.413    64953288.677 8-106073790.491 8
  24271402.463    24271409.358    92936948.725 9 -84362425.818 8
 86  6 12  3  0 11.0800000  0  4G12G13G 9G11
  21193081.155    21193086.966     7496574.277 9 -18514680.487 8
  20757164.427    20757169.644    30751771.035 8 -44348628.651 8
  21205081.860    21205087.020    64970051.967 8-106060728.181 8
  24274526.297    24274532.927    92953364.864 8 -84349634.018 8
 86  6 12  3  0 17.0800000  0  4G12G13G 9G11
  21191354.528    21191360.968     7487501.736 9 -18521749.993 8
  20758021.000    20758027.367    30756275.558 9 -44345118.631 8
  21208276.040    21208281.315    64986835.494 8-106047650.119 8
  24277649.872    24277656.191    92969778.950 9 -84336843.814 9
 86  6 12  3  0 23.0800000  0  4G12G13G 9G11
  21189633.069    21189638.382     7478451.394 9 -18528802.208 8
  20758880.718    20758886.662    30760791.587 9 -44341599.664 9
  21211473.346    21211479.450    65003639.173 8-106034556.341 8
  24280772.935    24280779.621    92986190.917 8 -84324055.270 8
 86  6 12  3  0 29.0800000  0  4G12G13G 9G11
  21187915.136    21187920.832     7469423.339 9 -18535837.064 9
  20759743.553    20759748.161    30765319.105 8 -44338071.714 9
  21214673.741    21214680.558    65020463.084 7-106021446.811 8
  24283895.618    24283902.860    93002600.708 8 -84311268.424 8
 86  6 12  3  0 35.0800000  0  4G12G13G 9G11
  21186200.923    21186208.297     7460417.639 9 -18542854.490 8
  20760606.389    20760612.246    30769858.169 8 -44334534.783 9
  21217880.240    21217886.872    65037307.137 7-106008321.585 9
  24287018.268    24287025.539    93019008.381 8 -84298483.219 8
 86  6 12  3  0 41.0800000  0  4G12G13G 9G11
  21184491.828    21184498.823     7451434.179 9 -18549854.585 8
  20761471.646    20761479.069    30774408.687 9 -44330988.919 8
  21221089.173    21221095.427    65054171.287 8-105995180.685 8
  24290139.265    24290146.946    93035413.985 7 -84285699.642 8
 86  6 12  3  0 47.0800000  0  4G12G13G 9G11
  21182786.012    21182793.331     7442473.032 9 -18556837.308 8
  20762340.205    20762346.923    30778970.637 9 -44327434.157 8
  21224301.918    21224308.031    65071055.609 8-105982024.068 8
  24293259.887    24293267.425    93051817.465 8 -84272917.719 8
 86  6 12  3  0 53.0800000  0  4G12G13G 9G11
  21181085.536    21181091.372     7433534.199 9 -18563802.616 8
  20763211.556    20763217.663    30783544.045 9 -44323870.465 9
  21227519.553    21227524.742    65087960.068 8-105968851.775 8
  24296381.822    24296389.223    93068218.842 8 -84260137.424 9
 86  6 12  3  0 59.0800000  0  4G12G13G 9G11
  21179389.021    21179395.796     7424617.771 9 -18570750.495 8
  20764083.576    20764090.287    30788128.817 9 -44320297.909 8
  21230739.066    21230744.253    65104884.624 8-105955663.819 7
  24299502.077    24299509.858    93084618.125 8 -84247358.779 8
 86  6 12  3  1  5.0800000  0  4G12G13G 9G11
  21177696.673    21177701.785     7415723.741 9 -18577680.915 8
  20764958.730    20764963.718    30792725.107 9 -44316716.383 9
  21233964.287    21233969.884    65121829.348 8-105942460.145 8
  24302621.878    24302630.416    93101015.342 7 -84234581.717 9
 86  6 12  3  1 11.0800000  0  4G12G13G 9G11
  21176008.062    21176014.253     7406852.115 9 -18584593.872 8
  20765835.580    20765839.901    30797332.957 9 -44313125.845 8
  21237193.510    21237198.553    65138794.174 8-105929240.798 6
  24305742.293    24305749.877    93117410.548 8 -84221806.244 8
 86  6 12  3  1 17.0800000  0  4G12G13G 9G11
  21174324.248    21174330.980     7398003.023 9 -18591489.264 7
  20766713.740    20766719.542    30801952.312 9 -44309526.361 8
  21240425.324    21240429.027    65155779.185 8-105916005.733 7
  24308861.612    24308868.715    93133803.731 7 -84209032.348 8
 86  6 12  3  1 23.0800000  0  4G12G13G 9G11
  21172643.496    21172651.264     7389176.573 8 -18598367.018 8
  20767596.100    20767601.638    30806583.199 8 -44305917.871 8
  21243660.446    21243666.165    65172784.294 8-105902755.007 8
  24311981.667    24311987.514    93150194.829 7 -84196260.071 8
 86  6 12  3  1 29.0800000  0  4G12G13G 9G11
  21170968.668    21170974.787     7380372.761 7 -18605227.126 8
  20768477.502    20768483.851    30811225.476 9 -44302300.507 8
  21246900.097    21246907.167    65189809.513 8-105889488.603 8
  24315100.303    24315108.095    93166583.857 8 -84183489.398 7
 86  6 12  3  1 35.0800000  0  4G12G13G 9G11
  21169296.828    21169304.604     7371591.385 8 -18612069.754 9
  20769363.692    20769370.102    30815879.133 8 -44298674.287 9
  21250144.857    21250149.745    65206854.721 8-105876206.627 8
  24318218.093    24318225.508    93182970.733 7 -84170720.405 8
 86  6 12  3  1 41.0800000  0  4G12G13G 9G11
  21167629.950    21167637.832     7362832.420 8 -18618894.923 8
  20770251.769    20770257.092    30820544.167 9 -44295039.186 7
  21253391.443    21253396.443    65223919.846 8-105862909.146 8
  24321337.024    24321343.456    93199355.426 8 -84157953.121 8
 86  6 12  3  1 47.0800000  0  4G12G13G 9G11
  21165967.451    21165974.434     7354095.913 8 -18625702.593 8
  20771141.530    20771145.887    30825220.590 8 -44291395.218 8
  21256643.236    21256647.660    65241004.879 9-105849596.128 9
  24324452.983    24324460.799    93215737.938 8 -84145187.536 8
 86  6 12  3  1 53.0800000  0  4G12G13G 9G11
  21164309.731    21164315.910     7345381.897 9 -18632492.725 8
  20772031.767    20772038.339    30829908.259 8 -44287742.492 8
  21259898.290    21259901.748    65258109.712 8-105836267.671 7
  24327571.438    24327578.034    93232118.133 7 -84132423.773 8
 86  6 12  3  1 59.0800000  0  4G12G13G 9G11
  21162656.155    21162662.901     7336690.350 9 -18639265.362 8
  20772926.377    20772932.130    30834607.157 8 -44284081.019 8
  21263157.532    21263161.520    65275234.361 8-105822923.808 8
  24330686.948    24330694.513    93248496.028 7 -84119661.795 9
 86  6 12  3  2  5.0800000  0  4G12G13G 9G11
  21161006.757    21161013.240     7328021.327 8 -18646020.443 8
  20773823.081    20773829.049    30839317.215 8 -44280410.835 9
  21266418.344    21266423.788    65292378.846 8-105809564.461 8
  24333803.294    24333810.890    93264871.747 8 -84106901.504 8
 86  6 12  3  2 11.0800000  0  4G12G13G 9G11
  21159360.581    21159367.651     7319374.822 9 -18652757.985 8
  20774721.857    20774727.687    30844038.534 8 -44276731.887 8
  21269684.099    21269690.375    65309543.212 8-105796189.623 7
  24336919.878    24336927.263    93281245.178 8 -84094143.005 9
 86  6 12  3  2 17.0800000  0  4G12G13G 9G11
  21157720.914    21157726.965     7310750.916 9 -18659477.910 8
  20775622.163    20775627.563    30848771.031 9 -44273044.238 9
  21272953.418    21272960.311    65326727.416 8-105782799.344 7
  24340032.536    24340041.643    93297616.372 8 -84081386.240 8
 86  6 12  3  2 23.0800000  0  4G12G13G 9G11
  21156084.252    21156089.441     7302149.751 8 -18666180.116 8
  20776525.384    20776530.834    30853514.812 8 -44269347.775 9
  21276227.664    21276234.255    65343931.359 8-105769393.683 8
  24343148.994    24343156.274    93313985.405 7 -84068631.151 8
 86  6 12  3  2 29.0800000  0  4G12G13G 9G11
  21154451.298    21154456.728     7293571.356 9 -18672864.587 8
  20777430.196    20777435.654    30858270.015 9 -44265642.425 8
  21279506.442    21279512.029    65361155.330 8-105755972.419 8
  24346263.871    24346270.828    93330352.327 8 -84055877.723 9
 86  6 12  3  2 35.0800000  0  4G12G13G 9G11
  21152822.860    21152829.443     7285015.723 9 -18679531.308 7
  20778337.374    20778342.111    30863036.528 8 -44261928.258 8
  21282787.223    21282793.241    65378399.199 9-105742535.637 7
  24349377.658    24349385.154    93346717.140 7 -84043125.926 8
 86  6 12  3  2 41.0800000  0  4G12G13G 9G11
  21151198.979    21151204.992     7276482.852 8 -18686180.311 8
  20779246.431    20779251.891    30867814.404 8 -44258205.243 8
  21286072.756    21286079.231    65395662.817 7-105729083.476 8
  24352492.483    24352498.780    93363079.774 8 -84030375.835 8
 86  6 12  3  2 47.0800000  0  4G12G13G 9G11
  21149579.184    21149585.656     7267972.666 9 -18692811.612 8
  20780157.902    20780164.200    30872603.549 9 -44254473.442 8
  21289361.879    21289367.457    65412946.203 9-105715615.899 7
  24355605.906    24355613.075    93379440.284 8 -84017627.397 8
 86  6 12  3  2 53.0800000  0  4G12G13G 9G11
  21147964.134    21147971.064     7259485.232 8 -18699425.205 8
  20781071.172    20781076.858    30877403.897 9 -44250732.909 8
  21292654.237    21292660.514    65430249.398 7-105702132.895 7
  24358719.071    24358726.246    93395798.614 7 -84004880.646 8
 86  6 12  3  2 59.0800000  0  4G12G13G 9G11
  21146354.086    21146359.182     7251020.645 9 -18706020.979 9
  20781987.705    20781992.037    30882215.425 8 -44246983.656 8
  21295951.547    21295957.320    65447572.364 8-105688634.483 8
  24361831.825    24361838.171    93412154.757 8 -83992135.618 9
 86  6 12  3  3  5.0800000  0  4G12G13G 9G11
  21144748.481    21144753.847     7242578.804 9 -18712599.041 9
  20782905.765    20782910.935    30887038.113 9 -44243225.731 8
  21299251.365    21299256.852    65464915.035 8-105675120.730 8
  24364943.302    24364949.441    93428508.658 7 -83979392.335 8
 86  6 12  3  3 11.0800000  0  4G12G13G 9G11
  21143145.771    21143150.955     7234159.687 9 -18719159.385 8
  20783825.650    20783830.116    30891871.961 9 -44239459.090 8
  21302555.269    21302561.643    65482277.322 8-105661591.667 8
  24368054.268    24368062.348    93444860.315 7 -83966650.822 7
 86  6 12  3  3 17.0800000  0  4G12G13G 9G11
  21141548.281    21141553.187     7225763.361 8 -18725701.994 8
  20784747.074    20784751.755    30896717.008 8 -44235683.727 9
  21305863.110    21305868.898    65499659.243 8-105648047.312 9
  24371165.716    24371173.020    93461209.733 7 -83953911.026 7
 86  6 12  3  3 23.0800000  0  4G12G13G 9G11
  21139953.607    21139960.566     7217389.779 9 -18732226.858 8
  20785670.878    20785675.575    30901573.047 8 -44231899.794 8
  21309173.486    21309179.559    65517060.755 8-105634487.699 8
  24374275.749    24374283.661    93477556.895 7 -83941172.998 8
 86  6 12  3  3 29.0800000  0  4G12G13G 9G11
  21138364.514    21138370.448     7209038.974 8 -18738733.967 7
  20786596.616    20786601.602    30906440.134 8 -44228107.260 8
  21312489.598    21312494.684    65534481.889 8-105620912.792 8
  24377385.542    24377393.856    93493901.700 7 -83928436.806 8
 86  6 12  3  3 35.0800000  0  4G12G13G 9G11
  21136780.029    21136787.322     7200711.013 8 -18745223.296 8
  20787525.006    20787530.238    30911318.155 8 -44224306.200 9
  21315808.255    21315812.447    65551922.522 9-105607322.697 8
  24380493.829    24380503.402    93510244.155 7 -83915702.432 8
 86  6 12  3  3 41.0800000  0  4G12G13G 9G11
  21135199.968    21135205.215     7192405.781 9 -18751694.911 8
  20788455.050    20788460.679    30916207.175 8 -44220496.579 8
  21319131.060    21319136.463    65569382.603 7-105593717.441 7
  24383604.900    24383612.878    93526584.235 8 -83902969.896 7
 86  6 12  3  3 47.0800000  0  4G12G13G 9G11
  21133623.799    21133630.597     7184123.314 9 -18758148.777 7
  20789387.184    20789394.019    30921107.133 9 -44216678.437 8
  21322456.204    21322462.666    65586862.134 9-105580097.029 8
  24386715.011    24386722.196    93542921.951 8 -83890239.231 7
 86  6 12  3  3 53.0800000  0  4G12G13G 9G11
  21132051.763    21132058.117     7175863.650 9 -18764584.881 8
  20790322.551    20790327.992    30926018.008 9 -44212851.777 8
  21325786.807    21325791.898    65604361.108 9-105566461.473 8
  24389825.707    24389831.097    93559257.180 8 -83877510.501 9
 86  6 12  3  3 59.0800000  0  4G12G13G 9G11
  21130484.316    21130490.298     7167626.758 9 -18771003.237 8
  20791259.132    20791265.222    30930939.678 8 -44209016.706 9
  21329120.751    21329126.223    65621879.246 8-105552810.977 8
  24392932.708    24392938.147    93575589.890 8 -83864783.713 8
 86  6 12  3  4  5.0800000  0  4G12G13G 9G11
  21128921.323    21128927.646     7159412.620 9 -18777403.862 8
  20792198.121    20792203.812    30935872.312 9 -44205173.092 8
  21332458.071    21332463.270    65639416.750 8-105539145.383 8
  24396040.134    24396046.288    93591920.142 8 -83852058.851 8
 86  6 12  3  4 11.0800000  0  4G12G13G 9G11
  21127363.018    21127368.402     7151221.384 8 -18783786.646 8
  20793137.843    20793143.830    30940815.867 9 -44201320.974 7
  21335798.652    21335804.524    65656973.616 8-105525464.711 8
  24399146.079    24399154.067    93608248.005 8 -83839335.865 7
 86  6 12  3  4 17.0800000  0  4G12G13G 9G11
  21125808.267    21125814.481     7143053.143 9 -18790151.503 9
  20794081.799    20794087.168    30945770.412 8 -44197460.289 9
  21339142.720    21339148.584    65674549.907 8-105511768.908 7
  24402253.264    24402260.281    93624573.531 7 -83826614.679 8
 86  6 12  3  4 23.0800000  0  4G12G13G 9G11
  21124258.495    21124264.807     7134907.903 8 -18796498.445 8
  20795026.296    20795031.700    30950735.932 9 -44193591.055 8
  21342491.815    21342498.588    65692145.694 8-105498057.912 8
  24405358.432    24405365.216    93640896.765 7 -83813895.291 7
 86  6 12  3  4 29.0800000  0  4G12G13G 9G11
  21122712.948    21122718.847     7126785.728 8 -18802827.419 9
  20795972.984    20795978.454    30955712.500 9 -44189713.212 8
  21345844.032    21345849.635    65709760.992 8-105484331.707 8
  24408463.864    24408472.811    93657217.756 6 -83801177.641 8
 86  6 12  3  4 35.0800000  0  4G12G13G 9G11
  21121171.115    21121177.682     7118686.704 9 -18809138.334 8
  20796921.225    20796927.781    30960700.178 9 -44185826.715 9
  21349200.424    21349204.850    65727395.840 9-105470590.280 8
  24411570.816    24411576.436    93673536.579 7 -83788461.694 7
 86  6 12  3  4 41.0800000  0  4G12G13G 9G11
  21119633.759    21119641.224     7110610.848 8 -18815431.210 8
  20797871.872    20797878.752    30965699.023 9 -44181931.512 8
  21352559.488    21352566.021    65745050.183 8-105456833.646 7
  24414674.046    24414682.017    93689853.223 6 -83775747.441 7
 86  6 12  3  4 47.0800000  0  4G12G13G 9G11
  21118101.588    21118108.961     7102558.183 9 -18821706.030 8
  20798826.637    20798832.774    30970708.971 8 -44178027.661 8
  21355922.680    21355928.170    65762723.939 7-105443061.876 7
  24417778.714    24417786.168    93706167.658 7 -83763034.897 8
 86  6 12  3  4 53.0800000  0  4G12G13G 9G11
  21116573.486    21116582.132     7094528.828 8 -18827962.663 8
  20799781.579    20799787.801    30975729.857 9 -44174115.266 7
  21359290.461    21359295.065    65780417.230 9-105429274.913 8
  24420883.270    24420891.352    93722479.862 8 -83750324.081 8
 86  6 12  3  4 59.0800000  0  4G12G13G 9G11
  21115050.439    21115058.313     7086522.759 8 -18834201.151 9
  20800740.198    20800744.912    30980761.764 9 -44170194.304 9
  21362659.947    21362665.674    65798129.987 8-105415472.778 7
  24423988.508    24423993.915    93738789.963 6 -83737614.919 7
 86  6 12  3  5  5.0800000  0  4G12G13G 9G11
  21113531.031    21113539.847     7078539.920 9 -18840421.547 9
  20801699.580    20801704.525    30985804.581 8 -44166264.823 8
  21366034.480    21366039.323    65815862.079 9-105401655.547 7
  24427091.501    24427098.129    93755097.717 7 -83724907.561 7
 86  6 12  3  5 11.0800000  0  4G12G13G 9G11
  21112016.741    21112024.792     7070580.136 8 -18846623.978 8
  20802660.143    20802666.275    30990858.255 8 -44162326.902 8
  21369411.597    21369416.668    65833613.418 7-105387823.344 7
  24430193.242    24430201.138    93771403.098 7 -83712202.067 7
 86  6 12  3  5 17.0800000  0  4G12G13G 9G11
  21110506.411    21110513.604     7062643.429 9 -18852808.426 8
  20803624.076    20803629.743    30995922.747 8 -44158380.539 8
  21372792.801    21372799.360    65851383.972 7-105373976.155 8
  24433295.831    24433303.119    93787706.099 7 -83699498.437 8
 86  6 12  3  5 23.0800000  0  4G12G13G 9G11
  21109000.758    21109007.138     7054729.806 9 -18858974.889 8
  20804590.690    20804595.804    31000997.925 9 -44154425.862 9
  21376179.184    21376182.971    65869173.633 8-105360114.099 8
  24436398.363    24436405.203    93804006.644 8 -83686796.734 7
 86  6 12  3  5 29.0800000  0  4G12G13G 9G11
  21107499.100    21107505.420     7046839.256 9 -18865123.369 8
  20805558.595    20805564.242    31006083.844 9 -44150462.799 8
  21379567.771    21379572.444    65886982.345 9-105346237.174 7
  24439499.495    24439506.548    93820304.637 8 -83674097.007 8
 86  6 12  3  5 35.0800000  0  4G12G13G 9G11
  21106002.776    21106009.228     7038971.730 8 -18871253.919 8
  20806528.633    20806532.401    31011180.489 9 -44146491.395 8
  21382960.554    21382963.667    65904810.034 8-105332345.481 8
  24442601.401    24442606.631    93836600.146 7 -83661399.202 8
 86  6 12  3  5 41.0800000  0  4G12G13G 9G11
  21104509.532    21104517.008     7031127.309 8 -18877366.455 8
  20807499.973    20807506.371    31016287.840 9 -44142511.640 9
  21386356.480    21386361.783    65922656.846 7-105318438.876 7
  24445700.462    24445709.007    93852893.135 8 -83648703.369 8
 86  6 12  3  5 47.0800000  0  4G12G13G 9G11
  21103021.181    21103028.480     7023306.087 8 -18883460.905 9
  20808474.531    20808478.983    31021405.965 9 -44138523.488 8
  21389756.714    21389760.875    65940522.693 8-105304517.438 8
  24448799.653    24448808.267    93869183.676 6 -83636009.462 8
 86  6 12  3  5 53.0800000  0  4G12G13G 9G11
  21101537.020    21101544.419     7015508.002 9 -18889537.325 8
  20809450.680    20809455.247    31026534.715 9 -44134527.057 8
  21393160.267    21393164.943    65958407.573 9-105290581.169 7
  24451898.452    24451907.905    93885471.732 8 -83623317.466 7
 86  6 12  3  5 59.0800000  0  4G12G13G 9G11
  21100057.415    21100064.989     7007733.104 9 -18895595.691 8
  20810428.713    20810432.906    31031674.069 9 -44130522.365 8
  21396566.602    21396572.217    65976311.478 8-105276630.081 8
  24454998.128    24455006.138    93901757.271 8 -83610627.427 8
 86  6 12  3  6  5.0800000  0  4G12G13G 9G11
  21098583.929    21098588.386     6999981.301 8 -18901636.054 8
  20811408.697    20811413.506    31036824.035 8 -44126509.403 9
  21399978.415    21399982.726    65994234.328 8-105262664.229 8
  24458097.090    24458105.166    93918040.239 8 -83597939.407 8
 86  6 12  3  6 11.0800000  0  4G12G13G 9G11
  21097112.240    21097118.735     6992252.574 8 -18907658.448 8
  20812390.433    20812396.511    31041984.613 8 -44122488.167 9
  21403391.986    21403396.899    66012175.915 8-105248683.754 7
  24461196.471    24461203.506    93934320.575 7 -83585253.431 8
 86  6 12  3  6 17.0800000  0  4G12G13G 9G11
  21095645.353    21095651.710     6984546.930 8 -18913662.850 8
  20813375.511    20813379.933    31047155.599 9 -44118458.831 8
  21406810.060    21406814.703    66030136.351 8-105234688.620 8
  24464293.800    24464299.774    93950598.268 8 -83572569.506 8
 86  6 12  3  6 23.0800000  0  4G12G13G 9G11
  21094184.139    21094189.801     6976864.413 8 -18919649.223 9
  20814361.055    20814366.410    31052337.092 8 -44114421.300 7
  21410231.862    21410235.521    66048115.535 8-105220678.874 8
  24467391.132    24467397.053    93966873.332 8 -83559887.646 8
 86  6 12  3  6 29.0800000  0  4G12G13G 9G11
  21092725.803    21092733.654     6969205.123 9 -18925617.496 9
  20815348.086    20815354.096    31057529.044 8 -44110375.632 8
  21413656.224    21413661.824    66066113.507 7-105206654.471 8
  24470486.938    24470492.796    93983145.762 7 -83547207.820 8
 86  6 12  3  6 35.0800000  0  4G12G13G 9G11
  21091273.798    21091280.155     6961569.090 9 -18931567.643 8
  20816337.963    20816344.255    31062731.557 8 -44106321.726 8
  21417082.679    21417089.937    66084130.388 8-105192615.344 7
  24473583.541    24473588.430    93999415.620 8 -83534529.999 7
 86  6 12  3  6 41.0800000  0  4G12G13G 9G11
  21089824.643    21089831.375     6953956.391 9 -18937499.627 8
  20817329.720    20817336.463    31067944.578 9 -44102259.635 8
  21420515.290    21420521.735    66102166.175 8-105178561.496 7
  24476678.146    24476686.017    94015683.021 9 -83521854.095 7
 86  6 12  3  6 47.0800000  0  4G12G13G 9G11
  21088379.626    21088386.805     6946367.110 9 -18943413.354 8
  20818324.070    20818330.618    31073168.222 9 -44098189.263 8
  21423951.516    21423956.488    66120220.888 7-105164492.906 7
  24479773.935    24479779.957    94031947.977 8 -83509180.104 7
 86  6 12  3  6 53.0800000  0  4G12G13G 9G11
  21086940.505    21086946.730     6938801.309 8 -18949308.788 8
  20819319.655    20819327.032    31078402.515 9 -44094110.590 8
  21427390.717    21427395.958    66138294.537 8-105150409.545 7
  24482869.507    24482874.842    94048210.542 8 -83496507.967 8
 86  6 12  3  6 59.0800000  0  4G12G13G 9G11
  21085504.663    21085512.443     6931259.043 9 -18955185.882 9
  20820318.472    20820324.357    31083647.612 9 -44090023.494 9
  21430832.580    21430839.376    66156387.196 8-105136311.378 8
  24485962.813    24485969.544    94064470.694 8 -83483837.713 7
 86  6 12  3  7  5.0800000  0  4G12G13G 9G11
  21084074.430    21084081.023     6923740.306 8 -18961044.639 8
  20821318.485    20821324.263    31088903.382 9 -44085928.090 8
  21434281.161    21434285.492    66174498.753 9-105122198.475 8
  24489056.492    24489063.224    94080728.439 8 -83471169.338 8
 86  6 12  3  7 11.0800000  0  4G12G13G 9G11
  21082646.585    21082654.542     6916245.158 8 -18966885.011 9
  20822320.810    20822326.540    31094169.895 9 -44081824.314 9
  21437730.262    21437736.659    66192629.201 8-105108070.849 8
  24492150.311    24492157.246    94096983.804 7 -83458502.820 7
 86  6 12  3  7 17.0800000  0  4G12G13G 9G11
  21081225.127    21081233.024     6908773.673 8 -18972706.932 8
  20823325.260    20823331.074    31099447.143 9 -44077712.166 8
  21441183.827    21441190.104    66210778.539 8-105093928.525 8
  24495243.436    24495250.188    94113236.837 8 -83445838.117 8
 86  6 12  3  7 23.0800000  0  4G12G13G 9G11
  21079808.626    21079815.106     6901325.750 8 -18978510.527 8
  20824331.628    20824336.129    31104734.998 8 -44073591.759 8
  21444641.758    21444648.032    66228946.754 9-105079771.468 8
  24498335.439    24498342.080    94129487.479 8 -83433175.274 8
 86  6 12  3  7 29.0800000  0  4G12G13G 9G11
  21078396.366    21078402.909     6893901.357 9 -18984295.765 7
  20825339.634    20825345.463    31110033.346 9 -44069463.175 9
  21448102.450    21448109.424    66247133.751 8-105065599.787 8
  24501426.607    24501433.151    94145735.630 8 -83420514.384 8
 86  6 12  3  7 35.0800000  0  4G12G13G 9G11
  21076988.399    21076993.213     6886500.500 8 -18990062.663 9
  20826350.827    20826354.997    31115342.198 9 -44065326.410 8
  21451566.948    21451571.768    66265339.510 8-105051413.486 8
  24504517.366    24504525.158    94161981.269 7 -83407855.435 9
 86  6 12  3  7 41.0800000  0  4G12G13G 9G11
  21075583.974    21075590.025     6879123.164 8 -18995811.232 8
  20827362.119    20827368.010    31120661.438 9 -44061181.544 8
  21455035.323    21455041.484    66283563.993 8-105037212.586 7
  24507608.211    24507616.182    94178224.389 7 -83395198.461 8
 86  6 12  3  7 47.0800000  0  4G12G13G 9G11
  21074184.695    21074190.789     6871769.304 8 -19001541.518 8
  20828376.756    20828380.978    31125991.136 9 -44057028.530 8
  21458506.118    21458511.437    66301807.202 7-105022997.125 7
  24510697.161    24510705.934    94194464.927 7 -83382543.514 7
 86  6 12  3  7 53.0800000  0  4G12G13G 9G11
  21072790.259    21072796.298     6864439.006 8 -19007253.450 8
  20829392.013    20829397.005    31131331.261 8 -44052867.389 8
  21461981.889    21461986.309    66320069.068 8-105008767.093 8
  24513788.716    24513796.106    94210702.875 8 -83369890.553 8
 86  6 12  3  7 59.0800000  0  4G12G13G 9G11
  21071400.081    21071405.551     6857132.293 8 -19012946.976 9
  20830409.376    20830415.306    31136681.815 8 -44048698.128 8
  21465460.940    21465463.957    66338349.466 8-104994522.621 7
  24516878.645    24516885.912    94226938.319 7 -83357239.557 9
 86  6 12  3  8  5.0800000  0  4G12G13G 9G11
  21070012.730    21070018.864     6849849.108 9 -19018622.189 9
  20831430.031    20831435.799    31142042.724 8 -44044520.795 8
  21468943.181    21468947.528    66356648.424 7-104980263.707 7
  24519967.099    24519975.088    94243171.129 8 -83344590.618 9
 86  6 12  3  8 11.0800000  0  4G12G13G 9G11
  21068632.906    21068639.097     6842589.503 9 -19024279.031 8
  20832451.461    20832457.791    31147414.038 8 -44040335.349 9
  21472427.817    21472433.219    66374965.891 7-104965990.355 8
  24523055.724    24523063.620    94259401.264 8 -83331943.751 8
 86  6 12  3  8 17.0800000  0  4G12G13G 9G11
  21067255.778    21067261.643     6835353.359 8 -19029917.577 8
  20833475.843    20833481.557    31152795.624 8 -44036141.901 9
  21475917.579    21475922.940    66393301.701 8-104951702.712 8
  24526145.627    24526151.759    94275628.680 7 -83319298.997 8
 86  6 12  3  8 23.0800000  0  4G12G13G 9G11
  21065882.405    21065888.590     6828140.748 8 -19035537.797 8
  20834502.702    20834507.954    31158187.432 8 -44031940.496 8
  21479410.054    21479415.241    66411655.986 8-104937400.671 7
  24529230.072    24529238.996    94291853.418 8 -83306656.344 8
 86  6 12  3  8 29.0800000  0  4G12G13G 9G11
  21064513.931    21064520.408     6820951.747 8 -19041139.626 8
  20835530.914    20835536.328    31163589.578 9 -44027731.026 8
  21482906.911    21482911.322    66430028.771 7-104923084.239 9
  24532318.837    24532325.282    94308075.480 8 -83294015.779 8
 86  6 12  3  8 35.0800000  0  4G12G13G 9G11
  21063150.734    21063156.584     6813786.361 8 -19046723.038 8
  20836560.758    20836565.463    31169002.009 8 -44023513.549 9
  21486406.583    21486412.262    66448419.989 8-104908753.415 7
  24535405.781    24535412.926    94324294.907 8 -83281377.244 8
 86  6 12  3  8 41.0800000  0  4G12G13G 9G11
  21061790.954    21061797.981     6806644.651 9 -19052288.008 9
  20837592.679    20837599.370    31174424.771 9 -44019288.024 9
  21489908.565    21489915.065    66466829.613 8-104894408.273 8
  24538492.727    24538498.459    94340511.790 7 -83268740.702 9
 86  6 12  3  8 47.0800000  0  4G12G13G 9G11
  21060437.064    21060442.723     6799526.542 9 -19057834.588 9
  20838626.457    20838632.325    31179857.760 9 -44015054.518 8
  21493416.304    21493422.536    66485257.695 8-104880048.721 9
  24541578.312    24541584.376    94356726.030 9 -83256106.234 7
 86  6 12  3  8 53.0800000  0  4G12G13G 9G11
  21059086.386    21059094.783     6792432.122 8 -19063362.701 8
  20839662.427    20839668.139    31185301.059 8 -44010812.995 8
  21496926.992    21496932.296    66503704.193 8-104865674.832 8
  24544663.275    24544669.696    94372937.649 8 -83243473.795 8
 86  6 12  3  8 59.0800000  0  4G12G13G 9G11
  21057741.064    21057748.634     6785361.482 8 -19068872.309 8
  20840700.513    20840706.050    31190754.799 9 -44006563.318 8
  21500440.245    21500445.085    66522169.082 8-104851286.603 7
  24547746.165    24547754.366    94389146.692 8 -83230843.375 8
 86  6 12  3  9  5.0800000  0  4G12G13G 9G11
  21056400.945    21056407.102     6778314.629 7 -19074363.359 8
  20841740.342    20841744.945    31196218.903 9 -44002305.576 8
  21503957.297    21503962.227    66540652.420 8-104836884.008 7
  24550830.841    24550837.647    94405353.184 7 -83218214.933 8
 86  6 12  3  9 11.0800000  0  4G12G13G 9G11
  21055063.877    21055071.230     6771291.515 7 -19079835.899 8
  20842781.282    20842787.351    31201693.279 8 -43998039.826 8
  21507477.860    21507483.287    66559154.156 8-104822467.074 7
  24553915.071    24553921.526    94421557.124 8 -83205588.490 8
 86  6 12  3  9 17.0800000  0  4G12G13G 9G11
  21053732.029    21053738.947     6764292.251 8 -19085289.873 9
  20843824.969    20843829.909    31207177.943 8 -43993766.060 7
  21511001.509    21511007.501    66577674.272 8-104808035.832 7
  24556997.154    24557004.619    94437758.486 8 -83192964.047 7
 86  6 12  3  9 23.0800000  0  4G12G13G 9G11
  21052403.912    21052410.527     6757316.724 8 -19090725.345 8
  20844870.817    20844876.272    31212672.886 9 -43989484.289 8
  21514529.442    21514535.657    66596212.697 8-104793590.306 8
  24560079.499    24560086.438    94453957.204 7 -83180341.655 8
 86  6 12  3  9 29.0800000  0  4G12G13G 9G11
  21051082.767    21051089.291     6750364.910 8 -19096142.352 8
  20845916.990    20845923.860    31218177.959 9 -43985194.615 9
  21518061.737    21518066.679    66614769.252 8-104779130.650 7
  24563161.470    24563168.257    94470153.141 8 -83167721.442 8
 86  6 12  3  9 35.0800000  0  4G12G13G 9G11
  21049763.254    21049770.292     6743436.717 8 -19101540.940 8
  20846967.774    20846973.564    31223693.008 8 -43980897.183 8
  21521595.936    21521601.769    66633343.952 8-104764656.852 7
  24566243.927    24566250.491    94486346.250 8 -83155103.435 8
 86  6 12  3  9 41.0800000  0  4G12G13G 9G11
  21048449.750    21048456.457     6736532.233 9 -19106921.062 8
  20848019.033    20848024.784    31229218.087 9 -43976591.922 8
  21525135.242    21525139.857    66651936.777 8-104750168.940 8
  24569323.419    24569330.783    94502536.558 8 -83142487.620 9
 86  6 12  3  9 47.0800000  0  4G12G13G 9G11
  21047140.356    21047147.780     6729651.516 7 -19112282.656 8
  20849072.315    20849077.995    31234753.163 9 -43972278.869 9
  21528675.821    21528681.639    66670547.777 8-104735666.883 8
  24572403.484    24572412.106    94518724.140 8 -83129873.933 8
 86  6 12  3  9 53.0800000  0  4G12G13G 9G11
  21045835.163    21045843.243     6722794.681 8 -19117625.647 9
  20850128.208    20850133.118    31240298.343 9 -43967957.964 9
  21532220.963    21532226.456    66689176.841 9-104721150.716 8
  24575484.013    24575491.113    94534908.982 8 -83117262.354 8
 86  6 12  3  9 59.0800000  0  4G12G13G 9G11
  21044534.537    21044542.194     6715961.653 9 -19122950.073 9
  20851184.988    20851191.142    31245853.596 9 -43963629.192 9
  21535768.561    21535774.961    66707823.992 8-104706620.484 8
  24578562.413    24578570.661    94551091.080 8 -83104652.942 9
 86  6 12  3 10  5.0800000  0  4G12G13G 9G11
  21043238.319    21043246.951     6709152.472 8 -19128255.926 9
  20852243.622    20852250.260    31251418.942 9 -43959292.553 8
  21539321.158    21539326.789    66726489.238 8-104692076.138 7
  24581642.438    24581649.802    94567270.417 8 -83092045.655 7
 86  6 12  3 10 11.0800000  0  4G12G13G 9G11
  21041948.460    21041954.468     6702367.106 8 -19133543.231 8
  20853304.964    20853311.610    31256994.402 8 -43954948.020 8
  21542877.106    21542882.107    66745172.587 7-104677517.693 8
  24584718.652    24584727.846    94583447.077 8 -83079440.456 8
 86  6 12  3 10 17.0800000  0  4G12G13G 9G11
  21040661.371    21040668.756     6695605.639 8 -19138811.905 9
  20854369.028    20854373.839    31262579.977 9 -43950595.635 8
  21546434.732    21546440.349    66763874.121 8-104662945.074 8
  24587797.313    24587805.038    94599621.094 8 -83066837.347 8
 86  6 12  3 10 23.0800000  0  4G12G13G 9G11
  21039378.981    21039386.984     6688868.145 8 -19144061.886 8
  20855432.333    20855438.580    31268175.641 8 -43946235.372 9
  21549996.873    21550003.476    66782593.773 8-104648358.330 8
  24590875.244    24590883.454    94615792.460 9 -83054236.284 8
 86  6 12  3 10 29.0800000  0  4G12G13G 9G11
  21038103.437    21038109.405     6682154.613 8 -19149293.211 8
  20856498.977    20856505.339    31273781.385 8 -43941867.253 8
  21553562.135    21553568.557    66801331.472 8-104633757.533 8
  24593952.701    24593959.752    94631961.197 8 -83041637.272 9
 86  6 12  3 10 35.0800000  0  4G12G13G 9G11
  21036829.541    21036835.646     6675464.963 8 -19154505.927 9
  20857566.401    20857573.825    31279397.068 9 -43937491.397 8
  21557132.308    21557137.270    66820087.173 8-104619142.699 7
  24597028.843    24597035.819    94648127.097 9 -83029040.457 8
 86  6 12  3 10 41.0800000  0  4G12G13G 9G11
  21035562.342    21035566.730     6668799.270 9 -19159699.978 8
  20858638.281    20858644.238    31285022.732 9 -43933107.765 9
  21560704.112    21560709.810    66838860.841 7-104604513.884 8
  24600104.836    24600112.613    94664290.272 7 -83016445.783 8
 86  6 12  3 10 47.0800000  0  4G12G13G 9G11
  21034297.346    21034303.703     6662157.493 9 -19164875.382 8
  20859711.143    20859717.266    31290658.408 9 -43928716.334 9
  21564279.080    21564285.940    66857652.374 9-104589871.124 8
  24603177.764    24603187.264    94680450.654 8 -83003853.280 8
 86  6 12  3 10 53.0800000  0  4G12G13G 9G11
  21033038.366    21033043.550     6655539.716 8 -19170032.092 8
  20860784.996    20860791.590    31296304.017 8 -43924317.152 9
  21567859.807    21567865.844    66876461.862 8-104575214.399 8
  24606253.983    24606259.816    94696608.291 8 -82991262.923 8
 86  6 12  3 10 59.0800000  0  4G12G13G 9G11
  21031783.433    21031789.129     6648945.980 8 -19175170.061 8
  20861861.832    20861867.459    31301959.643 9 -43919910.158 8
  21571443.028    21571447.721    66895289.382 8-104560543.603 8
  24609327.828    24609334.213    94712763.227 7 -82978674.663 7
 86  6 12  3 11  5.0800000  0  4G12G13G 9G11
  21030533.216    21030537.870     6642376.344 8 -19180289.274 8
  20862939.395    20862945.687    31307625.292 8 -43915495.383 9
  21575028.443    21575034.373    66914134.850 8-104545858.816 8
  24612401.964    24612409.055    94728915.442 8 -82966088.545 8
 86  6 12  3 11 11.0800000  0  4G12G13G 9G11
  21029287.910    21029293.480     6635830.857 8 -19185389.645 9
  20864020.270    20864025.676    31313301.010 9 -43911072.738 8
  21578618.259    21578623.543    66932998.307 7-104531160.016 8
  24615475.502    24615482.377    94745065.025 8 -82953504.445 8
 86  6 12  3 11 17.0800000  0  4G12G13G 9G11
  21028046.450    21028052.424     6629309.498 8 -19190471.217 8
  20865102.807    20865107.909    31318986.799 9 -43906642.248 9
  21582209.897    21582216.094    66951879.800 8-104516447.176 8
  24618547.832    24618555.546    94761211.966 8 -82940922.421 8
 86  6 12  3 11 23.0800000  0  4G12G13G 9G11
  21026809.266    21026817.248     6622812.325 8 -19195533.952 8
  20866186.642    20866191.860    31324682.579 9 -43902203.975 9
  21585807.609    21585813.512    66970779.245 9-104501720.337 8
  24621620.642    24621628.124    94777356.226 8 -82928342.471 9
 86  6 12  3 11 29.0800000  0  4G12G13G 9G11
  21025577.794    21025583.905     6616339.268 9 -19200577.890 8
  20867272.177    20867277.223    31330388.288 9 -43897757.970 9
  21589407.443    21589413.620    66989696.405 8-104486979.690 7
  24624693.183    24624698.616    94793497.712 8 -82915764.708 9
 86  6 12  3 11 35.0800000  0  4G12G13G 9G11
  21024350.660    21024356.290     6609890.248 8 -19205603.099 8
  20868360.363    20868365.372    31336103.800 8 -43893304.329 9
  21593010.627    21593015.474    67008631.392 9-104472225.156 7
  24627762.481    24627770.685    94809636.447 9 -82903189.059 8
 86  6 12  3 11 41.0800000  0  4G12G13G 9G11
  21023127.797    21023133.656     6603465.257 7 -19210609.579 8
  20869449.513    20869454.834    31341829.089 9 -43888843.060 8
  21596617.056    21596622.217    67027584.119 8-104457456.794 8
  24630833.444    24630841.269    94825772.349 9 -82890615.642 8
 86  6 12  3 11 47.0800000  0  4G12G13G 9G11
  21021910.096    21021916.433     6597064.323 8 -19215597.321 8
  20870540.421    20870546.053    31347564.165 9 -43884374.165 8
  21600227.194    21600231.885    67046554.568 8-104442674.640 9
  24633904.400    24633911.195    94841905.425 9 -82878044.405 8
 86  6 12  3 11 53.0800000  0  4G12G13G 9G11
  21020697.025    21020701.751     6590687.402 8 -19220566.344 8
  20871633.504    20871638.666    31353309.052 8 -43879897.626 9
  21603840.881    21603846.380    67065542.599 9-104427878.767 8
  24636973.433    24636980.641    94858035.618 9 -82865475.423 8
 86  6 12  3 11 59.0800000  0  4G12G13G 9G11
  21019488.019    21019492.839     6584334.573 8 -19225516.605 8
  20872728.693    20872734.387    31359063.681 8 -43875413.505 9
  21607457.314    21607462.829    67084548.239 8-104413069.180 8
  24640042.723    24640048.923    94874162.928 8 -82852908.689 8
 86  6 12  3 12  5.0800000  0  4G12G13G 9G11
  21018283.442    21018289.467     6578005.848 8 -19230448.094 8
  20873825.268    20873831.243    31364828.108 8 -43870921.746 9
  21611077.779    21611082.626    67103571.449 9-104398245.894 8
  24643110.552    24643117.023    94890287.409 8 -82840344.161 8
 86  6 12  3 12 11.0800000  0  4G12G13G 9G11
  21017083.508    21017088.801     6571701.144 8 -19235360.833 8
  20874924.515    20874929.685    31370602.218 8 -43866422.431 8
  21614700.386    21614706.343    67122612.196 8-104383408.959 8
  24646177.618    24646184.373    94906408.979 8 -82827781.916 9
 86  6 12  3 12 17.0800000  0  4G12G13G 9G11
  21015889.240    21015894.463     6565420.538 9 -19240254.819 8
  20876025.632    20876030.596    31376385.980 8 -43861915.608 8
  21618327.404    21618332.461    67141670.458 9-104368558.364 8
  24649245.959    24649252.875    94922527.567 8 -82815221.986 8
 86  6 12  3 12 23.0800000  0  4G12G13G 9G11
  21014698.251    21014703.873     6559164.017 8 -19245130.030 8
  20877126.423    20877133.207    31382179.357 8 -43857401.301 8
  21621957.316    21621962.821    67160746.231 8-104353694.139 7
  24652312.900    24652319.226    94938643.233 8 -82802664.352 8
 86  6 12  3 12 29.0800000  0  4G12G13G 9G11
  21013512.883    21013517.481     6552931.590 8 -19249986.458 8
  20878230.978    20878237.265    31387982.413 9 -43852879.429 9
  21625591.393    21625596.865    67179839.357 8-104338816.381 8
  24655378.189    24655386.399    94954755.953 7 -82790108.986 8
 86  6 12  3 12 35.0800000  0  4G12G13G 9G11
  21012330.606    21012335.493     6546723.256 8 -19254824.125 8
  20879336.359    20879342.918    31393795.122 9 -43848350.043 9
  21629227.786    21629233.517    67198949.929 8-104323925.039 7
  24658443.280    24658450.696    94970865.687 7 -82777555.959 8
 86  6 12  3 12 41.0800000  0  4G12G13G 9G11
  21011155.278    21011159.678     6540539.208 9 -19259642.871 8
  20880444.654    20880451.126    31399617.529 9 -43843813.103 9
  21632869.117    21632873.576    67218078.180 8-104309019.902 8
  24661509.574    24661515.897    94986972.605 8 -82765005.107 8
 86  6 12  3 12 47.0800000  0  4G12G13G 9G11
  21009982.748    21009988.911     6534379.413 9 -19264442.711 8
  20881553.645    20881560.528    31405449.682 9 -43839268.575 9
  21636511.266    21636516.150    67237223.919 8-104294101.137 8
  24664573.401    24664580.087    95003076.708 7 -82752456.461 8
 86  6 12  3 12 53.0800000  0  4G12G13G 9G11
  21008813.808    21008820.362     6528243.899 9 -19269223.635 9
  20882666.385    20882672.123    31411291.591 8 -43834716.437 8
  21640156.204    21640162.934    67256387.183 8-104279168.731 8
  24667636.559    24667644.556    95019177.984 8 -82739910.023 8
 86  6 12  3 12 59.0800000  0  4G12G13G 9G11
  21007650.476    21007656.140     6522132.727 9 -19273985.578 8
  20883779.975    20883785.972    31417143.276 9 -43830156.680 8
  21643806.649    21643813.153    67275567.993 7-104264222.658 8
  24670700.384    24670707.588    95035276.448 7 -82727365.756 7
 86  6 12  3 13  5.0800000  0  4G12G13G 9G11
  21006493.434    21006499.671     6516045.845 9 -19278728.596 8
  20884894.540    20884901.669    31423004.595 9 -43825589.410 8
  21647459.497    21647466.373    67294766.240 8-104249262.998 8
  24673763.214    24673770.569    95051372.104 9 -82714823.674 7
 86  6 12  3 13 11.0800000  0  4G12G13G 9G11
  21005339.055    21005345.415     6509983.337 8 -19283452.624 9
  20886013.525    20886019.198    31428875.593 8 -43821014.610 9
  21651118.082    21651123.086    67313981.976 9-104234289.703 7
  24676826.934    24676832.361    95067464.998 8 -82702283.768 7
 86  6 12  3 13 17.0800000  0  4G12G13G 9G11
  21004189.758    21004196.175     6503945.157 8 -19288157.698 9
  20887131.124    20887136.993    31434756.336 8 -43816432.221 8
  21654778.191    21654781.693    67333215.136 8-104219302.824 8
  24679888.579    24679893.100    95083555.101 7 -82689746.022 7
 86  6 12  3 13 23.0800000  0  4G12G13G 9G11
  21003045.972    21003051.528     6497931.400 9 -19292843.749 9
  20888252.918    20888257.650    31440646.639 9 -43811842.371 8
  21658440.213    21658444.984    67352465.747 8-104204302.346 8
  24682949.377    24682954.701    95099642.383 9 -82677210.494 8
 86  6 12  3 13 29.0800000  0  4G12G13G 9G11
  21001906.045    21001911.266     6491942.016 9 -19297510.800 8
  20889375.270    20889380.578    31446546.532 9 -43807245.049 8
  21662107.730    21662111.831    67371733.745 9-104189288.314 8
  24686008.558    24686014.993    95115726.761 8 -82664677.213 7
 86  6 12  3 13 35.0800000  0  4G12G13G 9G11
  21000770.662    21000776.112     6485977.001 9 -19302158.859 8
  20890500.331    20890506.120    31452456.001 9 -43802640.261 8
  21665776.709    21665782.054    67391019.106 8-104174260.758 8
  24689069.247    24689076.692    95131808.342 7 -82652146.105 7
 86  6 12  3 13 41.0800000  0  4G12G13G 9G11
  20999640.390    20999646.756     6480036.426 8 -19306787.870 8
  20891626.452    20891632.475    31458375.083 9 -43798027.988 8
  21669449.746    21669454.849    67410321.799 8-104159219.697 8
  24692129.835    24692137.457    95147887.120 8 -82639617.186 7
 86  6 12  3 13 47.0800000  0  4G12G13G 9G11
  20998514.102    20998520.717     6474120.288 9 -19311397.850 8
  20892755.284    20892760.547    31464303.821 9 -43793408.179 8
  21673125.796    21673132.028    67429641.791 9-104144165.184 8
  24695188.698    24695196.368    95163963.034 8 -82627090.505 7
 86  6 12  3 13 53.0800000  0  4G12G13G 9G11
  20997393.858    20997399.821     6468228.596 8 -19315988.769 8
  20893885.609    20893890.780    31470242.208 9 -43788780.862 8
  21676807.019    21676811.890    67448979.037 7-104129097.190 8
  24698247.069    24698254.398    95180036.079 7 -82614566.055 8
 86  6 12  3 13 59.0800000  0  4G12G13G 9G11
  20996276.488    20996282.696     6462361.306 8 -19320560.689 8
  20895016.951    20895022.351    31476190.212 9 -43784146.057 8
  21680488.742    21680495.415    67468333.548 8-104114015.774 8
  24701304.377    24701312.756    95196106.261 7 -82602043.847 7
 86  6 12  3 14  5.0800000  0  4G12G13G 9G11
  20995164.721    20995171.602     6456518.534 9 -19325113.493 9
  20896150.043    20896154.953    31482147.742 9 -43779503.813 9
  21684175.917    21684182.435    67487705.380 7-104098920.835 8
  24704362.163    24704371.110    95212173.538 7 -82589523.880 8
 86  6 12  3 14 11.0800000  0  4G12G13G 9G11
  20994058.140    20994064.408     6450700.177 8 -19329647.282 9
  20897286.052    20897292.095    31488114.853 9 -43774854.116 8
  21687864.648    21687871.978    67507094.334 8-104083812.566 8
  24707420.674    24707428.218    95228237.937 8 -82577006.168 8
 86  6 12  3 14 17.0800000  0  4G12G13G 9G11
  20992956.446    20992961.764     6444906.336 9 -19334161.952 7
  20898423.699    20898428.913    31494091.468 8 -43770197.016 9
  21691557.319    21691563.408    67526500.520 8-104068690.866 9
  24710477.571    24710484.433    95244299.453 7 -82564490.710 8
 86  6 12  3 14 23.0800000  0  4G12G13G 9G11
  20991858.370    20991864.152     6439136.993 8 -19338657.552 8
  20899562.429    20899568.306    31500077.557 9 -43765532.529 9
  21695254.498    21695260.729    67545923.850 8-104053555.799 9
  24713532.825    24713537.922    95260358.006 7 -82551977.540 8
 86  6 12  3 14 29.0800000  0  4G12G13G 9G11
  20990764.787    20990771.024     6433392.076 8 -19343134.105 7
  20900702.683    20900708.423    31506073.099 9 -43760860.688 8
  21698953.053    21698959.595    67565364.301 8-104038407.406 7
  24716587.192    24716594.658    95276413.614 7 -82539466.676 8
 86  6 12  3 14 35.0800000  0  4G12G13G 9G11
  20989675.440    20989682.779     6427671.652 8 -19347591.573 9
  20901845.500    20901851.674    31512078.063 9 -43756181.487 8
  21702656.483    21702662.472    67584821.767 8-104023245.754 9
  24719641.721    24719650.288    95292466.280 7 -82526958.104 8
 86  6 12  3 14 41.0800000  0  4G12G13G 9G11
  20988591.673    20988599.346     6421975.784 9 -19352029.911 8
  20902990.284    20902995.978    31518092.484 9 -43751494.922 8
  21706362.094    21706367.177    67604296.236 8-104008070.861 8
  24722696.239    24722703.640    95308515.967 7 -82514451.861 7
 86  6 12  3 14 47.0800000  0  4G12G13G 9G11
  20987511.873    20987519.881     6416304.430 8 -19356449.144 8
  20904137.379    20904142.498    31524116.293 8 -43746801.051 8
  21710071.316    21710076.207    67623787.725 8-103992882.671 8
  24725749.313    24725756.971    95324562.714 7 -82501947.898 9
 86  6 12  3 14 53.0800000  0  4G12G13G 9G11
  20986437.836    20986445.152     6410657.591 8 -19360849.277 9
  20905285.741    20905291.661    31530149.388 8 -43742099.931 8
  21713783.838    21713789.327    67643296.223 8-103977681.245 8
  24728801.457    24728810.155    95340606.473 6 -82489446.260 7
 86  6 12  3 14 59.0800000  0  4G12G13G 9G11
  20985368.195    20985375.357     6405035.229 9 -19365230.327 9
  20906433.890    20906441.508    31536191.824 8 -43737391.550 9
  21717500.110    21717504.991    67662821.716 8-103962466.580 8
  24731854.776    24731862.872    95356647.289 8 -82476946.921 7
 86  6 12  3 15  5.0800000  0  4G12G13G 9G11
  20984302.075    20984309.036     6399437.323 8 -19369592.337 8
  20907585.963    20907592.864    31542243.490 8 -43732675.961 8
  21721218.695    21721224.901    67682363.960 9-103947238.857 8
  24734907.082    24734914.205    95372684.976 8 -82464450.012 8
 86  6 12  3 15 11.0800000  0  4G12G13G 9G11
  20983240.893    20983249.054     6393863.865 8 -19373935.292 8
  20908739.126    20908747.511    31548304.443 9 -43727953.141 8
  21724941.559    21724945.482    67701923.078 8-103931997.988 8
  24737958.793    24737965.240    95388719.600 8 -82451955.488 7
 86  6 12  3 15 17.0800000  0  4G12G13G 9G11
  20982184.795    20982192.906     6388314.866 8 -19378259.191 7
  20909894.080    20909901.463    31554374.615 8 -43723223.144 9
  21728665.544    21728669.598    67721499.005 8-103916744.008 8
  24741008.745    24741015.692    95404751.154 8 -82439463.347 7
 86  6 12  3 15 23.0800000  0  4G12G13G 9G11
  20981134.220    20981141.670     6382790.392 8 -19382563.968 8
  20911050.236    20911058.388    31560453.984 8 -43718485.981 9
  21732393.296    21732399.312    67741091.746 7-103901476.944 8
  24744060.126    24744066.686    95420779.714 7 -82426973.586 8
 86  6 12  3 15 29.0800000  0  4G12G13G 9G11
  20980087.995    20980094.764     6377290.438 8 -19386849.644 8
  20912210.302    20912217.185    31566542.593 8 -43713741.606 9
  21736124.418    21736130.752    67760701.231 7-103886196.834 8
  24747110.685    24747115.733    95436805.166 7 -82414486.219 7
 86  6 12  3 15 35.0800000  0  4G12G13G 9G11
  20979046.921    20979053.015     6371814.991 8 -19391116.223 8
  20913370.331    20913376.851    31572640.397 9 -43708990.072 9
  21739859.604    21739864.593    67780327.514 7-103870903.637 7
  24750159.354    24750166.281    95452827.543 7 -82402001.270 8
 86  6 12  3 15 41.0800000  0  4G12G13G 9G11
  20978009.018    20978014.868     6366364.099 8 -19395363.676 8
  20914532.409    20914539.740    31578747.387 9 -43704231.374 8
  21743597.253    21743603.669    67799970.582 8-103855597.350 8
  24753207.771    24753214.069    95468846.798 8 -82389518.733 7
 86  6 12  3 15 47.0800000  0  4G12G13G 9G11
  20976977.954    20976983.771     6360937.807 8 -19399591.962 9
  20915696.964    20915701.987    31584863.657 9 -43699465.447 8
  21747338.348    21747344.665    67819630.307 8-103840278.101 8
  24756254.680    24756260.537    95484863.050 7 -82377038.549 8
 86  6 12  3 15 53.0800000  0  4G12G13G 9G11
  20975948.780    20975954.428     6355536.098 9 -19403801.079 7
  20916862.003    20916867.788    31590989.193 9 -43694692.299 8
  21751082.573    21751088.576    67839306.784 8-103824945.792 8
  24759302.277    24759307.447    95500876.287 7 -82364560.713 7
 86  6 12  3 15 59.0800000  0  4G12G13G 9G11
  20974925.020    20974932.731     6350159.082 8 -19407990.957 8
  20918028.305    20918035.075    31597124.013 9 -43689911.927 9
  21754830.792    21754836.127    67859000.081 7-103809600.360 8
  24762348.777    24762354.984    95516886.550 8 -82352085.179 7
 86  6 12  3 16  5.0800000  0  4G12G13G 9G11
  20973906.458    20973912.792     6344806.776 8 -19412161.580 8
  20919198.432    20919203.934    31603268.068 9 -43685124.338 8
  21758581.222    21758587.421    67878710.161 8-103794241.867 7
  24765394.705    24765401.809    95532893.912 7 -82339611.915 9
 86  6 12  3 16 11.0800000  0  4G12G13G 9G11
  20972893.453    20972900.205     6339479.175 9 -19416312.959 8
  20920369.362    20920375.631    31609421.348 9 -43680329.583 8
  21762335.540    21762340.955    67898436.953 8-103778870.337 8
  24768439.741    24768447.364    95548898.261 7 -82327140.997 7
 86  6 12  3 16 17.0800000  0  4G12G13G 9G11
  20971883.006    20971889.710     6334176.292 8 -19420445.067 8
  20921542.011    20921548.153    31615583.924 9 -43675527.574 8
  21766092.414    21766097.916    67918180.501 8-103763485.771 8
  24771482.951    24771492.634    95564899.628 7 -82314672.394 7
 86  6 12  3 16 23.0800000  0  4G12G13G 9G11
  20970880.682    20970885.934     6328898.264 8 -19424557.830 8
  20922717.051    20922723.301    31621755.809 9 -43670718.307 9
  21769852.224    21769857.455    67937940.771 8-103748088.151 7
  24774528.065    24774536.072    95580898.075 6 -82302206.080 7
 86  6 12  3 16 29.0800000  0  4G12G13G 9G11
  20969879.124    20969887.158     6323645.087 8 -19428651.210 8
  20923893.765    20923898.907    31627936.937 9 -43665901.835 9
  21773616.317    21773621.171    67957717.780 8-103732677.490 7
  24777572.275    24777580.422    95596893.632 6 -82289742.018 8
 86  6 12  3 16 35.0800000  0  3G12G13G 9
  20968885.122    20968892.171     6318416.729 8 -19432725.251 9
  20925070.601    20925076.544    31634127.240 9 -43661078.230 8
  21777382.082    21777388.099    67977511.454 9-103717253.861 8
 86  6 12  3 16 41.0800000  0  3G12G13G 9
  20967895.223    20967902.164     6313213.157 8 -19436779.975 8
  20926251.103    20926256.030    31640326.677 8 -43656247.489 8
  21781152.676    21781158.023    67997321.716 8-103701817.298 8
 86  6 12  3 16 47.0800000  0  3G12G13G 9
  20966909.503    20966915.737     6308034.277 8 -19440815.464 7
  20927431.908    20927437.207    31646535.109 9 -43651409.744 8
  21784925.814    21784930.929    68017148.466 8-103686367.893 7
 86  6 12  3 16 53.0800000  0  3G12G13G 9
  20965928.625    20965934.762     6302880.108 8 -19444831.692 7
  20928615.442    20928621.035    31652752.639 9 -43646564.925 8
  21788702.293    21788706.952    68036991.684 8-103670905.638 7
 86  6 12  3 16 59.0800000  0  3G12G13G 9
  20964952.647    20964958.863     6297750.730 9 -19448828.620 8
  20929800.676    20929805.218    31658979.229 9 -43641713.034 8
  21792481.795    21792487.580    68056851.399 8-103655430.547 7
 86  6 12  3 17  5.0800000  0  3G12G13G 9
  20963981.121    20963986.371     6292646.099 7 -19452806.255 9
  20930987.456    20930992.499    31665214.790 8 -43636854.144 8
  21796264.159    21796267.899    68076727.566 8-103639942.624 8
 86  6 12  3 17 11.0800000  0  3G12G13G 9
  20963014.746    20963021.750     6287566.253 9 -19456764.568 7
  20932176.174    20932181.393    31671459.372 9 -43631988.250 8
  21800048.681    21800053.394    68096620.137 8-103624441.918 7
 86  6 12  3 17 17.0800000  0  3G12G13G 9
  20962052.814    20962058.318     6282511.205 7 -19460703.566 7
  20933365.484    20933369.703    31677713.037 9 -43627115.259 8
  21803836.924    21803842.694    68116529.131 8-103608928.420 8
 86  6 12  3 17 23.0800000  0  3G12G13G 9
  20961094.533    20961100.272     6277480.983 8 -19464623.229 7
  20934557.644    20934561.593    31683975.743 9 -43622235.226 8
  21807630.002    21807634.891    68136454.540 8-103593402.120 8
 86  6 12  3 17 29.0800000  0  3G12G13G 9
  20960143.024    20960147.400     6272475.591 9 -19468523.527 8
  20935750.503    20935754.558    31690247.465 9 -43617348.178 8
  21811423.402    21811428.431    68156396.301 8-103577863.099 8
 86  6 12  3 17 35.0800000  0  3G12G13G 9
  20959195.646    20959201.191     6267495.099 8 -19472404.430 7
  20936946.311    20936950.637    31696528.219 9 -43612454.075 9
  21815221.132    21815227.146    68176354.412 9-103562311.333 8
 86  6 12  3 17 41.0800000  0  3G12G13G 9
  20958253.014    20958258.715     6262539.551 8 -19476265.905 9
  20938142.861    20938147.820    31702817.981 9 -43607552.963 8
  21819021.595    21819028.524    68196328.907 8-103546746.791 8
 86  6 12  3 17 47.0800000  0  3G12G13G 9
  20957315.172    20957320.582     6257608.876 9 -19480107.982 7
  20939341.088    20939345.604    31709116.724 9 -43602644.847 8
  21822826.735    21822833.086    68216319.870 8-103531169.431 8
 86  6 12  3 17 53.0800000  0  3G12G13G 9
  20956380.066    20956386.383     6252703.197 8 -19483930.583 8
  20940541.348    20940546.662    31715424.514 9 -43597729.688 9
  21826633.734    21826640.933    68236327.092 8-103515579.399 7
 86  6 12  3 17 59.0800000  0  3G12G13G 9
  20955451.886    20955457.932     6247822.446 8 -19487733.771 7
  20941743.434    20941748.873    31721741.395 8 -43592807.444 8
  21830443.420    21830450.094    68256350.595 8-103499976.679 8
 86  6 12  3 18  5.0800000  0  3G12G13G 9
  20954527.850    20954534.110     6242966.579 8 -19491517.569 9
  20942947.262    20942952.102    31728067.207 9 -43587878.228 8
  21834258.490    21834262.714    68276390.262 8-103484361.354 8
 86  6 12  3 18 11.0800000  0  3G12G13G 9
  20953608.754    20953614.853     6238135.576 7 -19495281.982 7
  20944152.616    20944157.226    31734401.812 9 -43582942.183 8
  21838075.822    21838079.753    68296446.129 8-103468733.403 8
 86  6 12  3 18 17.0800000  0  3G12G13G 9
  20952694.190    20952702.570     6233329.474 8 -19499026.996 8
  20945359.713    20945364.234    31740745.251 9 -43577999.243 8
  21841893.664    21841899.622    68316518.125 8-103453092.882 7
 86  6 12  3 18 23.0800000  0  3G12G13G 9
  20951783.873    20951791.206     6228548.311 8 -19502752.579 8
  20946569.077    20946573.552    31747097.504 9 -43573049.421 8
  21845717.404    21845721.233    68336606.249 9-103437439.793 8
 86  6 12  3 18 29.0800000  0  3G12G13G 9
  20950878.479    20950884.951     6223792.014 9 -19506458.785 7
  20947779.913    20947784.854    31753458.509 9 -43568092.801 9
  21849542.736    21849548.365    68356710.415 9-103421774.218 8
 86  6 12  3 18 35.0800000  0  3G12G13G 9
  20949978.729    20949985.309     6219060.570 8 -19510145.611 8
  20948991.501    20948996.892    31759828.316 9 -43563129.310 8
  21853372.108    21853376.877    68376830.655 8-103406096.130 8
 86  6 12  3 18 41.0800000  0  3G12G13G 9
  20949082.704    20949088.666     6214353.966 8 -19513813.095 9
  20950205.722    20950211.033    31766206.974 8 -43558158.921 8
  21857204.106    21857209.424    68396966.904 8-103390405.542 7
 86  6 12  3 18 47.0800000  0  3G12G13G 9
  20948192.466    20948196.955     6209672.365 8 -19517461.087 8
  20951420.262    20951427.792    31772594.486 9 -43553181.642 9
  21861039.500    21861043.345    68417119.191 9-103374702.467 7
 86  6 12  3 18 53.0800000  0  3G12G13G 9
  20947305.972    20947312.003     6205015.748 8 -19521089.629 7
  20952637.421    20952643.808    31778990.729 9 -43548197.552 8
  21864876.524    21864881.007    68437287.484 8-103358986.902 8
 86  6 12  3 18 59.0800000  0  3G12G13G 9
  20946425.321    20946431.235     6200384.174 8 -19524698.646 8
  20953855.281    20953862.685    31785395.779 9 -43543206.605 8
  21868716.856    21868721.138    68457471.801 8-103343258.868 7
 86  6 12  3 19  5.0800000  0  3G12G13G 9
  20945549.330    20945552.985     6195777.716 8 -19528288.093 8
  20955076.606    20955082.094    31791809.738 9 -43538208.717 9
  21872560.444    21872566.816    68477672.066 9-103327518.406 8
 86  6 12  3 19 11.0800000  0  3G12G13G 9
  20944676.583    20944682.757     6191196.327 8 -19531858.017 7
  20956298.432    20956305.331    31798232.558 9 -43533203.926 8
  21876407.683    21876413.244    68497888.394 8-103311765.428 7
 86  6 12  3 19 17.0800000  0  3G12G13G 9
  20943808.942    20943816.298     6186640.125 8 -19535408.299 8
  20957522.862    20957529.147    31804664.232 9 -43528192.228 9
  21880258.132    21880263.853    68518120.886 8-103295999.866 7
 86  6 12  3 19 23.0800000  0  3G12G13G 9
  20942946.470    20942953.259     6182108.966 9 -19538939.074 9
  20958748.873    20958753.729    31811104.694 9 -43523173.687 8
  21884111.336    21884117.513    68538369.307 9-103280221.880 8
 86  6 12  3 19 29.0800000  0  3G12G13G 9
  20942088.771    20942095.143     6177602.880 8 -19542450.300 7
  20959976.243    20959981.543    31817553.824 9 -43518148.381 9
  21887968.094    21887973.011    68558633.588 8-103264431.540 7
 86  6 12  3 19 35.0800000  0  3G12G13G 9
  20941236.453    20941243.892     6173121.916 9 -19545941.974 8
  20961205.614    20961209.921    31824011.627 9 -43513116.327 9
  21891826.711    21891832.250    68578913.726 8-103248628.835 8
 86  6 12  3 19 41.0800000  0  3G12G13G 9
  20940387.712    20940395.431     6168665.972 8 -19549414.130 8
  20962435.542    20962441.005    31830478.220 8 -43508077.426 8
  21895688.919    21895693.934    68599209.671 7-103232813.810 8
 86  6 12  3 19 47.0800000  0  3G12G13G 9
  20939544.248    20939552.256     6164235.088 8 -19552866.760 8
  20963668.602    20963672.809    31836953.436 8 -43503031.806 8
  21899554.146    21899558.819    68619521.408 9-103216986.477 8
 86  6 12  3 19 53.0800000  0  3G12G13G 9
  20938706.439    20938714.679     6159829.277 8 -19556299.855 8
  20964901.587    20964907.348    31843437.278 9 -43497979.458 9
  21903421.217    21903427.364    68639848.871 8-103201146.901 8
 86  6 12  3 19 59.0800000  0  3G12G13G 9
  20937872.860    20937879.097     6155448.552 9 -19559713.410 8
  20966136.189    20966142.689    31849929.700 9 -43492920.435 8
  21907292.255    21907298.771    68660192.073 8-103185295.065 8
 86  6 12  3 20  5.0800000  0  3G12G13G 9
  20937045.176    20937051.293     6151092.842 8 -19563107.460 9
  20967374.098    20967379.691    31856430.628 9 -43487854.786 8
  21911167.025    21911172.415    68680550.902 8-103169431.037 8
 86  6 12  3 20 11.0800000  0  3G12G13G 9
  20936221.310    20936226.413     6146762.197 9 -19566481.995 8
  20968612.970    20968618.219    31862940.137 9 -43482782.430 7
  21915044.055    21915049.235    68700925.389 8-103153554.815 8
 86  6 12  3 20 17.0800000  0  3G12G13G 9
  20935402.532    20935407.836     6142456.542 8 -19569837.050 8
  20969853.528    20969858.216    31869458.163 9 -43477703.442 8
  21918924.225    21918929.426    68721315.468 9-103137666.454 8
 86  6 12  3 20 23.0800000  0  3G12G13G 9
  20934586.811    20934591.474     6138176.030 8 -19573172.515 8
  20971095.738    20971100.016    31875984.628 9 -43472617.893 8
  21922806.666    21922812.427    68741721.100 7-103121765.954 7
 86  6 12  3 20 29.0800000  0  3G12G13G 9
  20933777.826    20933782.163     6133920.601 8 -19576488.440 7
  20972339.196    20972343.351    31882519.604 9 -43467525.690 9
  21926692.797    21926698.771    68762142.274 9-103105853.356 8
 86  6 12  3 20 35.0800000  0  3G12G13G 9
  20932972.580    20932978.026     6129690.315 7 -19579784.765 8
  20973584.115    20973589.070    31889063.035 9 -43462426.909 9
  21930582.120    21930587.581    68782579.004 8-103089928.636 8
 86  6 12  3 20 41.0800000  0  3G12G13G 9
  20932170.875    20932177.447     6125485.240 8 -19583061.447 8
  20974830.842    20974835.756    31895615.002 9 -43457321.474 8
  21934474.261    21934480.364    68803031.352 7-103073991.747 8
 86  6 12  3 20 47.0800000  0  3G12G13G 9
  20931376.446    20931383.178     6121305.385 8 -19586318.469 8
  20976079.449    20976084.652    31902175.535 9 -43452209.370 9
  21938369.068    21938375.328    68823499.217 9-103058042.761 9
 86  6 12  3 20 53.0800000  0  3G12G13G 9
  20930585.068    20930591.983     6117150.729 8 -19589555.858 7
  20977329.051    20977333.824    31908744.555 9 -43447090.645 8
  21942268.410    21942272.891    68843982.704 8-103042081.604 7
 86  6 12  3 20 59.0800000  0  3G12G13G 9
  20929799.836    20929805.753     6113021.369 8 -19592773.535 8
  20978581.130    20978586.855    31915322.191 9 -43441965.217 9
  21946168.063    21946173.807    68864481.735 8-103026108.341 8
 86  6 12  3 21  5.0800000  0  3G12G13G 9
  20929018.532    20929026.497     6108917.336 8 -19595971.484 7
  20979832.792    20979840.605    31921908.363 9 -43436833.143 8
  21950071.782    21950077.753    68884996.191 9-103010123.046 8
 86  6 12  3 21 11.0800000  0  3G12G13G 9
  20928242.607    20928249.193     6104838.595 8 -19599149.728 8
  20981088.988    20981095.314    31928503.097 9 -43431694.391 8
  21953979.422    21953983.678    68905526.186 8-102994125.655 8
 86  6 12  3 21 17.0800000  0  3G12G13G 9
  20927471.433    20927477.870     6100785.114 8 -19602308.283 8
  20982345.387    20982351.641    31935106.428 8 -43426548.931 8
  21957888.362    21957893.491    68926071.712 9-102978116.143 8
 86  6 12  3 21 23.0800000  0  3G12G13G 9
  20926704.787    20926710.345     6096756.922 8 -19605447.131 8
  20983604.244    20983609.075    31941718.207 9 -43421396.890 8
  21961800.265    21961805.429    68946632.668 8-102962094.632 8
 86  6 12  3 21 29.0800000  0  3G12G13G 9
  20925943.360    20925947.949     6092753.946 9 -19608566.332 8
  20984862.865    20984868.998    31948338.423 9 -43416238.275 8
  21965715.461    21965721.821    68967208.970 8-102946061.150 7
 86  6 12  3 21 35.0800000  0  3G12G13G 9
  20925186.289    20925192.569     6088776.226 8 -19611665.847 7
  20986123.496    20986129.199    31954966.999 8 -43411073.163 7
  21969633.748    21969638.967    68987800.529 8-102930015.789 8
 86  6 12  3 21 41.0800000  0  3G12G13G 9
  20924433.094    20924439.245     6084823.806 9 -19614745.660 8
  20987387.566    20987393.427    31961603.977 9 -43405901.482 8
  21973554.995    21973562.080    69008407.407 8-102913958.473 8
 86  6 12  3 21 47.0800000  0  3G12G13G 9
  20923686.560    20923691.921     6080896.754 8 -19617805.687 8
  20988650.925    20988657.932    31968249.387 8 -43400723.244 8
  21977480.963    21977486.066    69029029.695 7-102897889.161 7
 86  6 12  3 21 53.0800000  0  3G12G13G 9
  20922945.023    20922951.277     6076994.975 8 -19620846.049 8
  20989918.319    20989923.378    31974903.146 9 -43395538.493 8
  21981408.369    21981412.312    69049667.218 8-102881807.970 8
 86  6 12  3 21 59.0800000  0  3G12G13G 9
  20922205.839    20922211.727     6073118.442 9 -19623866.721 7
  20991185.737    20991190.773    31981565.267 9 -43390347.226 8
  21985338.098    21985344.043    69070320.006 8-102865714.884 8
 86  6 12  3 22  5.0800000  0  3G12G13G 9
  20921472.791    20921479.411     6069267.286 8 -19626867.624 8
  20992455.600    20992461.201    31988235.769 8 -43385149.438 8
  21989269.892    21989276.525    69090988.078 9-102849609.903 8
 86  6 12  3 22 11.0800000  0  3G12G13G 9
  20920745.220    20920752.015     6065441.536 8 -19629848.724 8
  20993726.510    20993731.744    31994914.603 8 -43379945.150 9
  21993205.623    21993211.553    69111671.408 8-102833493.026 7
 86  6 12  3 22 17.0800000  0  3G12G13G 9
  20920022.250    20920028.762     6061641.251 7 -19632809.994 8
  20994999.119    20995005.758    32001601.836 9 -43374734.327 8
  21997144.870    21997150.301    69132369.998 8-102817364.247 8
 86  6 12  3 22 23.0800000  0  3G12G13G 9
  20919304.462    20919310.982     6057866.384 8 -19635751.436 8
  20996273.013    20996280.180    32008297.387 9 -43369517.007 9
  22001085.331    22001092.224    69153083.845 7-102801223.599 8
 86  6 12  3 22 29.0800000  0  3G12G13G 9
  20918590.999    20918596.461     6054116.894 8 -19638673.116 8
  20997548.486    20997555.426    32015001.343 9 -43364293.137 8
  22005031.308    22005037.839    69173812.884 8-102785071.109 8
 86  6 12  3 22 35.0800000  0  3G12G13G 9
  20917882.706    20917889.177     6050392.886 8 -19641574.944 8
  20998825.700    20998832.168    32021713.710 9 -43359062.732 9
  22008977.929    22008985.346    69194557.104 9-102768906.774 8
 86  6 12  3 22 41.0800000  0  3G12G13G 9
  20917178.024    20917184.942     6046694.327 9 -19644456.935 8
  21000104.859    21000111.410    32028434.343 8 -43353825.873 8
  22012929.110    22012934.595    69215316.456 7-102752730.668 8
 86  6 12  3 22 47.0800000  0  3G12G13G 9
  20916478.922    20916486.247     6043021.189 9 -19647319.116 9
  21001384.781    21001390.920    32035163.316 9 -43348582.505 9
  22016883.124    22016887.935    69236090.924 8-102736542.788 8
 86  6 12  3 22 53.0800000  0  3G12G13G 9
  20915784.348    20915790.697     6039373.414 8 -19650161.544 7
  21002667.754    21002672.805    32041900.541 9 -43343332.722 8
  22020838.789    22020844.775    69256880.373 8-102720343.213 8
 86  6 12  3 22 59.0800000  0  3G12G13G 9
  20915094.880    20915102.422     6035751.001 7 -19652984.188 7
  21003951.403    21003956.959    32048645.984 9 -43338076.531 8
  22024798.678    22024802.957    69277684.735 8-102704132.022 8
 86  6 12  3 23  5.0800000  0  3G12G13G 9
  20914411.553    20914418.182     6032154.068 8 -19655786.994 7
  21005237.306    21005240.893    32055399.670 8 -43332813.914 8
  22028758.996    22028764.767    69298504.080 8-102687909.175 9
 86  6 12  3 23 11.0800000  0  3G12G13G 9
  20913731.638    20913738.452     6028582.529 8 -19658570.017 7
  21006524.625    21006529.028    32062161.561 9 -43327544.908 8
  22032723.473    22032729.446    69319338.460 8-102671674.593 8
 86  6 12  3 23 17.0800000  0  3G12G13G 9
  20913055.792    20913063.468     6025036.434 8 -19661333.194 7
  21007812.820    21007817.694    32068931.513 9 -43322269.623 8
  22036691.653    22036697.499    69340187.704 9-102655428.422 8
 86  6 12  3 23 23.0800000  0  3G12G13G 9
  20912387.180    20912392.461     6021515.702 8 -19664076.645 7
  21009102.798    21009107.105    32075709.531 9 -43316988.038 9
  22040661.596    22040668.179    69361051.760 7-102639170.714 8
 86  6 12  3 23 29.0800000  0  3G12G13G 9
  20911722.135    20911727.496     6018020.301 7 -19666800.323 7
  21010393.675    21010399.035    32082495.602 9 -43311700.188 8
  22044634.997    22044641.472    69381930.642 8-102622901.465 8
 86  6 12  3 23 35.0800000  0  3G12G13G 9
  20911061.136    20911066.408     6014550.321 8 -19669504.200 8
  21011685.436    21011691.785    32089289.641 9 -43306406.135 7
  22048610.150    22048616.680    69402824.235 7-102606620.745 8
 86  6 12  3 23 41.0800000  0  3G12G13G 9
  20910405.752    20910411.422     6011105.775 8 -19672188.272 8
  21012979.916    21012985.852    32096091.794 9 -43301105.751 9
  22052589.578    22052595.775    69423732.582 8-102590328.522 8
 86  6 12  3 23 47.0800000  0  3G12G13G 9
  20909754.729    20909759.844     6007686.597 8 -19674852.556 8
  21014274.937    21014282.826    32102902.004 9 -43295799.102 7
  22056570.611    22056576.084    69444655.746 8-102574024.766 7
 86  6 12  3 23 53.0800000  0  3G12G13G 9
  20909108.864    20909115.733     6004292.938 8 -19677496.958 8
  21015573.340    21015579.469    32109720.384 8 -43290486.075 8
  22060554.687    22060560.617    69465593.648 8-102557709.524 8
 86  6 12  3 23 59.0800000  0  3G12G13G 9
  20908468.866    20908474.601     6000924.714 8 -19680121.547 8
  21016871.413    21016878.045    32116546.830 8 -43285166.776 9
  22064541.757    22064548.249    69486546.291 8-102541382.795 7
 86  6 12  3 24  5.0800000  0  3G12G13G 9
  20907832.650    20907839.090     5997581.961 8 -19682726.297 8
  21018173.296    21018178.097    32123381.267 5 -43279841.240 6
  22068531.413    22068538.106    69507513.637 8-102525044.598 8
 86  6 12  3 24 11.0800000  0  3G12G13G 9
  20907200.749    20907207.565     5994264.859 6 -19685311.050 6
  21019473.180    21019480.582    32130223.798 5 -43274509.389 6
  22072524.162    22072531.693    69528495.714 6-102508694.945 6
 86  6 12  3 24 17.0800000  0  3G12G13G 9
  20906575.085    20906582.265     5990973.384 8 -19687875.839 8
  21020779.416    21020781.350    32137074.471 3 -43269171.206 3
  22076520.555    22076527.317    69549492.521 8-102492333.795 8
 86  6 12  3 24 23.0800000  0  4G12G13G 9G 7
  20905954.351    20905960.098     5987707.497 8 -19690420.692 8
  21022085.157    21022089.602    32143933.247 8 -43263826.711 8
  22080518.466    22080525.626    69570504.125 8-102475961.131 8
                  25980819.416    -9591086.868 8
 86  6 12  3 24 29.0800000  0  4G12G13G 9G 7
  20905337.969    20905343.080     5984467.270 9 -19692945.540 8
  21023391.815    21023395.803    32150800.126 9 -43258475.891 8
  22084520.211    22084526.620    69591530.457 8-102459576.990 8
                  25977101.990    -9610630.408 8
 86  6 12  3 24 35.0800000  0  4G12G13G 9G 7
  20904725.770    20904731.986     5981252.650 8 -19695450.453 7
  21024699.461    21024703.722    32157675.022 9 -43253118.821 8
  22088523.735    22088530.837    69612571.407 8-102443181.442 8
                  25973381.146    -9630169.015 7
 86  6 12  3 24 41.0800000  0  4G12G13G 9G 7
  20904117.675    20904123.396     5978063.617 9 -19697935.399 7
  21026009.310    21026014.444    32164557.917 9 -43247755.524 9
  22092531.444    22092537.942    69633626.953 9-102426774.528 8
  25969665.690    25969669.150    -9649699.148 7  12333509.347 8
 86  6 12  3 24 47.0800000  0  4G12G13G 9G 7
  20903516.786    20903522.622     5974900.154 9 -19700400.433 8
  21027321.362    21027326.247    32171448.778 9 -43242386.034 9
  22096540.624    22096546.694    69654697.067 8-102410356.265 8
  25965949.361    25965955.982    -9669215.883 7  12318301.517 9
 86  6 12  3 24 53.0800000  0  4G12G13G 9G 7
  20902919.555    20902924.478     5971762.280 8 -19702845.529 8
  21028633.918    21028638.289    32178347.565 9 -43237010.336 8
  22100551.896    22100558.601    69675781.753 8-102393926.635 8
                  25962239.539    -9688711.821 7
 86  6 12  3 24 59.0800000  0  4G12G13G 9G 7
  20902327.904    20902332.741     5968650.075 8 -19705270.614 8
  21029947.186    21029953.076    32185254.341 8 -43231628.433 9
  22104566.606    22104573.553    69696881.025 8-102377485.657 8
  25958536.573    25958539.805    -9708184.308 7  12349530.518 9
 86  6 12  3 25  5.0800000  0  4G12G13G 9G 7
  20901739.756    20901746.190     5965563.564 9 -19707675.707 7
  21031262.814    21031268.203    32192169.074 9 -43226240.336 9
  22108585.847    22108592.754    69717994.809 7-102361033.355 8
  25954830.734    25954840.126    -9727635.799 6  12334373.520 8
 86  6 12  3 25 11.0800000  0  4G12G13G 9G 7
  20901157.195    20901163.757     5962502.734 8 -19710060.764 7
  21032579.175    21032585.050    32199091.810 8 -43220845.987 7
  22112605.299    22112611.577    69739123.074 7-102344569.770 7
  25951133.309    25951141.359    -9747070.864 6  12319228.845 9
 86  6 12  3 25 17.0800000  0  4G12G13G 9G 7
  20900579.624    20900586.727     5959467.557 8 -19712425.829 8
  21033898.567    21033903.697    32206022.600 9 -43215445.374 8
  22116628.263    22116635.856    69760265.808 8-102328094.916 8
  25947436.147    25947445.516    -9766493.878 7  12304094.039 8
 86  6 12  3 25 23.0800000  0  4G12G13G 9G 7
  20900006.409    20900013.558     5956458.010 9 -19714770.935 8
  21035218.820    21035224.406    32212961.352 9 -43210038.556 8
  22120654.121    22120661.129    69781422.940 8-102311608.857 8
  25943743.186    25943750.912    -9785907.747 8  12288966.353 9
 86  6 12  3 25 29.0800000  0  4G12G13G 9G 7
  20899439.399    20899445.108     5953474.061 8 -19717096.098 8
  21036539.268    21036546.003    32219907.909 8 -43204625.647 8
  22124683.548    22124690.830    69802594.413 9-102295111.604 9
  25940050.815    25940056.861    -9805314.691 7  12273844.063 9
 86  6 12  3 25 35.0800000  0  4G12G13G 9G 7
  20898876.212    20898881.466     5950515.781 9 -19719401.247 7
  21037863.932    21037869.660    32226862.308 8 -43199206.639 8
  22128716.687    22128722.967    69823780.244 8-102278603.186 9
  25936359.275    25936366.062    -9824715.564 7  12258726.501 8
 86  6 12  3 25 41.0800000  0  4G12G13G 9G 7
  20898318.411    20898322.441     5947583.192 9 -19721686.369 7
  21039188.716    21039194.840    32233824.534 8 -43193781.537 8
  22132750.073    22132755.650    69844980.455 9-102262083.535 7
  25932669.686    25932675.906    -9844108.267 7  12243615.305 9
 86  6 12  3 25 47.0800000  0  4G12G13G 9G 7
  20897764.594    20897770.080     5944676.273 8 -19723951.503 8
  21040515.467    21040520.012    32240794.612 8 -43188350.307 8
  22136784.884    22136792.512    69866195.029 7-102245552.707 8
                  25928981.376    -9863486.435 7
 86  6 12  3 25 53.0800000  0  4G12G13G 9G 7
  20897216.031    20897222.421     5941795.002 8 -19726196.656 8
  21041843.532    21041847.847    32247772.400 8 -43182913.062 8
  22140826.949    22140832.191    69887423.801 8-102229010.797 8
  25925299.304    25925304.330    -9882843.346 7  12274934.130 8
 86  6 12  3 25 59.0800000  0  4G12G13G 9G 7
  20896673.157    20896679.270     5938939.246 8 -19728421.922 7
  21043173.597    21043177.973    32254757.992 8 -43177469.735 8
  22144867.381    22144875.396    69908666.730 7-102212457.889 8
  25921618.632    25921626.056    -9902176.573 8  12259869.278 8
 86  6 12  3 26  5.0800000  0  4G12G13G 9G 7
  20896134.371    20896139.447     5936109.034 8 -19730627.275 8
  21044503.836    21044509.871    32261751.231 9 -43172020.463 8
  22148912.902    22148921.130    69929923.744 7-102195893.975 8
  25917943.041    25917950.280    -9921489.145 7  12244820.522 8
 86  6 12  3 26 11.0800000  0  4G12G13G 9G 7
  20895601.158    20895607.057     5933304.363 9 -19732812.731 8
  21045835.090    21045841.566    32268752.074 8 -43166565.263 9
  22152962.119    22152968.895    69951194.762 7-102179319.165 8
  25914270.984    25914278.639    -9940785.661 7  12229784.280 8
 86  6 12  3 26 17.0800000  0  4G12G13G 9G 7
  20895072.903    20895078.066     5930525.258 8 -19734978.268 8
  21047169.882    21047175.874    32275760.545 8 -43161104.128 8
  22157011.928    22157019.417    69972479.821 7-102162733.406 8
  25910602.294    25910609.383    -9960070.366 7  12214757.257 8
 86  6 12  3 26 23.0800000  0  4G12G13G 9G 7
  20894548.506    20894554.318     5927771.750 8 -19737123.861 8
  21048504.544    21048509.918    32282776.696 8 -43155636.985 9
  22161065.513    22161071.395    69993778.881 7-102146136.749 8
  25906933.545    25906939.647    -9979345.892 8  12199737.370 8
 86  6 12  3 26 29.0800000  0  4G12G13G 9G 7
  20894030.129    20894034.093     5925043.914 9 -19739249.459 8
  21049841.279    21049845.368    32289800.587 9 -43150163.829 8
  22165120.775    22165127.616    70015092.001 8-102129529.129 8
  25903266.596    25903273.000    -9998614.309 7  12184723.006 8
 86  6 12  3 26 35.0800000  0  4G12G13G 9G 7
  20893515.548    20893521.208     5922341.815 9 -19741354.996 7
  21051179.075    21051184.221    32296832.183 9 -43144684.657 8
  22169181.500    22169185.897    70036419.284 7-102112910.466 8
  25899601.814    25899607.482   -10017876.388 8  12169713.604 8
 86  6 12  3 26 41.0800000  0  4G12G13G 9G 7
  20893005.058    20893011.575     5919665.468 8 -19743440.460 7
  21052518.387    21052523.848    32303871.434 8 -43139199.528 8
  22173239.543    22173246.772    70057760.580 9-102096280.873 8
  25895938.355    25895944.144   -10037129.677 7  12154711.038 8
 86  6 12  3 26 47.0800000  0  4G12G13G 9G 7
  20892500.883    20892507.488     5917014.859 9 -19745505.871 7
  21053859.529    21053865.302    32310918.404 8 -43133708.376 9
  22177305.268    22177310.494    70079115.930 7-102079640.350 8
                  25892282.989                    12139720.452 8
 86  6 12  3 26 53.0800000  0  4G12G13G 9G 7
  20892001.114    20892007.049     5914390.004 8 -19747551.212 8
  21055201.704    21055207.561    32317973.076 9 -43128211.239 8
  22181371.358    22181378.267    70100485.278 8-102062988.925 8
  25888621.646    25888626.673   -10092517.424 7  12124747.078 8
 86  6 12  3 26 59.0800000  0  4G12G13G 9G 7
  20891506.096    20891513.580     5911790.872 9 -19749576.505 8
  21056546.268    21056551.997    32325035.427 9 -43122708.109 8
  22185440.369    22185446.631    70121868.687 8-102046326.529 8
  25884968.971    25884973.625   -10111709.328 8  12109792.349 7
 86  6 12  3 27  5.0800000  0  4G12G13G 9G 7
  20891016.064    20891022.912     5909217.499 9 -19751581.735 7
  21057892.302    21057897.689    32332105.358 9 -43117199.071 8
  22189511.119    22189518.436    70143266.062 8-102029653.250 7
  25881321.385    25881325.718   -10130880.507 8  12094853.754 8
 86  6 12  3 27 11.0800000  0  4G12G13G 9G 7
  20890531.789    20890538.506     5906669.895 8 -19753566.871 7
  21059238.511    21059243.928    32339182.996 9 -43111684.017 8
  22193586.605    22193593.121    70164677.382 8-102012969.111 9
  25877675.652    25877681.031   -10150035.606 8  12079927.694 7
 86  6 12  3 27 17.0800000  0  4G12G13G 9G 7
  20890050.691    20890058.816     5904148.090 8 -19755531.924 8
  21060587.766    21060592.914    32346268.378 8 -43106162.939 8
  22197663.362    22197669.533    70186102.650 9-101996274.091 8
  25874032.865    25874038.377   -10169178.709 8  12065010.997 8
 86  6 12  3 27 23.0800000  0  4G12G13G 9G 7
  20889576.599    20889584.623     5901652.108 8 -19757476.844 7
  21061937.354    21061943.926    32353361.442 9 -43100635.867 8
  22201742.891    22201749.097    70207541.897 8-101979568.208 8
  25870390.965    25870398.248   -10188312.443 8  12050101.593 8
 86  6 12  3 27 29.0800000  0  4G12G13G 9G 7
  20889107.194    20889113.462     5899182.036 9 -19759401.568 8
  21063288.542    21063294.000    32360462.262 9 -43095102.775 9
  22205825.907    22205832.082    70228995.011 9-101962851.505 8
  25866751.128    25866758.442   -10207438.799 8  12035197.931 8
 86  6 12  3 27 35.0800000  0  4G12G13G 9G 7
  20888642.134    20888648.470     5896737.844 9 -19761306.137 8
  21064641.159    21064646.563    32367570.716 8 -43089563.712 8
  22209910.596    22209916.851    70250462.071 7-101946123.920 8
  25863113.006    25863119.528   -10226558.453 7  12020299.519 8
 86  6 12  3 27 41.0800000  0  4G12G13G 9G 7
  20888182.900    20888189.368     5894319.502 9 -19763190.573 6
  21065994.594    21066001.010    32374686.842 9 -43084018.688 8
  22213998.410    22214004.691    70271943.066 8-101929385.493 7
  25859476.851    25859482.713   -10245668.664 8  12005408.432 7
 86  6 12  3 27 47.0800000  0  4G12G13G 9G 7
  20887727.542    20887733.288     5891927.076 8 -19765054.792 8
  21067351.434    21067356.579    32381810.629 8 -43078467.681 8
  22218088.758    22218095.562    70293437.936 9-101912636.237 9
                  25855850.156                    11990530.225 7
 86  6 12  3 27 53.0800000  0  4G12G13G 9G 7
  20887275.732    20887282.512     5889560.536 8 -19766898.854 8
  21068707.701    21068713.061    32388941.985 8 -43072910.771 8
  22222181.699    22222188.322    70314946.694 8-101895876.161 8
  25852218.120    25852220.654   -10300968.771 8  11975669.774 8
 86  6 12  3 27 59.0800000  0  4G12G13G 9G 7
  20886830.544    20886838.157     5887219.840 9 -19768722.774 8
  21070065.090    21070071.835    32396080.849 9 -43067348.025 9
  22226277.658    22226283.450    70336469.271 7-101879105.321 8
  25848591.262    25848596.050   -10320015.628 8  11960828.079 8
 86  6 12  3 28  5.0800000  0  4G12G13G 9G 7
  20886390.697    20886397.145     5884905.088 8 -19770526.481 7
  21071425.436    21071430.976    32403227.272 8 -43061779.386 8
  22230376.455    22230383.034    70358005.558 8-101862323.803 8
  25844969.824    25844975.970   -10339041.291 8  11946002.487 6
 86  6 12  3 28 11.0800000  0  4G12G13G 9G 7
  20885955.875    20885963.018     5882616.196 9 -19772310.024 7
  21072786.737    21072793.325    32410381.263 8 -43056204.846 7
  22234476.856    22234482.481    70379555.532 8-101845531.625 8
  25841353.187    25841357.985   -10358051.457 9  11931189.365 8
 86  6 12  3 28 17.0800000  0  4G12G13G 9G 7
  20885524.545    20885531.298     5880353.123 8 -19774073.465 8
  21074149.371    21074154.875    32417542.736 8 -43050624.472 8
  22238579.947    22238585.724    70401119.105 9-101828728.833 8
  25837738.207    25837742.726   -10377049.641 8  11916385.584 7
 86  6 12  3 28 23.0800000  0  4G12G13G 9G 7
  20885099.887    20885104.435     5878115.836 9 -19775816.806 8
  21075513.224    21075520.685    32424711.677 8 -43045038.292 9
  22242686.391    22242690.631    70422696.258 9-101811915.475 7
  25834124.298    25834129.448   -10396038.449 9  11901589.105 8
 86  6 12  3 28 29.0800000  0  4G12G13G 9G 7
  20884677.887    20884683.888     5875904.332 8 -19777540.062 8
  21076879.407    21076885.584    32431888.012 8 -43039446.335 9
  22246794.617    22246800.842    70444286.944 7-101795091.578 8
  25830512.667    25830517.427   -10415019.960 7  11886798.329 8
 86  6 12  3 28 35.0800000  0  4G12G13G 9G 7
  20884263.212    20884267.064     5873718.665 9 -19779243.173 8
  21078246.263    21078252.112    32439071.781 9 -43033848.586 9
  22250905.474    22250911.074    70465891.108 8-101778257.166 8
  25826900.980    25826905.774   -10433994.544 9  11872012.936 9
 86  6 12  3 28 41.0800000  0  4G12G13G 9G 7
  20883851.519    20883855.844     5871558.853 8 -19780926.150 8
  21079614.812    21079620.787    32446263.000 8 -43028245.036 8
  22255020.204    22255024.712    70487508.776 7-101761412.221 9
  25823292.375    25823297.634   -10452958.950 8  11857235.483 8
 86  6 12  3 28 47.0800000  0  4G12G13G 9G 7
  20883446.397    20883449.923     5869424.927 8 -19782588.945 7
  21080983.898    21080991.122    32453461.652 9 -43022635.713 8
  22259135.502    22259142.199    70509139.994 8-101744556.739 8
                  25819691.628                    11842471.379 7
 86  6 12  3 28 53.0800000  0  4G12G13G 9G 7
  20883044.927    20883049.408     5867316.806 9 -19784231.639 8
  21082355.565    21082362.141    32460667.624 8 -43017020.666 8
  22263255.129    22263260.839    70530784.677 7-101727690.767 8
  25816087.359    25816091.527   -10508115.800 8  11827725.352 9
 86  6 12  3 28 59.0800000  0  4G12G13G 9G 7
  20882648.768    20882654.795     5865234.539 9 -19785854.187 7
  21083728.702    21083735.252    32467880.895 8 -43011399.941 9
  22267375.651    22267381.022    70552442.736 7-101710814.368 9
  25812488.510    25812493.342   -10527015.704 8  11812998.152 7
 86  6 12  3 29  5.0800000  0  4G12G13G 9G 7
  20882256.909    20882262.103     5863178.156 9 -19787456.574 8
  21085101.628    21085109.331    32475101.529 9 -43005773.484 8
  22271500.429    22271504.902    70574114.178 9-101693927.527 7
  25808896.320    25808900.665   -10545895.568 9  11798286.963 7
 86  6 12  3 29 11.0800000  0  4G12G13G 9G 7
  20881869.335    20881876.158     5861147.642 8 -19789038.777 8
  21086477.555    21086485.247    32482329.433 8 -43000141.337 8
  22275626.599    22275632.640    70595798.987 8-101677030.273 8
  25805306.440    25805312.932   -10564759.004 8  11783588.181 8
 86  6 12  3 29 17.0800000  0  4G12G13G 9G 7
  20881488.825    20881493.988     5859143.076 8 -19790600.773 8
  21087854.214    21087861.423    32489564.669 8 -42994503.493 7
  22279755.750    22279760.886    70617497.225 8-101660122.545 8
  25801719.910    25801725.658   -10583610.508 8  11768898.705 8
 86  6 12  3 29 23.0800000  0  4G12G13G 9G 7
  20881112.837    20881118.160     5857164.446 7 -19792142.563 8
  21089233.373    21089239.050    32496807.170 9 -42988859.976 9
  22283887.297    22283892.637    70639208.887 8-101643204.371 8
  25798133.960    25798140.646   -10602452.441 8  11754216.675 8
 86  6 12  3 29 29.0800000  0  4G12G13G 9G 7
  20880740.094    20880745.963     5855211.736 9 -19793664.164 8
  21090612.954    21090618.287    32504057.033 8 -42983210.741 9
  22288022.436    22288027.240    70660933.777 8-101626275.885 8
  25794549.448    25794556.484   -10621286.867 9  11739540.506 8
 86  6 12  3 29 35.0800000  0  4G12G13G 9G 7
  20880375.541    20880378.896     5853284.934 9 -19795165.565 8
  21091993.833    21091999.608    32511314.224 9 -42977555.782 8
  22292158.482    22292164.002    70682672.052 8-101609336.972 7
  25790967.504    25790973.070   -10640113.940 9  11724870.071 7
 86  6 12  3 29 41.0800000  0  4G12G13G 9G 7
  20880014.028    20880018.718     5851384.124 8 -19796646.717 8
  21093376.875    21093381.907    32518578.757 8 -42971895.107 8
  22296297.151    22296303.244    70704423.630 7-101592387.698 8
  25787386.897    25787392.959   -10658930.077 8  11710208.140 8
 86  6 12  3 29 47.0800000  0  4G12G13G 9G 7
  20879655.360    20879660.617     5849509.216 9 -19798107.684 7
  21094760.674    21094764.975    32525850.577 9 -42966228.740 8
  22300439.908    22300444.439    70726188.442 9-101575428.110 8
                  25783815.120                    11695560.319 7
 86  6 12  3 29 53.0800000  0  4G12G13G 9G 7
  20879303.388    20879310.176     5847660.200 9 -19799548.486 8
  21096146.033    21096151.363    32533129.728 8 -42960556.683 9
  22304583.830    22304589.281    70747966.470 8-101558458.220 8
  25780237.016    25780242.057   -10713935.827 8  11680931.057 8
 86  6 12  3 29 59.0800000  0  4G12G13G 9G 7
  20878957.053    20878962.919     5845837.127 8 -19800969.060 8
  21097532.407    21097536.679    32540416.149 9 -42954878.946 8
  22308730.659    22308735.599    70769757.672 8-101541478.062 8
  25776669.596    25776676.125   -10732685.895 1  11666320.633 1
 86  6 12  3 30  5.0800000  0  4G12G13G 9G 7
  20878614.491    20878620.750     5844039.953 9 -19802369.444 8
  21098920.914    21098924.948    32547709.867 9 -42949195.531 8
  22312878.235    22312884.003    70791562.115 7-101524487.588 7
  25773103.312    25773110.274   -10751415.041 3  11651726.079 1
 86  6 12  3 30 11.0800000  0  4G12G13G 9G 7
  20878278.661    20878284.022     5842268.777 9 -19803749.585 8
  21100309.517    21100314.906    32555010.773 9 -42943506.512 8
  22317029.906    22317036.503    70813379.755 8-101507486.836 8
  25769544.160    25769548.101   -10770128.786 1  11637143.957 1
 86  6 12  3 30 17.0800000  0  4G12G13G 9G 7
  20877945.666    20877951.770     5840523.668 9 -19805109.414 8
  21101700.605    21101706.054    32562318.983 8 -42937811.806 9
  22321185.594    22321191.176    70835210.548 8-101490475.840 8
  25765985.394    25765987.692   -10788830.526 1  11622571.173 1
 86  6 12  3 30 23.0800000  0  4G12G13G 9G 7
  20877619.291    20877624.695     5838804.562 8 -19806448.973 8
  21103091.390    21103099.369    32569634.405 9 -42932111.477 8
  22325342.083    22325347.908    70857054.494 8-101473454.583 7
  25762426.661    25762431.676   -10807522.626 2  11608005.881 2
 86  6 12  3 30 29.0800000  0  4G12G13G 9G 7
  20877296.651    20877302.040     5837111.498 8 -19807768.244 8
  21104485.408    21104492.079    32576957.115 9 -42926405.468 8
  22329501.452    22329507.397    70878911.625 8-101456423.057 8
  25758872.157    25758878.037   -10826206.980 3  11593446.640 2
 86  6 12  3 30 35.0800000  0  4G12G13G 9G 7
  20876979.556    20876985.158     5835444.572 8 -19809067.145 9
  21105880.457    21105887.848    32584287.061 9 -42920693.821 8
  22333661.979    22333668.280    70900781.911 9-101439381.280 8
  25755317.411    25755324.514   -10844883.455 7  11578893.559 7
 86  6 12  3 30 41.0800000  0  4G12G13G 9G 7
  20876666.410    20876672.657     5833803.764 8 -19810345.698 8
  21107277.514    21107284.196    32591624.255 8 -42914976.530 8
  22337827.485    22337832.314    70922665.299 8-101422329.284 8
                  25751773.559                    11564349.689 6
 86  6 12  3 30 47.0800000  0  4G12G13G 9G 7
  20876358.626    20876365.309     5832189.037 8 -19811603.925 8
  21108674.989    21108680.590    32598968.638 9 -42909253.635 9
  22341993.621    22341999.342    70944561.740 8-101405267.130 8
  25748232.774    25748225.380   -10899748.375 6  11549820.586 9
 86  6 12  3 30 53.0800000  0  4G12G13G 9G 7
  20876057.211    20876063.229     5830600.347 8 -19812841.856 8
  21110073.376    21110079.217    32606320.230 8 -42903525.111 8
  22346162.411    22346167.940    70966471.265 8-101388194.792 8
  25744674.879    25744682.166   -10918369.864 8  11535310.656 9
 86  6 12  3 30 59.0800000  0  4G12G13G 9G 7
  20875759.569    20875764.012     5829037.655 8 -19814059.543 8
  21111473.427    21111478.895    32613678.941 9 -42897791.055 8
  22350335.170    22350340.879    70988393.758 8-101371112.309 8
  25741135.244    25741143.675   -10936966.793 8  11520819.549 8
 86  6 12  3 31  5.0800000  0  4G12G13G 9G 7
  20875467.565    20875472.660     5827500.918 9 -19815257.004 7
  21112873.624    21112881.752    32621044.717 8 -42892051.492 9
  22354510.300    22354514.241    71010329.076 8-101354019.862 8
  25737599.614    25737607.187   -10955543.429 8  11506344.250 8
 86  6 12  3 31 11.0800000  0  4G12G13G 9G 7
  20875180.484    20875185.747     5825990.203 9 -19816434.196 8
  21114276.752    21114285.109    32628417.496 8 -42886306.467 8
  22358685.122    22358691.538    71032277.211 8-101336917.420 8
  25734068.406    25734075.764   -10974104.481 8  11491881.110 9
 86  6 12  3 31 17.0800000  0  4G12G13G 9G 7
  20874897.595    20874902.589     5824505.379 8 -19817591.185 8
  21115682.662    21115688.267    32635797.326 8 -42880555.956 8
  22362864.493    22362869.866    71054238.139 9-101319804.999 7
  25730539.617    25730545.000   -10992653.569 8  11477427.278 7
 86  6 12  3 31 23.0800000  0  4G12G13G 9G 7
  20874620.429    20874626.820     5823046.557 9 -19818727.936 8
  21117088.354    21117093.974    32643184.101 8 -42874800.025 9
  22367046.519    22367051.455    71076211.916 9-101302682.589 7
  25727011.384    25727016.783   -11011193.084 9  11462980.901 8
 86  6 12  3 31 29.0800000  0  4G12G13G 9G 7
  20874348.000    20874352.772     5821613.561 9 -19819844.558 8
  21118496.726    21118501.247    32650577.855 8 -42869038.655 9
  22371229.611    22371236.121    71098198.328 8-101285550.317 8
  25723486.202    25723491.455   -11029724.816 7  11448540.583 9
 86  6 12  3 31 35.0800000  0  4G12G13G 9G 7
  20874079.732    20874085.721     5820206.505 8 -19820940.958 8
  21119903.927    21119909.568    32657978.604 9 -42863271.837 8
  22375417.733    22375422.332    71120197.406 8-101268408.180 8
  25719959.386    25719966.243   -11048248.488 8  11434106.578 9
 86  6 12  3 31 41.0800000  0  4G12G13G 9G 7
  20873817.169    20873822.113     5818825.441 8 -19822017.106 8
  21121313.695    21121318.544    32665386.377 9 -42857499.548 7
  22379605.769    22379612.143    71142209.232 8-101251256.113 8
                  25716444.136                    11419682.260 8
 86  6 12  3 31 47.0800000  0  4G12G13G 9G 7
  20873558.774    20873564.000     5817470.412 9 -19823072.968 8
  21122725.583    21122729.038    32672801.154 9 -42851721.781 8
  22383796.810    22383802.797    71164233.758 9-101234094.145 8
  25712960.620    25712924.046   -11102875.619 8  11405273.169 8
 86  6 12  3 31 53.0800000  0  4G12G13G 9G 7
  20873306.467    20873311.341     5816141.439 9 -19824108.532 8
  21124137.020    21124143.176    32680222.946 9 -42845938.575 8
  22387991.213    22387996.521    71186270.936 7-101216922.326 7
  25709403.613    25709409.680   -11121342.569 8  11390883.540 8
 86  6 12  3 31 59.0800000  0  4G12G13G 9G 7
  20873058.514    20873063.490     5814838.543 8 -19825123.783 7
  21125550.918    21125556.292    32687651.685 9 -42840149.927 8
  22392185.767    22392192.521    71208320.781 8-101199740.617 8
  25705894.155    25705901.209   -11139784.869 8  11376512.938 8
 86  6 12  3 32  5.0800000  0  4G12G13G 9G 7
  20872814.454    20872820.768     5813561.777 8 -19826118.653 7
  21126964.910    21126971.377    32695087.463 8 -42834355.819 8
  22396383.032    22396390.644    71230383.459 8-101182548.928 7
  25702389.762    25702394.770   -11158207.483 9  11362158.048 9
 86  6 12  3 32 11.0800000  0  4G12G13G 9G 7
  20872576.284    20872582.616     5812311.192 9 -19827093.151 8
  21128381.097    21128387.754    32702530.237 9 -42828556.255 8
  22400584.570    22400590.436    71252458.819 7-101165347.357 8
  25698886.413    25698892.853   -11176613.906 8  11347815.386 8
 86  6 12  3 32 17.0800000  0  4G12G13G 9G 7
  20872342.454    20872349.820     5811086.759 9 -19828047.256 9
  21129798.337    21129805.034    32709980.059 9 -42822751.190 9
  22404786.822    22404793.746    71274546.830 8-101148135.937 8
  25695385.098    25695392.196   -11195008.189 9  11333482.167 8
 86  6 12  3 32 23.0800000  0  4G12G13G 9G 7
  20872116.230    20872121.281     5809888.431 9 -19828981.019 8
  21131216.303    21131224.309    32717436.988 9 -42816940.610 8
  22408992.629    22409000.098    71296647.445 8-101130914.682 8
  25691887.530    25691893.598   -11213392.696 9  11319156.589 9
 86  6 12  3 32 29.0800000  0  4G12G13G 9G 7
  20871893.128    20871898.215     5808716.179 9 -19829894.457 7
  21132636.706    21132644.135    32724900.941 8 -42811124.544 8
  22413201.314    22413208.045    71318760.655 8-101113683.617 8
  25688389.506    25688397.233   -11231769.087 8  11304837.338 9
 86  6 12  3 32 35.0800000  0  4G12G13G 9G 7
  20871674.927    20871680.372     5807569.976 8 -19830787.595 8
  21134058.982    21134065.893    32732371.791 9 -42805303.095 9
  22417412.544    22417418.567    71340886.507 8-101096442.684 8
  25684895.259    25684902.041   -11250136.625 9  11290524.980 9
 86  6 12  3 32 41.0800000  0  4G12G13G 9G 7
  20871461.943    20871466.618     5806449.924 9 -19831660.365 7
  21135482.818    21135489.071    32739849.544 9 -42799476.294 8
  22421625.378    22421630.135    71363024.876 9-101079192.017 8
                  25681408.738                    11276222.925 8
 86  6 12  3 32 47.0800000  0  4G12G13G 9G 7
  20871253.726    20871258.988     5805356.037 8 -19832512.742 8
  21136906.976    21136913.107    32747334.197 9 -42793644.090 9
  22425840.122    22425845.787    71385175.754 8-101061931.587 8
  25677839.611    25677920.215   -11304720.753 8  11261936.775 9
 86  6 12  3 32 53.0800000  0  4G12G13G 9G 7
  20871050.840    20871056.349     5804288.279 8 -19833344.756 7
  21138332.801    21138337.691    32754825.703 8 -42787806.553 9
  22430056.806    22430063.579    71407339.035 8-101044661.492 7
  25674429.702    25674436.441   -11323029.201 9  11247670.510 8
 86  6 12  3 32 59.0800000  0  4G12G13G 9G 7
  20870851.863    20870857.466     5803246.588 8 -19834156.470 9
  21139760.097    21139765.276    32762324.004 8 -42781963.716 8
  22434276.937    22434283.360    71429514.668 8-101027381.773 8
  25670950.751    25670956.273   -11341313.481 8  11233423.031 8
 86  6 12  3 33  5.0800000  0  4G12G13G 9G 7
  20870659.290    20870665.870     5802230.973 9 -19834947.854 8
  21141188.126    21141192.107    32769829.097 9 -42776115.593 8
  22438499.286    22438506.390    71451702.687 8-101010092.411 8
  25667474.962    25667480.542   -11359577.613 7  11219191.253 8
 86  6 12  3 33 11.0800000  0  4G12G13G 9G 7
  20870470.065    20870475.607     5801241.386 9 -19835718.960 7
  21142616.888    21142623.097    32777340.953 9 -42770262.195 8
  22442723.016    22442730.921    71473903.027 9-100992793.447 8
  25664002.308    25664008.132   -11377826.234 7  11204971.558 8
 86  6 12  3 33 17.0800000  0  4G12G13G 9G 7
  20870286.429    20870292.121     5800277.950 9 -19836469.693 7
  21144048.351    21144053.505    32784859.603 9 -42764403.504 8
  22446950.474    22446957.764    71496115.671 8-100975484.890 7
  25660533.159    25660537.465   -11396062.747 8  11190761.297 9
 86  6 12  3 33 23.0800000  0  4G12G13G 9G 7
  20870108.710    20870114.881     5799340.654 8 -19837200.035 7
  21145479.503    21145486.395    32792385.070 9 -42758539.506 8
  22451180.343    22451185.635    71518340.700 8-100958166.694 7
  25657063.823    25657069.833   -11414289.422 8  11176558.693 8
 86  6 12  3 33 29.0800000  0  4G12G13G 9G 7
  20869934.981    20869939.886     5798429.583 9 -19837909.962 7
  21146912.511    21146918.982    32799917.456 9 -42752670.112 8
  22455411.500    22455417.279    71540578.077 8-100940838.873 8
  25653596.319    25653602.058   -11432507.757 7  11162362.590 9
 86  6 12  3 33 35.0800000  0  4G12G13G 9G 7
  20869767.717    20869772.197     5797544.639 9 -19838599.521 7
  21148348.335    21148354.183    32807456.653 8 -42746795.432 8
  22459646.248    22459651.541    71562827.687 8-100923501.527 8
  25650131.779    25650137.946   -11450716.963 8  11148173.608 9
 86  6 12  3 33 41.0800000  0  4G12G13G 9G 7
  20869603.491    20869607.938     5796685.852 9 -19839268.717 7
  21149783.697    21149789.681    32815002.671 9 -42740915.424 8
  22463883.429    22463888.543    71585089.626 8-100906154.559 8
                  25646674.433                    11133995.639 8
 86  6 12  3 33 47.0800000  0  4G12G13G 9G 7
  20869445.861    20869449.414     5795853.251 8 -19839917.508 7
  21151221.409    21151227.412    32822555.516 8 -42735030.091 8
  22468121.805    22468126.419    71607363.774 8-100888798.075 8
  25643128.616    25643216.489   -11505143.523 8  11119834.213 9
 86  6 12  3 33 53.0800000  0  4G12G13G 9G 7
  20869291.967    20869295.489     5795046.847 9 -19840545.862 7
  21152660.277    21152665.571    32830115.150 9 -42729139.468 8
  22472363.049    22472367.791    71629650.147 8-100871432.069 8
  25639757.285    25639761.850   -11523291.686 8  11105693.047 9
 86  6 12  3 33 59.0800000  0  4G12G13G 9G 7
  20869143.981    20869147.307     5794266.709 9 -19841153.766 7
  21154100.122    21154104.625    32837681.559 9 -42723243.551 8
  22476606.103    22476611.454    71651948.744 7-100854056.557 8
  25636309.114    25636313.335   -11541415.306 7  11091570.746 9
 86  6 12  3 34  5.0800000  0  4G12G13G 9G 7
  20868999.601    20869004.634     5793512.730 8 -19841741.284 7
  21155542.467    21155545.773    32845254.746 9 -42717342.362 8
  22480851.684    22480856.204    71674259.475 8-100836671.565 8
  25632863.188    25632869.227   -11559518.934 8  11077464.026 8
 86  6 12  3 34 11.0800000  0  4G12G13G 9G 7
  20868861.378    20868865.099     5792785.008 9 -19842308.332 7
  21156984.952    21156988.085    32852834.719 9 -42711435.870 8
  22485098.331    22485105.262    71696582.394 8-100819277.099 9
  25629420.698    25629427.896   -11577607.028 8  11063369.423 8
 86  6 12  3 34 17.0800000  0  4G12G13G 9G 7
  20868726.839    20868733.490     5792083.576 9 -19842854.896 7
  21158428.613    21158430.774    32860421.494 8 -42705524.094 7
  22489349.342    22489355.557    71718917.604 8-100801873.038 9
  25625981.497    25625987.965   -11595682.709 7  11049284.481 9
 86  6 12  3 34 23.0800000  0  4G12G13G 9G 7
  20868600.057    20868604.822     5791408.424 8 -19843380.992 7
  21159874.290    21159875.849    32868015.069 9 -42699607.013 7
  22493600.924    22493608.722    71741264.977 8-100784459.514 8
  25622544.300    25622550.439   -11613748.399 7  11035207.323 9
 86  6 12  3 34 29.0800000  0  4G12G13G 9G 7
  20868475.971    20868482.354     5790759.447 8 -19843886.692 8
  21161318.885    21161323.427    32875615.362 9 -42693684.704 8
  22497856.636    22497862.995    71763624.457 8-100767036.556 8
  25619108.120    25619114.516   -11631805.424 8  11021136.916 8
 86  6 12  3 34 35.0800000  0  4G12G13G 9G 7
  20868356.629    20868363.250     5790136.693 9 -19844371.945 8
  21162766.940    21162769.740    32883222.374 9 -42687757.152 8
  22502113.555    22502119.257    71785995.921 8-100749604.249 8
  25615673.284    25615680.167   -11649852.825 8  11007074.014 9
 86  6 12  3 34 41.0800000  0  4G12G13G 9G 7
  20868244.267    20868248.878     5789539.950 8 -19844836.952 7
  21164215.677    21164219.490    32890835.875 9 -42681824.556 8
  22506373.402    22506379.784    71808379.214 8-100732162.718 8
                  25612248.608                    10993022.529 9
 86  6 12  3 34 47.0800000  0  4G12G13G 9G 7
  20868136.193    20868139.540     5788969.419 9 -19845281.507 8
  21165665.091    21165669.662    32898455.955 9 -42675886.829 9
  22510635.466    22510641.146    71830774.422 8-100714711.904 8
  25608741.425    25608821.985   -11704119.289 8  10978988.115 9
 86  6 12  3 34 53.0800000  0  4G12G13G 9G 7
  20868031.858    20868036.390     5788425.104 8 -19845705.647 7
  21167115.113    21167121.223    32906082.552 8 -42669944.043 7
  22514899.706    22514904.034    71853181.528 9-100697251.822 8
  25605391.801    25605398.684   -11722103.965 8  10964974.184 9
 86  6 12  3 34 59.0800000  0  4G12G13G 9G 7
  20867933.718    20867937.886     5787906.917 9 -19846109.431 8
  21168568.254    21168572.940    32913715.682 8 -42663996.148 8
  22519164.517    22519171.171    71875600.496 8-100679782.499 8
  25601973.178    25601980.933   -11740064.438 8  10950979.018 8
 86  6 12  3 35  5.0800000  0  4G12G13G 9G 7
  20867840.000    20867845.459     5787414.811 8 -19846492.905 8
  21170021.979    21170028.299    32921355.270 9 -42658043.212 8
  22523433.672    22523439.682    71898031.150 9-100662304.064 9
  25598560.091    25598566.359   -11758005.020 8  10936999.342 9
 86  6 12  3 35 11.0800000  0  4G12G13G 9G 7
  20867750.983    20867755.665     5786948.794 8 -19846856.029 7
  21171477.581    21171482.120    32929001.353 9 -42652085.236 8
  22527702.835    22527710.868    71920473.575 8-100644816.475 8
  25595148.766    25595155.563   -11775930.325 8  10923031.575 9
 86  6 12  3 35 17.0800000  0  4G12G13G 9G 7
  20867666.311    20867672.566     5786508.897 9 -19847198.800 8
  21172933.380    21172938.503    32936654.039 9 -42646122.086 9
  22531975.595    22531983.207    71942927.786 7-100627319.696 8
  25591739.730    25591747.056   -11793843.273 7  10909073.433 9
 86  6 12  3 35 23.0800000  0  4G12G13G 9G 7
  20867588.083    20867593.432     5786095.112 9 -19847521.220 7
  21174391.223    21174396.507    32944313.173 9 -42640153.920 9
  22536250.789    22536257.306    71965393.635 7-100609813.842 9
  25588333.927    25588340.724   -11811746.276 8  10895123.052 9
 86  6 12  3 35 29.0800000  0  4G12G13G 9G 7
  20867514.767    20867520.549     5785707.499 9 -19847823.259 8
  21175849.558    21175856.169    32951978.745 9 -42634180.754 8
  22540527.390    22540534.874    71987871.237 7-100592298.839 9
  25584928.426    25584934.936   -11829640.657 8  10881179.375 9
 86  6 12  3 35 35.0800000  0  4G12G13G 9G 7
  20867445.161    20867452.341     5785346.028 9 -19848104.915 8
  21177309.719    21177315.080    32959650.805 9 -42628202.519 9
  22544808.544    22544814.703    72010360.476 7-100574774.760 8
  25581526.157    25581532.211   -11847524.880 8  10867243.618 9
 86  6 12  3 35 41.0800000  0  4G12G13G 9G 7
  20867381.442    20867387.444     5785010.676 8 -19848366.224 7
  21178769.693    21178777.072    32967329.367 8 -42622219.234 8
  22549091.007    22549097.595    72032861.372 7-100557241.609 8
                  25578131.903                    10853320.038 9
 86  6 12  3 35 47.0800000  0  4G12G13G 9G 7
  20867321.304    20867329.776     5784701.434 9 -19848607.195 8
  21180231.978    21180239.017    32975014.370 8 -42616230.921 9
  22553375.722    22553381.295    72055373.967 8-100539699.324 8
  25574730.580    25574735.330   -11901624.339 9  10839414.224 9
 86  6 12  3 35 53.0800000  0  4G12G13G 9G 7
  20867268.543    20867273.622     5784418.521 8 -19848827.646 7
  21181694.510    21181702.969    32982705.844 8 -42610237.578 8
  22557660.997    22557666.862    72077898.150 9-100522148.027 8
  25571339.201    25571344.396   -11919443.743 9  10825528.926 9
 86  6 12  3 35 59.0800000  0  4G12G13G 9G 7
  20867220.742    20867226.210     5784161.866 8 -19849027.629 7
  21183158.980    21183168.506    32990403.782 8 -42604239.187 9
  22561949.612    22561956.057    72100433.959 8-100504587.655 7
  25567953.832    25567958.354   -11937238.891 9  10811662.589 9
 86  6 12  3 36  5.0800000  0  4G12G13G 9G 7
  20867176.746    20867181.869     5783931.332 8 -19849207.269 8
  21184626.559    21184633.989    32998108.121 8 -42598235.815 8
  22566240.931    22566246.333    72122981.289 8-100487018.307 8
  25564569.838    25564575.891   -11955014.299 8  10797811.620 9
 86  6 12  3 36 11.0800000  0  4G12G13G 9G 7
  20867137.557    20867143.106     5783727.086 8 -19849366.422 8
  21186094.247    21186101.547    33005818.971 8 -42592227.371 9
  22570533.710    22570539.190    72145540.269 8-100469439.884 8
  25561189.405    25561196.230   -11972774.245 8  10783972.696 8
 86  6 12  3 36 17.0800000  0  4G12G13G 9G 7
  20867103.640    20867108.692     5783549.075 8 -19849505.138 8
  21187563.217    21187570.132    33013536.297 9 -42586213.875 8
  22574828.171    22574833.765    72168110.873 8-100451852.405 9
  25557811.220    25557819.119   -11990521.767 7  10770143.468 9
 86  6 12  3 36 23.0800000  0  4G12G13G 9G 7
  20867075.309    20867081.137     5783397.302 8 -19849623.398 8
  21189033.956    21189039.700    33021260.080 9 -42580195.350 7
  22579126.210    22579131.832    72190692.978 8-100434255.961 8
  25554435.924    25554443.695   -12008259.144 8  10756322.139 8
 86  6 12  3 36 29.0800000  0  4G12G13G 9G 7
  20867050.096    20867056.804     5783271.805 8 -19849721.191 8
  21190505.266    21190510.352    33028990.249 9 -42574171.844 9
  22583424.883    22583431.143    72213286.594 8-100416650.559 8
  25551063.592    25551069.759   -12025987.606 8  10742507.765 8
 86  6 12  3 36 35.0800000  0  4G12G13G 9G 7
  20867032.464    20867037.111     5783172.606 8 -19849798.485 8
  21191977.696    21191982.371    33036726.857 9 -42568143.310 7
  22587726.986    22587731.541    72235891.758 8-100399036.139 8
  25547691.616    25547698.942   -12043705.429 8  10728701.664 8
 86  6 12  3 36 41.0800000  0  4G12G13G 9G 7
  20867017.575    20867024.591     5783099.701 9 -19849855.292 8
  21193452.810    21193455.581    33044469.919 9 -42562109.751 8
  22592031.226    22592036.126    72258508.444 8-100381412.746 8
                  25544329.400                    10714908.462 8
 86  6 12  3 36 47.0800000  0  4G12G13G 9G 7
  20867009.393    20867014.745     5783053.141 8 -19849891.566 8
  21194927.590    21194931.142    33052219.427 9 -42556071.169 8
  22596337.449    22596341.870    72281136.553 7-100363780.435 8
  25540959.800    25540967.398   -12097635.866 8  10701133.653 8
 86  6 12  3 36 53.0800000  0  4G12G13G 9G 7
  20867005.893    20867011.115     5783032.873 8 -19849907.369 8
  21196402.947    21196406.483    33059975.360 9 -42550027.578 9
  22600644.859    22600649.594    72303776.098 8-100346139.232 8
  25537601.733    25537606.913   -12115286.741 9  10687379.736 9
 86  6 12  3 36 59.0800000  0  4G12G13G 9G 7
  20867006.289    20867012.227     5783038.853 9 -19849902.700 8
  21197879.916    21197884.051    33067737.627 9 -42543979.047 9
  22604954.330    22604960.482    72326427.142 8-100328489.066 7
  25534247.401    25534253.067   -12132912.818 9  10673644.723 8
 86  6 12  3 37  5.0800000  0  4G12G13G 9G 7
  20867011.890    20867018.138     5783071.176 9 -19849877.512 8
  21199357.595    21199361.693    33075506.319 9 -42537925.511 8
  22609266.784    22609273.114    72349089.523 7-100310830.079 8
  25530896.031    25530901.683   -12150519.674 9  10659925.088 9
 86  6 12  3 37 11.0800000  0  4G12G13G 9G 7
  20867024.033    20867029.259     5783129.826 9 -19849831.815 8
  21200837.522    21200841.654    33083281.397 8 -42531867.010 9
  22613581.600    22613587.809    72371763.207 8-100293162.283 8
  25527548.181    25527555.192   -12168111.151 9  10646217.445 9
 86  6 12  3 37 17.0800000  0  4G12G13G 9G 7
  20867039.891    20867046.172     5783214.709 9 -19849765.671 8
  21202318.570    21202321.797    33091062.769 9 -42525803.599 8
  22617897.374    22617904.550    72394448.308 8-100275485.593 8
  25524202.835    25524209.789   -12185690.052 8  10632519.605 9
 86  6 12  3 37 23.0800000  0  4G12G13G 9G 7
  20867061.001    20867067.412     5783325.888 9 -19849679.037 8
  21203799.712    21203802.523    33098850.494 8 -42519735.232 8
  22622216.660    22622222.935    72417144.672 9-100257800.128 8
  25520859.865    25520866.132   -12203258.694 9  10618829.759 9
 86  6 12  3 37 29.0800000  0  4G12G13G 9G 7
  20867087.513    20867092.453     5783463.416 9 -19849571.878 8
  21205282.391    21205286.379    33106644.539 9 -42513661.953 9
  22626537.865    22626544.403    72439852.214 8-100240105.930 8
  25517519.427    25517525.565   -12220817.949 8  10605147.229 9
 86  6 12  3 37 35.0800000  0  4G12G13G 9G 7
  20867118.585    20867123.940     5783627.180 9 -19849444.257 8
  21206766.047    21206770.236    33114444.866 8 -42507583.775 7
  22630862.124    22630867.418    72462570.994 9-100222402.995 8
  25514180.191    25514185.742   -12238366.034 8  10591473.382 9
 86  6 12  3 37 41.0800000  0  4G12G13G 9G 7
  20867155.428    20867160.275     5783817.260 9 -19849296.155 8
  21208252.346    21208255.096    33122251.381 9 -42501500.773 8
  22635189.174    22635194.175    72485300.875 9-100204691.397 8
                  25510849.540                    10577812.986 8
 86  6 12  3 37 47.0800000  0  4G12G13G 9G 7
  20867196.503    20867200.892     5784033.545 9 -19849127.612 8
  21209738.881    21209741.746    33130064.073 8 -42495412.961 7
  22639515.222    22639521.310    72508041.868 9-100186971.139 8
  25507512.351    25507518.846   -12292127.683 9  10564171.333 8
 86  6 12  3 37 53.0800000  0  4G12G13G 9G 7
  20867242.618    20867247.050     5784276.043 8 -19848938.664 7
  21211226.847    21211230.128    33137882.992 8 -42489320.282 8
  22643844.125    22643849.905    72530793.903 8-100169242.288 8
  25504186.208    25504192.360   -12309607.577 9  10550550.647 9
 86  6 12  3 37 59.0800000  0  4G12G13G 9G 7
  20867292.721    20867298.767     5784544.846 8 -19848729.205 8
  21212714.506    21212720.341    33145708.139 8 -42483222.768 8
  22648176.476    22648182.579    72553557.130 8-100151504.727 8
  25500865.030    25500871.112   -12327063.197 9  10536948.863 9
 86  6 12  3 38  5.0800000  0  4G12G13G 9G 7
  20867349.493    20867354.294     5784839.921 9 -19848499.276 7
  21214203.353    21214209.219    33153539.545 8 -42477120.372 9
  22652509.850    22652515.552    72576331.461 9-100133758.495 8
  25497546.900    25497552.237   -12344499.055 9  10523362.481 9
 86  6 12  3 38 11.0800000  0  4G12G13G 9G 7
  20867410.099    20867415.362     5785161.284 9 -19848248.860 8
  21215694.830    21215701.883    33161377.221 8 -42471013.089 8
  22656846.295    22656851.660    72599116.855 8-100116003.644 8
  25494231.188    25494237.198   -12361919.595 9  10509788.036 9
 86  6 12  3 38 17.0800000  0  4G12G13G 9G 7
  20867476.598    20867482.927     5785509.016 8 -19847977.887 8
  21217187.092    21217195.440    33169221.114 8 -42464900.978 8
  22661184.033    22661190.007    72621913.325 8-100098240.157 8
  25490917.709    25490925.192   -12379327.528 7  10496223.425 9
 86  6 12  3 38 23.0800000  0  4G12G13G 9G 7
  20867548.453    20867553.894     5785883.069 9 -19847686.443 8
  21218679.841    21218688.847    33177071.269 7 -42458783.983 9
  22665524.246    22665529.569    72644720.854 9-100080468.059 8
  25487606.777    25487614.332   -12396724.987 8  10482666.979 9
 86  6 12  3 38 29.0800000  0  4G12G13G 9G 7
  20867623.761    20867629.572     5786283.330 8 -19847374.532 8
  21220174.450    21220183.204    33184927.581 8 -42452662.180 8
  22669866.551    22669870.527    72667539.307 7-100062687.447 7
  25484299.221    25484305.073   -12414112.911 8  10469117.954 8
 86  6 12  3 38 35.0800000  0  4G12G13G 9G 7
  20867705.357    20867711.035     5786709.852 8 -19847042.184 8
  21221672.333    21221679.387    33192790.016 8 -42446535.614 9
  22674209.626    22674216.236    72690368.628 8-100044898.356 8
  25480993.111    25480999.450   -12431489.093 8  10455578.056 9
 86  6 12  3 38 41.0800000  0  4G12G13G 9G 7
  20867791.048    20867798.195     5787162.735 9 -19846689.286 7
  21223170.756    21223176.869    33200658.497 9 -42440404.345 8
  22678556.172    22678562.726    72713208.949 9-100027100.710 8
                  25477694.914                    10442052.257 8
 86  6 12  3 38 47.0800000  0  4G12G13G 9G 7
  20867882.512    20867888.545     5787641.865 9 -19846315.930 8
  21224670.263    21224676.189    33208533.112 8 -42434268.282 8
  22682904.357    22682911.110    72736060.122 9-100009294.596 8
  25474389.892    25474396.904   -12485078.951 9  10428545.833 8
 86  6 12  3 38 53.0800000  0  4G12G13G 9G 7
  20867979.872    20867985.256     5788147.296 9 -19845922.094 8
  21226170.578    21226175.886    33216413.903 9 -42428127.393 9
  22687255.067    22687260.260    72758922.109 8 -99991480.079 8
  25471098.377    25471103.270   -12502385.127 8  10415060.501 8
 86  6 12  3 38 59.0800000  0  4G12G13G 9G 7
  20868080.132    20868085.203     5788678.990 9 -19845507.782 7
  21227671.723    21227676.731    33224300.775 9 -42421981.780 8
  22691606.635    22691613.117    72781794.825 7 -99973657.188 7
  25467809.695    25467814.989   -12519667.621 9  10401594.007 9
 86  6 12  3 39  5.0800000  0  4G12G13G 9G 7
  20868186.049    20868191.312     5789236.995 8 -19845072.973 8
  21229173.834    21229177.979    33232193.688 9 -42415831.469 8
  22695962.024    22695968.420    72804678.410 9 -99955825.826 7
  25464523.961    25464530.429   -12536930.038 9  10388142.781 8
 86  6 12  3 39 11.0800000  0  4G12G13G 9G 7
  20868296.169    20868302.592     5789821.298 8 -19844617.691 8
  21230677.798    21230682.098    33240092.630 9 -42409676.443 9
  22700318.729    22700324.898    72827572.733 9 -99937986.091 7
  25461241.976    25461246.899   -12554177.090 8  10374703.520 7
 86  6 12  3 39 17.0800000  0  4G12G13G 9G 7
  20868413.541    20868419.248     5790431.822 8 -19844141.938 8
  21232181.884    21232185.933    33247997.603 9 -42403516.713 9
  22704676.902    22704683.841    72850477.765 8 -99920138.009 7
  25457961.837    25457968.492   -12571411.564 8  10361274.063 8
 86  6 12  3 39 23.0800000  0  4G12G13G 9G 7
  20868534.003    20868541.019     5791068.621 8 -19843645.738 7
  21233687.712    21233692.427    33255908.543 9 -42397352.327 8
  22709038.615    22709044.274    72873393.539 8 -99902281.564 8
  25454684.288    25454690.398   -12588635.538 8  10347852.790 8
 86  6 12  3 39 29.0800000  0  4G12G13G 9G 7
  20868660.761    20868666.439     5791731.661 8 -19843129.076 7
  21235194.061    21235198.863    33263825.547 9 -42391183.238 8
  22713400.544    22713407.985    72896319.998 9 -99884416.810 8
  25451408.800    25451415.254   -12605849.703 8  10334439.170 9
 86  6 12  3 39 35.0800000  0  4G12G13G 9G 7
  20868791.547    20868798.384     5792420.926 8 -19842591.981 7
  21236701.739    21236706.153    33271748.590 9 -42385009.440 8
  22717765.170    22717772.144    72919257.020 8 -99866543.792 8
  25448135.601    25448141.253   -12623051.604 8  10321035.095 8
 86  6 12  3 39 41.0800000  0  4G12G13G 9G 7
  20868928.143    20868934.705     5793136.468 9 -19842034.437 8
  21238210.214    21238215.422    33279677.579 9 -42378831.011 9
  22722132.622    22722138.008    72942204.648 8 -99848662.533 8
                  25444871.389                    10307645.788 8
 86  6 12  3 39 47.0800000  0  4G12G13G 9G 7
  20869069.150    20869076.043     5793878.330 8 -19841456.362 8
  21239719.455    21239725.281    33287612.531 9 -42372647.934 9
  22726502.878    22726507.534    72965162.863 8 -99830773.006 7
  25441600.350    25441605.517   -12676466.021 9  10294276.343 8
 86  6 12  3 39 53.0800000  0  4G12G13G 9G 7
  20869215.128    20869222.281     5794646.574 8 -19840857.722 8
  21241230.449    21241236.332    33295553.533 9 -42366460.140 8
  22730873.341    22730879.759    72988131.784 8 -99812875.157 7
  25438341.159    25438346.168   -12693596.117 9  10280928.192 8
 86  6 12  3 39 59.0800000  0  4G12G13G 9G 7
  20869366.903    20869372.827     5795441.243 9 -19840238.499 7
  21242742.303    21242748.196    33303500.638 8 -42360267.577 8
  22735244.828    22735252.061    73011111.306 9 -99794969.038 8
  25435087.021    25435091.628   -12710702.018 8  10267598.925 8
 86  6 12  3 40  5.0800000  0  4G12G13G 9G 7
  20869523.260    20869530.204     5796262.232 8 -19839598.771 8
  21244256.689    21244261.661    33311453.635 9 -42354070.443 9
  22739620.494    22739626.796    73034101.271 8 -99777054.775 8
  25431835.414    25431839.607   -12727788.520 9  10254284.773 8
 86  6 12  3 40 11.0800000  0  4G12G13G 9G 7
  20869684.835    20869690.227     5797109.496 9 -19838938.570 8
  21245771.346    21245774.862    33319412.461 9 -42347868.752 8
  22743997.067    22744003.978    73057101.713 8 -99759132.345 8
  25428587.285    25428592.451   -12744859.684 8  10240982.566 9
 86  6 12  3 40 17.0800000  0  4G12G13G 9G 7
  20869849.728    20869857.162     5797982.950 9 -19838257.950 7
  21247286.174    21247290.920    33327377.213 9 -42341662.444 9
  22748375.501    22748381.189    73080112.587 8 -99741201.787 8
  25425339.284    25425346.526   -12761918.120 9  10227690.279 7
 86  6 12  3 40 23.0800000  0  4G12G13G 9G 7
  20870021.739    20870026.758     5798882.655 9 -19837556.882 8
  21248802.873    21248808.071    33335347.955 9 -42335451.463 9
  22752757.040    22752761.798    73103133.845 8 -99723263.159 8
  25422094.804    25422101.715   -12778965.980 8  10214406.243 9
 86  6 12  3 40 29.0800000  0  4G12G13G 9G 7
  20870197.910    20870202.500     5799808.657 9 -19836835.320 7
  21250320.471    21250326.211    33343324.652 9 -42329235.859 9
  22757139.410    22757145.941    73126165.624 8 -99705316.329 8
  25418854.416    25418858.679   -12796003.658 8  10201130.152 8
 86  6 12  3 40 35.0800000  0  4G12G13G 9G 7
  20870379.305    20870384.263     5800761.081 9 -19836093.174 8
  21251838.940    21251845.618    33351307.258 9 -42323015.653 8
  22761523.839    22761530.113    73149207.885 7 -99687361.313 8
  25415615.215    25415619.423   -12813028.369 9  10187864.132 8
 86  6 12  3 40 41.0800000  0  4G12G13G 9G 7
  20870565.861    20870570.755     5801739.891 9 -19835330.472 8
  21253359.171    21253364.411    33359295.803 9 -42316790.814 7
  22765910.037    22765917.119    73172260.611 8 -99669398.167 8
                  25412383.571                    10174613.459 7
 86  6 12  3 40 47.0800000  0  4G12G13G 9G 7
  20870757.417    20870762.136     5802745.172 8 -19834547.131 8
  21254880.177    21254887.446    33367290.381 8 -42310561.272 8
  22770299.631    22770305.676    73195323.819 7 -99651426.837 7
  25409146.961    25409152.012   -12866139.254 8  10161383.191 8
 86  6 12  3 40 53.0800000  0  4G12G13G 9G 7
  20870953.179    20870959.794     5803776.786 9 -19833743.281 9
  21256402.560    21256409.761    33375290.854 9 -42304327.130 8
  22774690.113    22774696.308    73218397.349 8 -99633447.471 9
  25405921.124    25405926.748   -12883090.629 9  10148174.341 8
 86  6 12  3 40 59.0800000  0  4G12G13G 9G 7
  20871154.921    20871160.402     5804834.745 9 -19832918.900 8
  21257925.911    21257932.299    33383297.242 9 -42298088.388 8
  22779084.116    22779089.961    73241481.266 7 -99615460.000 8
  25402700.512    25402706.034   -12900017.861 8  10134984.295 9
 86  6 12  3 41  5.0800000  0  4G12G13G 9G 7
  20871360.984    20871366.479     5805919.075 8 -19832073.953 7
  21259449.564    21259455.834    33391309.491 8 -42291845.084 7
  22783477.904    22783484.714    73264575.406 7 -99597464.570 8
  25399482.761    25399488.470   -12916925.608 9  10121809.440 9
 86  6 12  3 41 11.0800000  0  4G12G13G 9G 7
  20871571.737    20871577.024     5807029.641 8 -19831208.582 8
  21260975.013    21260982.796    33399327.485 8 -42285597.298 8
  22787875.204    22787881.034    73287679.787 7 -99579461.167 7
  25396267.987    25396274.169   -12933818.092 9  10108646.470 8
 86  6 12  3 41 17.0800000  0  4G12G13G 9G 7
  20871788.060    20871794.128     5808166.499 8 -19830322.720 8
  21262502.197    21262509.801    33407351.270 8 -42279345.005 8
  22792273.242    22792279.437    73310794.288 8 -99561449.871 7
  25393055.759    25393061.812   -12950697.662 8  10095493.561 8
 86  6 12  3 41 23.0800000  0  4G12G13G 9G 7
  20872010.042    20872015.830     5809329.657 9 -19829416.367 7
  21264030.272    21264037.191    33415380.870 9 -42273088.175 8
  22796673.926    22796679.850    73333918.865 8 -99543430.711 7
  25389845.034    25389851.459   -12967566.397 8  10082349.096 8
 86  6 12  3 41 29.0800000  0  4G12G13G 9G 7
  20872236.260    20872240.822     5810519.094 9 -19828489.536 7
  21265559.621    21265566.042    33423416.266 8 -42266826.833 8
  22801076.671    22801081.043    73357053.764 8 -99525403.530 8
  25386637.300    25386643.853   -12984424.741 8  10069212.725 9
 86  6 12  3 41 35.0800000  0  4G12G13G 9G 7
  20872467.744    20872472.492     5811734.938 8 -19827542.114 8
  21267091.249    21267096.278    33431457.496 9 -42260560.933 8
  22805480.148    22805485.635    73380198.815 8 -99507368.414 8
  25383432.928    25383438.567   -13001269.539 8  10056086.920 8
 86  6 12  3 41 41.0800000  0  4G12G13G 9G 7
  20872703.216    20872708.614     5812977.177 9 -19826574.147 6
  21268622.561    21268627.171    33439504.575 9 -42254290.477 8
  22809885.905    22809892.608    73403354.094 8 -99489325.340 8
                  25380237.757                    10042977.254 8
 86  6 12  3 41 47.0800000  0  4G12G13G 9G 7
  20872944.386    20872951.438     5814245.900 8 -19825585.525 7
  21270155.526    21270159.790    33447557.586 8 -42248015.398 8
  22814294.940    22814300.976    73426519.576 7 -99471274.328 8
  25377035.331    25377040.626   -13054323.039 9  10029888.359 8
 86  6 12  3 41 53.0800000  0  4G12G13G 9G 7
  20873191.453    20873195.896     5815541.095 9 -19824576.289 7
  21271688.638    21271692.999    33455616.451 9 -42241735.758 7
  22818704.524    22818711.427    73449695.219 8 -99453215.416 8
  25373843.867    25373848.273   -13071092.691 8  10016821.098 8
 86  6 12  3 41 59.0800000  0  4G12G13G 9G 7
  20873443.177    20873448.823     5816862.751 9 -19823546.419 7
  21273223.918    21273228.221    33463681.104 9 -42235451.607 8
  22823116.062    22823123.145    73472881.003 7 -99435148.552 7
  25370656.178    25370662.618   -13087838.230 9  10003772.630 8
 86  6 12  3 42  5.0800000  0  4G12G13G 9G 7
  20873700.191    20873705.984     5818210.832 8 -19822495.970 7
  21274759.963    21274764.169    33471751.606 9 -42229162.897 8
  22827530.455    22827537.523    73496076.876 7 -99417073.856 8
  25367472.856    25367480.483   -13104564.332 8   9990739.304 9
 86  6 12  3 42 11.0800000  0  4G12G13G 9G 7
  20873960.576    20873967.148     5819585.257 8 -19821424.987 8
  21276296.370    21276301.583    33479827.869 9 -42222869.697 9
  22831947.609    22831953.634    73519282.849 8 -99398991.281 8
  25364293.640    25364300.666   -13121274.940 7   9977718.055 8
 86  6 12  3 42 17.0800000  0  4G12G13G 9G 7
  20874226.809    20874234.094     5820985.975 9 -19820333.513 8
  21277835.231    21277840.760    33487909.831 9 -42216572.059 8
  22836364.944    22836370.582    73542498.719 8 -99380900.995 8
  25361115.211    25361122.537   -13137972.635 8   9964706.885 9
 86  6 12  3 42 23.0800000  0  4G12G13G 9G 7
  20874497.572    20874506.043     5822412.977 8 -19819221.571 8
  21279373.794    21279379.911    33495997.447 9 -42210270.018 9
  22840785.475    22840790.025    73565724.407 8 -99362803.073 8
  25357940.186    25357947.184   -13154659.454 8   9951704.174 8
 86  6 12  3 42 29.0800000  0  4G12G13G 9G 7
  20874774.777    20874780.962     5823866.184 9 -19818089.207 7
  21280914.111    21280919.748    33504090.604 9 -42203963.659 8
  22845207.016    22845211.336    73588959.932 9 -99344697.457 8
  25354766.222    25354773.520   -13171335.593 7   9938709.808 8
 86  6 12  3 42 35.0800000  0  4G12G13G 9G 7
  20875056.622    20875063.637     5825345.517 8 -19816936.475 8
  21282455.332    21282460.981    33512189.277 9 -42197653.011 9
  22849630.037    22849635.015    73612205.151 8 -99326584.289 8
                  25351602.746                     9925726.270 8
 86  6 12  3 42 41.0800000  0  4G12G13G 9G 7
  20875343.600    20875348.920     5826851.024 8 -19815763.357 7
  21283997.466    21284002.085    33520293.370 9 -42191338.137 8
  22854055.369    22854060.964    73635460.035 8 -99308463.607 7
                  25348436.952                     9912759.251 7
 86  6 12  3 42 47.0800000  0  4G12G13G 9G 7
  20875634.428    20875640.945     5828382.740 9 -19814569.810 7
  21285540.544    21285546.343    33528403.014 9 -42185018.931 8
  22858482.054    22858487.978    73658724.621 8 -99290335.355 8
  25345269.455    25345274.592   -13240870.199 8   9899813.359 9
 86  6 12  3 42 53.0800000  0  4G12G13G 9G 7
  20875930.935    20875935.865     5829940.804 8 -19813355.732 8
  21287085.225    21287089.926    33536518.286 9 -42178695.341 9
  22862911.264    22862916.084    73681998.938 7 -99272199.526 7
  25342112.232    25342119.073   -13257456.496 8   9886888.994 9
 86  6 12  3 42 59.0800000  0  4G12G13G 9G 7
  20876232.498    20876236.508     5831525.116 9 -19812121.202 7
  21288630.257    21288636.066    33544639.138 9 -42172367.414 9
  22867341.347    22867348.021    73705283.046 8 -99254056.070 8
  25338962.035    25338967.586   -13274018.371 8   9873983.238 8
 86  6 12  3 43  5.0800000  0  4G12G13G 9G 7
  20876540.025    20876545.062     5833135.663 8 -19810866.228 8
  21290177.188    21290182.299    33552765.483 9 -42166035.186 9
  22871775.222    22871779.607    73728576.819 7 -99235905.089 7
  25335812.540    25335819.908   -13290561.531 7   9861092.465 8
 86  6 12  3 43 11.0800000  0  4G12G13G 9G 7
  20876850.763    20876856.200     5834772.447 8 -19809590.827 7
  21291724.455    21291729.159    33560897.333 9 -42159698.673 8
  22876209.011    22876214.712    73751880.183 7 -99217746.627 8
  25332666.120    25332674.490   -13307089.270 8   9848213.714 8
 86  6 12  3 43 17.0800000  0  4G12G13G 9G 7
  20877166.005    20877171.887     5836435.438 9 -19808294.975 7
  21293273.726    21293278.025    33569034.711 9 -42153357.855 7
  22880644.911    22880650.756    73775193.163 8 -99199580.671 8
  25329525.023    25329530.933   -13323604.057 7   9835345.058 8
 86  6 12  3 43 23.0800000  0  4G12G13G 9G 7
  20877487.314    20877493.511     5838124.752 8 -19806978.634 8
  21294822.936    21294826.766    33577177.665 9 -42147012.692 9
  22885083.937    22885089.661    73798515.751 8 -99181407.235 8
  25326384.585    25326391.840   -13340107.727 8   9822485.070 9
 86  6 12  3 43 29.0800000  0  4G12G13G 9G 7
  20877814.756    20877820.472     5839840.319 8 -19805641.838 8
  21296372.987    21296377.182    33585326.130 9 -42140663.227 9
  22889522.892    22889529.180    73821847.947 8 -99163226.299 8
  25323246.636    25323254.120   -13356600.278 8   9809633.736 8
 86  6 12  3 43 35.0800000  0  4G12G13G 9G 7
  20878145.323    20878150.854     5841582.250 9 -19804284.488 7
  21297923.390    21297929.418    33593480.191 9 -42134309.412 8
  22893965.110    22893971.090    73845189.730 8 -99145037.891 9
  25320111.220    25320117.831   -13373077.812 8   9796794.114 9
 86  6 12  3 43 41.0800000  0  4G12G13G 9G 7
  20878483.196    20878489.507     5843350.618 9 -19802906.545 7
  21299476.107    21299482.123    33601639.858 9 -42127951.238 8
  22898407.677    22898415.303    73868541.186 8 -99126841.961 8
                  25316986.465                     9783971.744 8
 86  6 12  3 43 47.0800000  0  4G12G13G 9G 7
  20878825.487    20878830.316     5845145.377 8 -19801508.038 8
  21301028.156    21301036.112    33609805.171 8 -42121588.653 9
  22902852.112    22902860.068    73891902.321 8 -99108638.487 8
  25313854.370    25313860.651   -13425640.809 9   9771171.002 9
 86  6 12  3 43 53.0800000  0  4G12G13G 9G 7
  20879171.221    20879177.071     5846966.592 7 -19800088.897 9
  21302583.148    21302591.070    33617976.121 9 -42115221.684 9
  22907301.549    22907307.987    73915273.058 9 -99090427.532 9
  25310732.345    25310740.160   -13442040.656 8   9758391.922 9
 86  6 12  3 43 59.0800000  0  4G12G13G 9G 7
  20879522.165    20879528.966     5848814.202 8 -19798649.211 8
  21304139.512    21304147.070    33626152.700 8 -42108850.323 8
  22911752.029    22911757.409    73938653.341 8 -99072209.136 8
  25307616.348    25307623.074   -13458416.454 9   9745631.562 9
 86  6 12  3 44  5.0800000  0  4G12G13G 9G 7
  20879879.359    20879885.540     5850688.230 8 -19797188.917 7
  21305695.972    21305704.042    33634334.918 8 -42102474.566 9
  22916201.824    22916208.283    73962043.299 8 -99053983.185 8
  25304503.999    25304510.997   -13474772.873 8   9732886.317 9
 86  6 12  3 44 11.0800000  0  4G12G13G 9G 7
  20880240.523    20880247.932     5852588.694 9 -19795708.039 8
  21307254.498    21307262.757    33642522.664 9 -42096094.506 8
  22920654.679    22920660.903    73985442.747 8 -99035749.860 8
  25301394.197    25301401.609   -13491113.661 8   9720153.240 9
 86  6 12  3 44 17.0800000  0  4G12G13G 9G 7
  20880608.381    20880613.292     5854515.504 9 -19794206.627 8
  21308813.244    21308821.883    33650715.870 8 -42089710.198 9
  22925108.910    22925116.042    74008851.724 7 -99017509.087 8
  25298288.502    25298293.594   -13507441.287 9   9707430.416 8
 86  6 12  3 44 23.0800000  0  4G12G13G 9G 7
  20880980.487    20880985.653     5856468.651 8 -19792684.695 7
  21310373.436    21310381.935    33658914.523 8 -42083321.632 8
  22929565.429    22929570.357    74032270.112 8 -98999260.996 9
  25295182.490    25295188.386   -13523757.501 8   9694716.493 9
 86  6 12  3 44 29.0800000  0  4G12G13G 9G 7
  20881356.386    20881361.348     5858448.114 8 -19791142.255 7
  21311934.269    21311942.728    33667118.748 9 -42076928.722 8
  22934023.314    22934029.273    74055697.798 7 -98981005.675 9
  25292080.644    25292087.270   -13540062.215 8   9682011.525 8
 86  6 12  3 44 35.0800000  0  4G12G13G 9G 7
  20881737.769    20881745.198     5860453.941 9 -19789579.272 7
  21313497.008    21313504.452    33675328.499 9 -42070531.518 9
  22938483.040    22938489.963    74079134.882 8 -98962743.010 8
                  25288987.111                     9669318.736 9
 86  6 12  3 44 41.0800000  0  4G12G13G 9G 7
  20882124.629    20882131.838     5862486.191 9 -19787995.700 8
  21315060.999    21315066.379    33683543.685 9 -42064130.075 9
  22942945.354    22942951.749    74102581.290 8 -98944473.093 8
  25285920.194    25285890.903   -13592613.085 8   9656643.604 8
 86  6 12  3 44 47.0800000  0  4G12G13G 9G 7
  20882517.044    20882523.030     5864544.850 8 -19786391.551 7
  21316626.178    21316631.014    33691764.351 9 -42057724.351 9
  22947407.717    22947414.422    74126037.141 8 -98926195.806 8
  25282794.007    25282801.692   -13608851.332 8   9643990.539 8
 86  6 12  3 44 53.0800000  0  4G12G13G 9G 7
  20882913.857    20882919.470     5866629.856 8 -19784766.876 8
  21318191.715    21318197.237    33699990.453 9 -42051314.413 9
  22951873.874    22951880.055    74149502.284 8 -98907911.294 9
  25279709.017    25279716.201   -13625061.661 8   9631359.143 7
 86  6 12  3 44 59.0800000  0  4G12G13G 9G 7
  20883315.588    20883321.312     5868741.100 8 -19783121.745 8
  21319758.335    21319762.341    33708221.928 9 -42044900.260 8
  22956340.517    22956347.064    74172976.635 8 -98889619.598 8
  25276629.551    25276634.746   -13641248.633 7   9618746.315 8
 86  6 12  3 45  5.0800000  0  4G12G13G 9G 7
  20883721.096    20883727.618     5870878.511 9 -19781456.233 8
  21321326.591    21321329.609    33716458.650 9 -42038482.029 9
  22960809.379    22960814.443    74196460.013 7 -98871320.847 8
  25273554.520    25273557.954   -13657416.027 9   9606148.342 8
 86  6 12  3 45 11.0800000  0  4G12G13G 9G 7
  20884134.099    20884139.052     5873042.145 8 -19779770.288 7
  21322895.182    21322898.004    33724700.604 9 -42032059.715 9
  22965279.935    22965285.629    74219952.474 7 -98853015.048 8
  25270480.620    25270485.169   -13673567.799 7   9593562.537 8
 86  6 12  3 45 17.0800000  0  4G12G13G 9G 7
  20884550.837    20884556.793     5875232.075 9 -19778063.853 7
  21324464.689    21324466.900    33732947.909 9 -42025633.230 8
  22969751.672    22969758.454    74243454.060 8 -98834702.120 8
  25267409.438    25267414.303   -13689706.377 9   9580986.999 8
 86  6 12  3 45 23.0800000  0  4G12G13G 9G 7
  20884972.431    20884976.742     5877448.213 8 -19776336.986 8
  21326034.680    21326038.367    33741200.530 9 -42019202.620 8
  22974224.976    22974232.058    74266964.670 8 -98816382.177 8
  25264340.044    25264345.898   -13705833.474 8   9568420.439 7
 86  6 12  3 45 29.0800000  0  4G12G13G 9G 7
  20885399.512    20885403.203     5879690.575 8 -19774589.690 8
  21327606.455    21327609.112    33749458.388 9 -42012767.912 8
  22978701.350    22978708.325    74290484.231 8 -98798055.256 8
  25261273.026    25261277.004   -13721948.871 9   9555862.982 9
 86  6 12  3 45 35.0800000  0  4G12G13G 9G 7
  20885830.361    20885836.307     5881959.063 9 -19772822.015 8
  21329178.001    21329183.478    33757721.436 8 -42006329.161 8
  22983179.225    22983184.375    74314012.639 8 -98779721.426 8
                  25258214.321                     9543318.108 8
 86  6 12  3 45 41.0800000  0  4G12G13G 9G 7
  20886267.325    20886272.200     5884253.726 9 -19771033.982 7
  21330750.946    21330755.013    33765989.612 9 -41999886.424 8
  22987658.575    22987664.692    74337550.087 8 -98761380.552 8
  25255140.250    25255154.859   -13774177.589 9   9530791.295 8
 86  6 12  3 45 47.0800000  0  4G12G13G 9G 7
  20886708.899    20886713.085     5886574.628 8 -19769225.475 7
  21332325.490    21332330.963    33774262.988 9 -41993439.635 9
  22992139.141    22992144.835    74361096.519 8 -98743032.714 8
  25252097.114    25252101.908   -13790225.074 8   9518286.838 8
 86  6 12  3 45 53.0800000  0  4G12G13G 9G 7
  20887154.692    20887160.387     5888921.855 8 -19767396.478 8
  21333901.372    21333905.991    33782541.725 8 -41986988.668 8
  22996622.224    22996628.463    74384651.959 7 -98724677.812 7
  25249048.026    25249054.279   -13806244.666 8   9505804.046 8
 86  6 12  3 45 59.0800000  0  4G12G13G 9G 7
  20887606.743    20887612.450     5891295.430 8 -19765546.930 8
  21335477.677    21335483.139    33790825.796 9 -41980533.554 9
  23001105.638    23001111.440    74408216.385 8 -98706315.922 8
  25246005.148    25246009.914   -13822239.942 9   9493339.812 8
 86  6 12  3 46  5.0800000  0  4G12G13G 9G 7
  20888065.776    20888068.660     5893695.400 9 -19763676.819 7
  21337056.314    21337060.749    33799115.229 9 -41974074.247 8
  23005590.833    23005598.494    74431789.873 8 -98687946.973 8
  25242964.702    25242969.667   -13838216.437 9   9480890.588 9
 86  6 12  3 46 11.0800000  0  4G12G13G 9G 7
  20888525.684    20888531.606     5896121.691 8 -19761786.210 8
  21338633.845    21338639.157    33807410.005 9 -41967610.790 9
  23010077.961    23010085.801    74455372.295 8 -98669571.066 8
  25239927.204    25239932.827   -13854177.206 9   9468453.628 9
 86  6 12  3 46 17.0800000  0  4G12G13G 9G 7
  20888991.989    20888997.956     5898574.329 8 -19759875.060 8
  21340213.143    21340218.670    33815710.184 8 -41961143.120 9
  23014567.648    23014573.750    74478963.658 8 -98651188.193 8
  25236892.911    25236897.504   -13870124.521 9   9456027.148 8
 86  6 12  3 46 23.0800000  0  4G12G13G 9G 7
  20889464.489    20889470.708     5901053.365 9 -19757943.337 7
  21341792.163    21341799.886    33824015.639 8 -41954671.329 9
  23019059.210    23019066.206    74502564.051 7 -98632798.265 8
  25233859.964    25233864.757   -13886059.969 9   9443609.907 9
 86  6 12  3 46 29.0800000  0  4G12G13G 9G 7
  20889940.832    20889946.309     5903558.799 9 -19755991.072 7
  21343374.169    21343380.758    33832326.444 9 -41948195.386 9
  23023552.232    23023556.988    74526173.393 8 -98614401.382 8
  25230829.520    25230836.016   -13901982.980 8   9431202.368 9
 86  6 12  3 46 35.0800000  0  4G12G13G 9G 7
  20890422.411    20890427.266     5906090.576 8 -19754018.253 8
  21344955.467    21344963.369    33840642.584 8 -41941715.283 9
  23028048.159    23028052.193    74549791.614 8 -98595997.568 8
                  25227808.221                     9418808.161 9
 86  6 12  3 46 41.0800000  0  4G12G13G 9G 7
  20890908.710    20890915.396     5908648.734 8 -19752024.874 7
  21346539.752    21346546.760    33848963.959 9 -41935231.100 9
  23032542.183    23032548.299    74573418.676 8 -98577586.866 8
  25224765.886    25224787.923   -13954153.205 9   9406432.737 9
 86  6 12  3 46 47.0800000  0  4G12G13G 9G 7
  20891401.297    20891405.500     5911233.198 8 -19750011.006 8
  21348123.375    21348131.424    33857290.538 9 -41928742.859 8
  23037040.986    23037046.866    74597054.515 9 -98559169.324 9
  25221763.732    25221770.342   -13970005.959 9   9394079.926 9
 86  6 12  3 46 53.0800000  0  4G12G13G 9G 7
  20891898.474    20891903.106     5913843.903 8 -19747976.691 8
  21349708.569    21349716.189    33865622.310 9 -41922250.568 9
  23041539.273    23041546.356    74620699.042 7 -98540745.017 7
  25218751.861    25218758.658   -13985831.302 8   9381748.896 8
 86  6 12  3 46 59.0800000  0  4G12G13G 9G 7
  20892399.113    20892405.702     5916480.776 8 -19745921.986 8
  21351295.366    21351303.021    33873959.165 8 -41915754.316 8
  23046040.094    23046046.382    74644352.214 8 -98522313.992 7
  25215745.399    25215751.953   -14001632.493 8   9369436.281 8
 86  6 12  3 47  5.0800000  0  4G12G13G 9G 7
  20892906.563    20892912.341     5919143.822 9 -19743846.882 7
  21352881.702    21352890.082    33882301.141 8 -41909254.075 8
  23050542.589    23050548.633    74668013.847 8 -98503876.355 8
  25212742.401    25212749.600   -14017414.646 8   9357138.497 8
 86  6 12  3 47 11.0800000  0  4G12G13G 9G 7
  20893418.313    20893424.259     5921832.970 9 -19741751.446 8
  21354471.388    21354478.488    33890648.152 8 -41902749.912 9
  23055048.676    23055054.406    74691684.071 9 -98485432.033 8
  25209742.251    25209748.618   -14033181.212 8   9344852.872 8
 86  6 12  3 47 17.0800000  0  4G12G13G 9G 7
  20893935.673    20893940.922     5924548.296 9 -19739635.606 8
  21356060.556    21356067.213    33899000.112 9 -41896241.884 8
  23059554.367    23059559.589    74715362.676 8 -98466981.159 8
  25206744.118    25206750.928   -14048934.420 8   9332577.660 8
 86  6 12  3 47 23.0800000  0  4G12G13G 9G 7
  20894457.287    20894463.122     5927289.791 9 -19737499.383 8
  21357651.861    21357657.039    33907356.971 9 -41889730.044 9
  23064060.791    23064067.343    74739049.800 8 -98448523.670 8
  25203748.345    25203754.984   -14064675.900 9   9320311.566 8
 86  6 12  3 47 29.0800000  0  4G12G13G 9G 7
  20894983.332    20894990.236     5930057.491 8 -19735342.734 8
  21359242.967    21359247.784    33915718.937 9 -41883214.218 9
  23068568.944    23068576.627    74762745.455 8 -98430059.533 9
  25200754.775    25200762.131   -14080404.680 8   9308055.391 9
 86  6 12  3 47 35.0800000  0  4G12G13G 9G 7
  20895514.765    20895521.169     5932851.382 8 -19733165.678 9
  21360836.803    21360839.869    33924086.050 9 -41876694.390 9
  23073083.166    23073086.619    74786449.633 7 -98411588.745 7
                  25197771.911                     9295812.931 8
 86  6 12  3 47 41.0800000  0  4G12G13G 9G 7
  20896051.983    20896057.555     5935671.516 9 -19730968.173 7
  21362429.170    21362433.051    33932458.208 8 -41870170.622 8
  23077593.187    23077600.076    74810162.240 8 -98393111.401 8
  25194743.070    25194787.042   -14132381.614 8   9283589.757 8
 86  6 12  3 47 47.0800000  0  4G12G13G 9G 7
  20896593.034    20896599.417     5938517.794 8 -19728750.291 8
  21364023.557    21364028.155    33940835.338 9 -41863642.986 7
  23082107.745    23082113.009    74833883.300 7 -98374627.443 7
  25191801.014    25191806.925   -14148038.626 9   9271389.583 8
 86  6 12  3 47 53.0800000  0  4G12G13G 9G 7
  20897140.125    20897145.402     5941390.337 8 -19726511.944 8
  21365619.604    21365623.071    33949217.460 9 -41857111.457 9
  23086622.287    23086628.525    74857612.771 8 -98356136.959 8
  25188828.052    25188832.931   -14163667.221 9   9259211.060 8
 86  6 12  3 47 59.0800000  0  4G12G13G 9G 7
  20897691.938    20897697.035     5944289.200 9 -19724253.090 8
  21367215.463    21367219.161    33957604.544 9 -41850576.058 8
  23091139.414    23091146.653    74881350.674 7 -98337639.895 8
  25185857.977    25185863.774   -14179272.628 9   9247051.008 8
 86  6 12  3 48  5.0800000  0  4G12G13G 9G 7
  20898248.555    20898254.208     5947214.423 8 -19721973.691 7
  21368811.895    21368815.995    33965996.806 9 -41844036.637 8
  23095658.935    23095663.635    74905097.023 7 -98319136.243 7
  25182892.698    25182897.534   -14194858.948 9   9234905.804 8
 86  6 12  3 48 11.0800000  0  4G12G13G 9G 7
  20898810.097    20898815.891     5950165.931 8 -19719673.815 7
  21370410.734    21370413.813    33974394.204 9 -41837493.193 8
  23100178.730    23100184.926    74928851.785 7 -98300626.055 8
  25179929.250    25179934.387   -14210429.392 9   9222772.975 8
 86  6 12  3 48 17.0800000  0  4G12G13G 9G 7
  20899376.663    20899382.910     5953143.745 8 -19717353.436 8
  21372009.346    21372013.062    33982796.670 9 -41830945.811 9
  23104701.201    23104706.680    74952615.044 8 -98282109.234 8
  25176968.950    25176974.846   -14225986.323 9   9210650.660 8
 86  6 12  3 48 23.0800000  0  4G12G13G 9G 7
  20899948.140    20899955.303     5956147.956 9 -19715012.503 8
  21373609.708    21373612.397    33991204.283 9 -41824394.422 8
  23109223.484    23109230.832    74976386.772 8 -98263585.828 7
  25174011.083    25174017.022   -14241531.002 8   9198537.931 8
 86  6 12  3 48 29.0800000  0  4G12G13G 9G 7
  20900525.006    20900531.441     5959178.492 9 -19712651.037 8
  21375210.695    21375212.881    33999616.972 9 -41817839.069 9
  23113750.670    23113756.235    75000166.839 7 -98245055.894 8
  25171055.735    25171061.372   -14257062.363 9   9186435.554 9
 86  6 12  3 48 35.0800000  0  4G12G13G 9G 7
  20901107.211    20901112.989     5962235.367 9 -19710269.072 8
  21376812.184    21376814.723    34008034.826 9 -41811279.699 9
  23118277.168    23118282.397    75023955.290 8 -98226519.439 8
                  25168109.300                     9174347.676 8
 86  6 12  3 48 41.0800000  0  4G12G13G 9G 7
  20901693.229    20901700.979     5965318.469 9 -19707866.644 7
  21378413.743    21378416.726    34016457.644 9 -41804716.455 9
  23122802.987    23122811.515    75047752.012 7 -98207976.570 8
  25165158.592    25165161.434   -14308839.279 9   9162279.778 8
 86  6 12  3 48 47.0800000  0  4G12G13G 9G 7
  20902284.958    20902291.440     5968427.830 8 -19705443.772 8
  21380017.311    21380021.602    34024885.449 9 -41798149.333 8
  23127334.028    23127341.769    75071556.909 9 -98189427.291 8
  25162213.570    25162220.094   -14324296.801 9   9150234.942 9
 86  6 12  3 48 53.0800000  0  4G12G13G 9G 7
  20902881.886    20902888.752     5971563.410 9 -19703000.459 8
  21381620.949    21381626.465    34033318.222 9 -41791578.340 7
  23131865.392    23131874.064    75095369.986 7 -98170871.658 7
  25159278.211    25159284.364   -14339726.456 9   9138211.843 9
 86  6 12  3 48 59.0800000  0  4G12G13G 9G 7
  20903482.526    20903489.242     5974725.200 8 -19700536.721 8
  21383227.527    21383232.600    34041755.948 9 -41785003.495 8
  23136398.437    23136405.898    75119191.202 7 -98152309.667 7
  25156346.586    25156352.239   -14355132.468 8   9126207.162 9
 86  6 12  3 49  5.0800000  0  4G12G13G 9G 7
  20904090.345    20904095.826     5977913.163 8 -19698052.604 7
  21384832.887    21384837.926    34050198.575 9 -41778424.811 9
  23140932.276    23140939.494    75143020.493 8 -98133741.395 7
  25153417.424    25153424.922   -14370519.389 8   9114217.346 9
 86  6 12  3 49 11.0800000  0  4G12G13G 9G 7
  20904701.946    20904707.666     5981127.282 8 -19695548.077 7
  21386440.202    21386446.749    34058646.100 9 -41771842.339 9
  23145468.869    23145476.130    75166857.934 8 -98115166.737 8
  25150493.225    25150500.237   -14385890.488 8   9102239.865 9
 86  6 12  3 49 17.0800000  0  4G12G13G 9G 7
  20905317.731    20905323.963     5984367.633 8 -19693023.139 8
  21388049.589    21388053.964    34067098.552 9 -41765256.008 8
  23150007.080    23150013.775    75190703.477 8 -98096585.813 8
  25147571.160    25147577.270   -14401247.990 9   9090272.990 8
 86  6 12  3 49 23.0800000  0  4G12G13G 9G 7
  20905938.768    20905946.242     5987634.095 8 -19690477.837 7
  21389657.735    21389665.293    34075555.840 9 -41758665.911 8
  23154546.492    23154552.586    75214556.993 8 -98077998.664 8
  25144650.382    25144658.080   -14416593.184 9   9078315.697 9
 86  6 12  3 49 29.0800000  0  4G12G13G 9G 7
  20906565.905    20906571.892     5990926.771 9 -19687912.115 7
  21391268.836    21391274.652    34084017.996 9 -41752072.025 8
  23159087.850    23159093.616    75238418.517 8 -98059405.257 8
  25141732.465    25141740.150   -14431924.731 9   9066369.047 9
 86  6 12  3 49 35.0800000  0  4G12G13G 9G 7
  20907197.179    20907204.356     5994245.622 9 -19685326.004 8
  21392880.251    21392885.771    34092485.039 9 -41745474.312 8
  23163629.316    23163634.953    75262288.078 8 -98040805.594 7
                  25138827.113                     9054437.287 8
 86  6 12  3 49 41.0800000  0  4G12G13G 9G 7
  20907834.035    20907840.686     5997590.622 8 -19682719.497 9
  21394492.285    21394498.703    34100956.971 9 -41738872.808 8
  23168172.728    23168181.614    75286165.523 7 -98022199.793 6
  25135910.413    25135917.854   -14483359.856 9   9042525.984 9
 86  6 12  3 49 47.0800000  0  4G12G13G 9G 7
  20908475.813    20908480.564     6000961.822 9 -19680092.596 8
  21396104.055    21396111.810    34109433.727 8 -41732267.546 8
  23172718.752    23172724.110    75310050.853 8 -98003587.842 8
  25133008.238    25133014.005   -14498616.103 8   9030637.993 8
 86  6 12  3 49 53.0800000  0  4G12G13G 9G 7
  20909121.745    20909128.928     6004359.207 8 -19677445.284 9
  21397719.148    21397725.829    34117915.324 8 -41725658.503 8
  23177266.013    23177270.856    75333944.189 7 -97984969.672 8
  25130109.224    25130115.592   -14513844.896 8   9018771.781 9
 86  6 12  3 49 59.0800000  0  4G12G13G 9G 7
  20909773.961    20909778.906     6007782.823 8 -19674777.531 7
  21399333.908    21399341.435    34126401.783 8 -41719045.682 8
  23181813.623    23181819.333    75357845.416 8 -97966345.348 7
  25127216.149    25127222.760   -14529049.782 9   9006923.822 8
 86  6 12  3 50  5.0800000  0  4G12G13G 9G 7
  20910430.443    20910436.056     6011232.644 9 -19672089.363 7
  21400950.199    21400956.777    34134893.157 9 -41712429.015 8
  23186363.918    23186369.141    75381754.546 9 -97947714.839 8
  25124326.279    25124333.677   -14544235.512 8   8995090.787 9
 86  6 12  3 50 11.0800000  0  4G12G13G 9G 7
  20911091.148    20911097.533     6014708.745 9 -19669380.718 8
  21402566.429    21402574.410    34143389.515 8 -41705808.485 8
  23190914.385    23190919.899    75405671.758 8 -97929078.056 7
  25121439.858    25121447.427   -14559404.973 8   8983270.426 8
 86  6 12  3 50 17.0800000  0  4G12G13G 9G 7
  20911757.971    20911763.817     6018211.120 9 -19666651.596 7
  21404184.724    21404191.281    34151890.780 8 -41699184.128 9
  23195468.650    23195473.586    75429596.805 8 -97910435.160 7
  25118555.540    25118562.837   -14574560.636 9   8971460.842 9
 86  6 12  3 50 23.0800000  0  4G12G13G 9G 7
  20912428.908    20912436.084     6021739.725 8 -19663902.028 7
  21405803.591    21405810.122    34160396.941 9 -41692555.952 9
  23200022.221    23200027.136    75453529.778 8 -97891786.102 7
  25115673.626    25115681.481   -14589703.718 8   8959661.039 8
 86  6 12  3 50 29.0800000  0  4G12G13G 9G 7
  20913105.855    20913112.559     6025294.551 9 -19661132.030 8
  21407423.299    21407430.807    34168907.974 9 -41685923.976 8
  23204577.710    23204582.552    75477470.446 8 -97873131.029 7
  25112795.045    25112801.069   -14604832.702 9   8947872.220 9
 86  6 12  3 50 35.0800000  0  4G12G13G 9G 7
  20913786.964    20913793.715     6028875.527 8 -19658341.657 7
  21409044.205    21409051.131    34177423.798 9 -41679288.268 8
  23209135.775    23209140.868    75501418.814 9 -97854469.956 8
                  25109925.866                     8936098.878 8
 86  6 12  3 50 41.0800000  0  4G12G13G 9G 7
  20914473.604    20914480.163     6032482.546 8 -19655530.996 7
  21410666.070    21410671.822    34185944.347 9 -41672648.870 9
  23213694.620    23213699.784    75525374.862 8 -97835802.908 7
  25107052.557    25107055.099   -14656210.569 9   8924346.475 9
 86  6 12  3 50 47.0800000  0  4G12G13G 9G 7
  20915164.340    20915171.272     6036115.718 9 -19652699.944 7
  21412288.409    21412293.521    34194469.615 9 -41666005.800 9
  23218253.299    23218259.229    75549338.550 8 -97817129.906 7
  25104187.080    25104192.088   -14671262.712 9   8912617.534 8
 86  6 12  3 50 53.0800000  0  4G12G13G 9G 7
  20915860.575    20915868.130     6039775.110 8 -19649848.490 9
  21413912.124    21413917.736    34202999.597 8 -41659359.057 9
  23222815.713    23222821.572    75573309.963 8 -97798450.893 7
  25101327.430    25101331.194   -14686286.467 9   8900910.310 8
 86  6 12  3 50 59.0800000  0  4G12G13G 9G 7
  20916562.594    20916568.580     6043460.578 8 -19646976.675 8
  21415536.199    21415540.950    34211534.175 9 -41652708.744 9
  23227377.992    23227384.215    75597288.894 8 -97779766.024 7
  25098472.346    25098478.199   -14701287.338 9   8889221.308 8
 86  6 12  3 51  5.0800000  0  4G12G13G 9G 7
  20917269.058    20917275.107     6047172.106 9 -19644084.586 9
  21417161.792    21417165.626    34220073.333 8 -41646054.836 8
  23231942.667    23231948.612    75621275.389 8 -97761075.242 8
  25095621.039    25095625.375   -14716269.198 9   8877547.111 7
 86  6 12  3 51 11.0800000  0  4G12G13G 9G 7
  20917980.621    20917986.725     6050909.707 9 -19641172.162 8
  21418786.880    21418791.887    34228617.125 9 -41639397.333 8
  23236508.766    23236515.197    75645269.374 7 -97742378.622 8
  25092773.009    25092778.132   -14731235.090 9   8865885.374 8
 86  6 12  3 51 17.0800000  0  4G12G13G 9G 7
  20918696.213    20918702.815     6054673.426 8 -19638239.410 8
  21420413.752    21420417.969    34237165.738 9 -41632736.060 9
  23241075.688    23241082.063    75669270.890 8 -97723676.148 7
  25089927.354    25089934.438   -14746187.038 8   8854234.501 7
 86  6 12  3 51 23.0800000  0  4G12G13G 9G 7
  20919417.963    20919423.840     6058463.268 8 -19635286.287 7
  21422041.309    21422044.918    34245719.102 9 -41626071.095 8
  23245645.621    23245652.104    75693279.994 8 -97704967.746 7
  25087085.091    25087091.286   -14761126.204 8   8842593.593 8
 86  6 12  3 51 29.0800000  0  4G12G13G 9G 7
  20920143.617    20920150.626     6062279.278 8 -19632312.770 7
  21423669.887    21423673.125    34254277.220 9 -41619402.429 8
  23250215.870    23250221.508    75717296.587 8 -97686253.529 8
  25084244.960    25084251.657   -14776050.698 9   8830964.136 9
 86  6 12  3 51 35.0800000  0  4G12G13G 9G 7
  20920874.370    20920881.303     6066121.529 8 -19629318.810 7
  21425299.497    21425302.717    34262840.100 9 -41612730.050 9
  23254787.450    23254793.016    75741320.726 8 -97667533.413 8
                  25081414.688                     8819350.659 8
 86  6 12  3 51 41.0800000  0  4G12G13G 9G 7
  20921611.197    20921617.359     6069989.930 9 -19626304.465 8
  21426928.685    21426933.278    34271407.656 9 -41606054.018 8
  23259360.174    23259365.454    75765352.324 8 -97648807.495 9
  25078576.346    25078583.457   -14827221.065 8   8807758.642 8
 86  6 12  3 51 47.0800000  0  4G12G13G 9G 7
  20922352.600    20922358.184     6073884.519 9 -19623269.723 7
  21428559.493    21428564.640    34279979.858 8 -41599374.365 8
  23263934.787    23263940.145    75789391.378 8 -97630075.779 8
  25075752.311    25075757.678   -14842067.033 8   8796190.383 9
 86  6 12  3 51 53.0800000  0  4G12G13G 9G 7
  20923098.721    20923105.457     6077805.134 8 -19620214.709 7
  21430191.599    21430195.834    34288556.657 9 -41592691.167 9
  23268510.989    23268515.903    75813437.746 9 -97611338.343 7
  25072931.998    25072937.622   -14856885.176 8   8784643.789 7
 86  6 12  3 51 59.0800000  0  4G12G13G 9G 7
  20923849.727    20923856.139     6081751.684 9 -19617139.458 8
  21431823.433    21431829.078    34297137.995 8 -41586004.405 8
  23273087.061    23273093.521    75837491.350 9 -97592595.270 7
  25070116.823    25070122.204   -14871680.066 7   8773115.304 8
 86  6 12  3 52  5.0800000  0  4G12G13G 9G 7
  20924606.813    20924612.222     6085724.210 7 -19614043.983 8
  21433457.943    21433462.680    34305723.876 9 -41579314.108 8
  23277666.382    23277671.003    75861552.207 9 -97573846.541 8
  25067306.612    25067311.305   -14886455.907 9   8761601.673 8
 86  6 12  3 52 11.0800000  0  4G12G13G 9G 7
  20925367.554    20925373.879     6089722.729 8 -19610928.264 7
  21435092.072    21435098.350    34314314.122 8 -41572620.406 8
  23282246.318    23282252.491    75885620.195 8 -97555092.270 8
  25064497.517    25064502.755   -14901215.819 7   8750100.454 9
 86  6 12  3 52 17.0800000  0  4G12G13G 9G 7
  20926133.397    20926138.559     6093747.138 8 -19607792.361 7
  21436727.934    21436733.103    34322908.776 9 -41565923.274 8
  23286828.200    23286833.479    75909695.235 8 -97536332.490 8
  25061691.528    25061696.492   -14915961.959 8   8738609.964 8
 86  6 12  3 52 23.0800000  0  4G12G13G 9G 7
  20926904.848    20926910.211     6097797.575 9 -19604636.174 9
  21438364.166    21438370.132    34331507.880 8 -41559222.671 9
  23291411.177    23291416.413    75933777.518 8 -97517567.068 8
  25058888.540    25058893.204   -14930695.132 9   8727129.579 8
 86  6 12  3 52 29.0800000  0  4G12G13G 9G 7
  20927680.078    20927684.052     6101874.070 8 -19601459.687 8
  21440001.653    21440007.268    34340111.572 8 -41552518.486 9
  23295994.855    23296001.809    75957866.963 9 -97498796.072 8
  25056087.283    25056093.833   -14945413.253 8   8715660.909 8
 86  6 12  3 52 35.0800000  0  4G12G13G 9G 7
  20928459.757    20928465.249     6105976.628 9 -19598262.890 8
  21441639.243    21441646.386    34348719.806 9 -41545810.776 8
  23300579.970    23300587.447    75981963.541 8 -97480019.538 8
                  25053296.679                     8704208.833 8
 86  6 12  3 52 41.0800000  0  4G12G13G 9G 7
  20929245.302    20929251.081     6110105.218 8 -19595045.810 8
  21443278.433    21443286.098    34357332.515 9 -41539099.574 8
  23305165.810    23305173.364    76006067.268 8 -97461237.410 8
  25050498.527    25050506.406   -14996304.929 8   8692778.586 8
 86  6 12  3 52 47.0800000  0  4G12G13G 9G 7
  20930036.674    20930040.720     6114259.938 9 -19591808.362 7
  21444918.716    21444925.792    34365949.835 9 -41532384.781 8
  23309755.569    23309761.133    76030178.249 8 -97442449.635 8
  25047713.147    25047719.733   -15010943.104 9   8681372.225 8
 86  6 12  3 52 53.0800000  0  4G12G13G 9G 7
  20930831.277    20930836.424     6118440.836 8 -19588550.516 7
  21446559.216    21446565.902    34374571.804 9 -41525666.364 8
  23314344.598    23314350.857    76054296.428 8 -97423656.249 8
  25044931.623    25044938.938   -15025553.305 9   8669987.669 8
 86  6 12  3 52 59.0800000  0  4G12G13G 9G 7
  20931632.062    20931638.255     6122647.863 9 -19585272.318 7
  21448202.845    21448207.634    34383198.421 9 -41518944.313 8
  23318936.017    23318941.039    76078421.714 8 -97404857.323 8
  25042157.188    25042163.617   -15040140.100 9   8658621.347 8
 86  6 12  3 53  5.0800000  0  4G12G13G 9G 7
  20932438.557    20932443.920     6126880.952 8 -19581973.814 8
  21449845.510    21449848.720    34391829.636 9 -41512218.695 8
  23323527.107    23323533.960    76102554.248 8 -97386052.744 7
  25039384.479    25039390.245   -15054707.809 9   8647269.895 8
 86  6 12  3 53 11.0800000  0  4G12G13G 9G 7
  20933248.658    20933253.048     6131140.081 9 -19578655.014 8
  21451487.566    21451492.488    34400465.423 9 -41505489.511 8
  23328121.503    23328127.562    76126693.821 8 -97367242.685 7
  25036616.545    25036621.341   -15069259.209 9   8635931.148 8
 86  6 12  3 53 17.0800000  0  4G12G13G 9G 7
  20934064.010    20934068.930     6135425.265 9 -19575315.904 8
  21453132.032    21453136.811    34409105.760 9 -41498756.772 8
  23332715.605    23332722.716    76150840.481 8 -97348427.111 7
  25033850.964    25033855.214   -15083796.499 9   8624603.393 8
 86  6 12  3 53 23.0800000  0  4G12G13G 9G 7
  20934884.229    20934889.562     6139736.475 9 -19571956.520 7
  21454777.131    21454780.947    34417750.576 9 -41492020.548 8
  23337312.253    23337319.429    76174994.077 8 -97329606.127 7
  25031086.603    25031090.613   -15098320.527 9   8613285.956 9
 86  6 12  3 53 29.0800000  0  4G12G13G 9G 7
  20935709.153    20935715.231     6144073.668 9 -19568576.892 8
  21456421.994    21456428.394    34426399.758 8 -41485280.914 8
  23341910.335    23341916.293    76199154.533 8 -97310779.811 8
  25028325.684    25028330.735   -15112829.003 9   8601980.667 9
 86  6 12  3 53 35.0800000  0  4G12G13G 9G 7
  20936539.344    20936545.423     6148436.895 8 -19565176.986 7
  21458069.308    21458073.965    34435053.500 9 -41478537.721 9
  23346508.772    23346514.688    76223322.007 8 -97291948.024 8
                  25025573.726                     8590692.448 8
 86  6 12  3 53 41.0800000  0  4G12G13G 9G 7
  20937374.958    20937380.793     6152826.170 8 -19561756.765 6
  21459716.504    21459722.026    34443711.730 9 -41471791.050 7
  23351108.189    23351115.944    76247496.329 8 -97273110.882 9
  25022816.343    25022822.627   -15163582.945 9   8579426.569 8
 86  6 12  3 53 47.0800000  0  4G12G13G 9G 7
  20938214.521    20938221.057     6157241.574 8 -19558316.186 9
  21461365.281    21461370.986    34452374.424 9 -41465040.905 8
  23355710.892    23355717.874    76271677.663 8 -97254268.293 8
  25020071.835    25020076.850   -15178009.889 9   8568184.806 8
 86  6 12  3 53 53.0800000  0  4G12G13G 9G 7
  20939059.651    20939065.844     6161682.998 9 -19554855.337 8
  21463014.691    21463020.030    34461041.630 9 -41458287.232 8
  23360313.830    23360319.761    76295865.813 9 -97235420.395 7
  25017332.165    25017336.329   -15192409.527 8   8556964.706 8
 86  6 12  3 53 59.0800000  0  4G12G13G 9G 7
  20939909.331    20939915.782     6166150.430 8 -19551374.216 8
  21464664.401    21464671.166    34469713.340 9 -41451530.054 9
  23364917.241    23364923.564    76320060.862 8 -97216567.102 8
  25014595.969    25014600.537   -15206785.376 8   8545762.753 8
 86  6 12  3 54  5.0800000  0  4G12G13G 9G 7
  20940764.320    20940769.725     6170643.850 9 -19547872.855 7
  21466315.205    21466321.723    34478389.502 9 -41444769.401 8
  23369523.985    23369529.343    76344262.712 9 -97197708.515 8
  25011864.222    25011868.901   -15221142.093 9   8534575.715 8
 86  6 12  3 54 11.0800000  0  4G12G13G 9G 7
  20941625.475    20941630.194     6175163.100 8 -19544351.351 7
  21467967.045    21467973.601    34487069.959 9 -41438005.414 9
  23374130.822    23374135.500    76368471.267 9 -97178844.697 8
  25009134.751    25009140.762   -15235482.551 9   8523401.340 8
 86  6 12  3 54 17.0800000  0  4G12G13G 9G 7
  20942490.767    20942496.789     6179708.362 9 -19540809.594 7
  21469620.411    21469626.924    34495754.722 9 -41431238.067 9
  23378738.825    23378744.963    76392686.529 8 -97159975.673 8
  25006409.301    25006414.575   -15249808.814 9   8512238.013 7
 86  6 12  3 54 23.0800000  0  4G12G13G 9G 7
  20943358.977    20943365.729     6184279.523 8 -19537247.651 7
  21471273.963    21471280.974    34504443.781 9 -41424467.364 8
  23383348.696    23383352.737    76416908.443 9 -97141101.446 8
  25003684.949    25003690.476   -15264121.529 8   8501085.254 8
 86  6 12  3 54 29.0800000  0  4G12G13G 9G 7
  20944235.516    20944239.991     6188876.545 8 -19533665.559 7
  21472927.727    21472934.712    34513137.210 8 -41417693.267 9
  23387959.691    23387964.290    76441137.121 9 -97122221.943 9
  25000965.080    25000969.068   -15278418.259 9   8489944.962 8
 86  6 12  3 54 35.0800000  0  4G12G13G 9G 7
  20945115.231    20945121.037     6193499.511 8 -19530063.240 8
  21474583.364    21474590.111    34521835.030 9 -41410915.738 9
  23392569.804    23392576.973    76465372.321 8 -97103337.378 9
                  24998253.001                     8478822.323 8
 86  6 12  3 54 41.0800000  0  4G12G13G 9G 7
  20945999.268    20946005.488     6198148.359 9 -19526440.776 8
  21476238.176    21476247.233    34530537.187 9 -41404134.838 9
  23397184.648    23397189.712    76489614.046 9 -97084447.720 9
  24995538.348    24995541.177   -15328959.385 9   8467722.280 8
 86  6 12  3 54 47.0800000  0  4G12G13G 9G 7
  20946888.684    20946895.463     6202823.108 9 -19522798.111 7
  21477896.140    21477902.861    34539243.593 9 -41397350.635 8
  23401798.376    23401804.934    76513862.339 8 -97065552.939 9
  24992833.048    24992838.606   -15343173.547 9   8456646.313 8
 86  6 12  3 54 53.0800000  0  4G12G13G 9G 7
  20947782.879    20947788.929     6207523.729 8 -19519135.293 7
  21479554.010    21479559.915    34547954.287 9 -41390563.067 9
  23406414.542    23406418.848    76538117.174 8 -97046653.076 8
  24990133.121    24990137.525   -15357359.976 9   8445591.974 8
 86  6 12  3 54 59.0800000  0  4G12G13G 9G 7
  20948681.325    20948689.292     6212250.211 7 -19515452.327 7
  21481211.622    21481218.354    34556669.261 9 -41383772.186 8
  23411029.228    23411037.419    76562378.487 7 -97027748.169 8
  24987437.727    24987443.506   -15371523.269 9   8434555.640 8
 86  6 12  3 55  5.0800000  0  4G12G13G 9G 7
  20949586.039    20949592.718     6217002.551 8 -19511749.208 7
  21482871.431    21482876.751    34565388.515 9 -41376977.949 8
  23415645.838    23415653.843    76586646.214 7 -97008838.262 9
  24984745.426    24984752.741   -15385667.474 8   8423534.205 9
 86  6 12  3 55 11.0800000  0  4G12G13G 9G 7
  20950495.903    20950503.441     6221780.725 8 -19508025.952 8
  21484529.985    21484537.854    34574111.996 8 -41370180.445 8
  23420266.656    23420273.130    76610920.458 7 -96989923.272 7
  24982056.438    24982063.939   -15399795.293 9   8412525.529 8
 86  6 12  3 55 17.0800000  0  4G12G13G 9G 7
  20951409.402    20951415.709     6226584.696 8 -19504282.596 7
  21486191.793    21486197.362    34582839.678 9 -41363379.641 8
  23424886.551    23424893.482    76635201.009 7 -96971003.362 8
  24979371.511    24979379.207   -15413908.670 9   8401528.106 8
 86  6 12  3 55 23.0800000  0  4G12G13G 9G 7
  20952328.252    20952334.817     6231414.574 8 -19500519.072 7
  21487852.522    21487858.646    34591571.620 9 -41356575.521 7
  23429507.532    23429514.800    76659488.076 8 -96952078.381 9
  24976689.049    24976695.356   -15428008.251 9   8390541.448 8
 86  6 12  3 55 29.0800000  0  4G12G13G 9G 7
  20953252.082    20953259.592     6236270.386 9 -19496735.301 7
  21489516.144    21489520.255    34600307.874 9 -41349768.046 8
  23434130.639    23434137.563    76683781.436 6 -96933148.501 8
  24974009.113    24974014.715   -15442091.220 9   8379567.704 9
 86  6 12  3 55 35.0800000  0  4G12G13G 9G 7
  20954182.195    20954188.087     6241152.141 9 -19492931.340 7
  21491179.255    21491183.899    34609048.481 9 -41342957.177 8
  23438752.715    23438761.307    76708081.300 6 -96914213.556 8
                  24971339.786                     8368612.247 8
 86  6 12  3 55 41.0800000  0  4G12G13G 9G 7
  20955116.871    20955122.592     6246059.882 8 -19489107.115 8
  21492845.411    21492846.534    34617793.441 9 -41336142.903 8
  23443380.459    23443387.712    76732387.632 7 -96895273.569 8
  24968664.154    24968670.200   -15492417.050 9   8357679.950 8
 86  6 12  3 55 47.0800000  0  4G12G13G 9G 7
  20956055.625    20956061.619     6250993.662 8 -19485262.623 7
  21494509.366    21494512.023    34626542.629 9 -41329325.351 7
  23448006.685    23448014.053    76756700.329 7 -96876328.607 8
  24965999.142    24966005.982   -15506415.655 9   8346771.937 7
 86  6 12  3 55 53.0800000  0  4G12G13G 9G 7
  20956999.103    20957005.710     6255953.316 8 -19481397.953 7
  21496174.684    21496177.646    34635296.144 9 -41322504.418 8
  23452634.929    23452642.277    76781019.467 8 -96857378.626 8
  24963341.476    24963346.698   -15520385.957 9   8335885.608 8
 86  6 12  3 55 59.0800000  0  4G12G13G 9G 7
  20957947.845    20957954.439     6260938.899 8 -19477513.096 7
  21497840.860    21497844.126    34644054.015 9 -41315680.098 8
  23457263.617    23457270.448    76805344.951 7 -96838423.699 8
  24960686.626    24960693.906   -15534333.535 8   8325017.379 7
 86  6 12  3 56  5.0800000  0  4G12G13G 9G 7
  20958899.593    20958906.945     6265950.405 9 -19473608.023 7
  21499508.532    21499512.597    34652816.234 9 -41308852.382 7
  23461894.378    23461900.895    76829676.871 8 -96819463.754 8
  24958035.996    24958042.886   -15548261.781 9   8314164.211 9
 86  6 12  3 56 11.0800000  0  4G12G13G 9G 7
  20959858.995    20959866.062     6270987.926 9 -19469682.690 8
  21501176.495    21501181.839    34661582.805 9 -41302021.291 8
  23466526.607    23466531.708    76854015.134 8 -96800498.870 7
  24955389.368    24955397.169   -15562173.427 9   8303323.996 8
 86  6 12  3 56 17.0800000  0  4G12G13G 9G 7
  20960823.078    20960829.356     6276051.303 9 -19465737.202 7
  21502846.241    21502849.900    34670353.582 9 -41295186.914 8
  23471158.056    23471165.375    76878359.573 8 -96781529.188 8
  24952743.873    24952751.188   -15576070.542 8   8292495.068 7
 86  6 12  3 56 23.0800000  0  4G12G13G 9G 7
  20961792.469    20961797.717     6281140.553 8 -19461771.548 7
  21504516.725    21504520.113    34679128.565 9 -41288349.246 9
  23475791.380    23475799.243    76902710.276 9 -96762554.604 9
  24950102.139    24950108.842   -15589953.321 9   8281677.337 7
 86  6 12  3 56 29.0800000  0  4G12G13G 9G 7
  20962764.979    20962772.029     6286255.700 9 -19457785.727 7
  21506186.515    21506192.077    34687907.845 9 -41281508.241 9
  23480426.557    23480434.111    76927067.249 8 -96743575.157 9
  24947463.395    24947469.369   -15603818.870 8   8270873.006 8
 86  6 12  3 56 35.0800000  0  4G12G13G 9G 7
  20963743.270    20963749.177     6291396.618 9 -19453779.811 8
  21507859.256    21507863.201    34696691.259 9 -41274664.024 9
  23485062.570    23485070.304    76951430.323 8 -96724590.935 9
                  24944835.119                     8260087.357 8
 86  6 12  3 56 41.0800000  0  4G12G13G 9G 7
  20964727.255    20964733.878     6296563.304 9 -19449753.824 7
  21509530.169    21509535.277    34705478.737 9 -41267816.646 9
  23489699.013    23489707.684    76975799.406 8 -96705602.061 7
  24942203.026    24942206.473   -15653934.022 9   8249325.127 7
 86  6 12  3 56 47.0800000  0  4G12G13G 9G 7
  20965716.035    20965721.212     6301755.629 8 -19445707.863 8
  21511202.605    21511208.258    34714270.131 9 -41260966.195 8
  23494338.454    23494346.767    77000174.385 7 -96686608.564 8
  24939580.029    24939585.538   -15667714.534 9   8238587.082 7
 86  6 12  3 56 53.0800000  0  4G12G13G 9G 7
  20966707.075    20966714.728     6306973.569 8 -19441641.929 8
  21512875.575    21512882.973    34723065.504 9 -41254112.661 9
  23498977.265    23498984.698    77024555.129 8 -96667610.591 8
  24936962.728    24936967.911   -15681467.412 9   8227870.547 8
 86  6 12  3 56 59.0800000  0  4G12G13G 9G 7
  20967705.200    20967711.478     6312217.183 9 -19437555.993 7
  21514550.331    21514556.462    34731864.792 9 -41247256.082 9
  23503619.375    23503625.392    77048941.782 8 -96648608.007 8
  24934350.581    24934355.063   -15695197.423 9   8217171.845 8
 86  6 12  3 57  5.0800000  0  4G12G13G 9G 7
  20968708.632    20968714.667     6317486.415 9 -19433450.112 8
  21516224.524    21516231.900    34740668.037 9 -41240396.410 9
  23508261.692    23508266.713    77073334.170 8 -96629600.941 7
  24931741.346    24931745.071   -15708908.472 8   8206487.924 7
 86  6 12  3 57 11.0800000  0  4G12G13G 9G 7
  20969716.743    20969724.267     6322781.247 8 -19429324.261 8
  21517900.993    21517907.796    34749475.344 9 -41233533.582 8
  23512905.526    23512910.362    77097732.457 8 -96610589.293 8
  24929134.715    24929140.611   -15722602.894 9   8195816.944 8
 86  6 12  3 57 17.0800000  0  4G12G13G 9G 7
  20970728.346    20970735.297     6328101.770 9 -19425178.401 8
  21519577.683    21519584.318    34758286.696 9 -41226667.599 8
  23517548.136    23517553.823    77122136.734 8 -96591572.964 9
  24926532.254    24926535.472   -15736282.696 9   8185157.371 8
 86  6 12  3 57 23.0800000  0  4G12G13G 9G 7
  20971746.130    20971752.080     6333448.047 8 -19421012.473 7
  21521256.234    21521262.365    34767102.088 9 -41219798.456 8
  23522194.174    23522199.617    77146546.855 8 -96572552.099 8
  24923930.946    24923936.506   -15749948.172 8   8174508.949 8
 86  6 12  3 57 29.0800000  0  4G12G13G 9G 7
  20972768.136    20972774.356     6338820.087 8 -19416826.466 7
  21522934.029    21522940.157    34775921.566 8 -41212926.137 8
  23526838.587    23526845.832    77170962.714 8 -96553526.740 7
  24921334.196    24921340.818   -15763595.940 9   8163874.330 8
 86  6 12  3 57 35.0800000  0  4G12G13G 9G 7
  20973795.508    20973801.901     6344217.902 9 -19412620.379 8
  21524612.792    21524619.054    34784745.149 9 -41206050.618 8
  23531485.784    23531492.300    77195384.423 8 -96534496.829 8
                  24918748.715                     8153258.943 8
 86  6 12  3 57 41.0800000  0  4G12G13G 9G 7
  20974826.084    20974833.307     6349641.495 8 -19408394.197 7
  21526292.154    21526299.117    34793572.842 9 -41199171.902 8
  23536133.895    23536140.570    77219812.046 8 -96515462.338 7
  24916155.875    24916162.025   -15813489.530 9   8142667.408 9
 86  6 12  3 57 47.0800000  0  4G12G13G 9G 7
  20975864.073    20975870.237     6355090.840 8 -19404147.960 7
  21527972.654    21527979.761    34802404.547 9 -41192290.058 9
  23540782.645    23540791.158    77244245.583 7 -96496423.225 8
  24913575.871    24913581.555   -15827050.680 9   8132100.284 8
 86  6 12  3 57 53.0800000  0  4G12G13G 9G 7
  20976906.470    20976911.832     6360565.925 9 -19399881.667 7
  21529653.744    21529661.739    34811240.337 9 -41185405.027 9
  23545433.597    23545441.522    77268684.830 7 -96477379.664 8
  24911000.610    24911005.500   -15840583.970 9   8121554.880 8
 86  6 12  3 57 59.0800000  0  4G12G13G 9G 7
  20977954.446    20977957.577     6366066.836 8 -19395595.247 8
  21531336.422    21531343.685    34820080.147 8 -41178516.862 9
  23550085.036    23550092.647    77293129.941 8 -96458331.531 7
  24908429.142    24908433.430   -15854094.197 9   8111027.433 8
 86  6 12  3 58  5.0800000  0  4G12G13G 9G 7
  20979005.170    20979010.590     6371593.548 9 -19391288.711 7
  21533019.495    21533025.577    34828924.108 9 -41171625.451 9
  23554739.051    23554745.388    77317580.737 7 -96439278.946 7
  24905861.968    24905866.325   -15867585.002 9   8100515.122 9
 86  6 12  3 58 11.0800000  0  4G12G13G 9G 7
  20980061.632    20980068.183     6377146.111 8 -19386962.050 8
  21534703.351    21534708.756    34837772.218 9 -41164730.816 8
  23559393.509    23559400.391    77342037.374 8 -96420221.851 7
  24903297.543    24903303.392   -15881059.012 9   8090015.888 7
 86  6 12  3 58 17.0800000  0  4G12G13G 9G 7
  20981122.544    20981129.325     6382724.449 8 -19382615.286 7
  21536387.725    21536394.210    34846624.474 9 -41157832.954 8
  23564049.455    23564055.957    77366499.865 9 -96401160.144 8
  24900736.373    24900741.292   -15894518.050 9   8079528.332 8
 86  6 12  3 58 23.0800000  0  4G12G13G 9G 7
  20982188.566    20982194.844     6388328.511 8 -19378248.485 7
  21538073.154    21538079.207    34855480.805 9 -41150931.926 7
  23568705.173    23568712.355    77390968.045 9 -96382094.033 7
  24898177.542    24898184.476   -15907962.332 9   8069052.263 8
 86  6 12  3 58 29.0800000  0  4G12G13G 9G 7
  20983260.038    20983267.033     6393958.364 9 -19373861.565 7
  21539759.200    21539765.671    34864341.296 9 -41144027.639 8
  23573362.264    23573369.189    77415442.005 9 -96363023.405 7
  24895623.363    24895628.843   -15921388.263 9   8058590.514 8
 86  6 12  3 58 35.0800000  0  4G12G13G 9G 7
  20984335.173    20984343.657     6399614.026 8 -19369454.573 8
  21541446.751    21541452.277    34873205.829 9 -41137120.199 8
  23578020.521    23578027.975    77439921.556 9 -96343948.425 8
                  24893078.863                     8048148.542 8
 86  6 12  3 58 41.0800000  0  4G12G13G 9G 7
  20985418.066    20985423.170     6405295.380 7 -19365027.534 7
  21543134.914    21543138.502    34882074.407 8 -41130209.631 7
  23582680.489    23582686.791    77464406.796 9 -96324868.994 7
  24890527.627    24890534.557   -15971062.782 8   8037730.774 8
 86  6 12  3 58 47.0800000  0  4G12G13G 9G 7
  20986503.132    20986510.983     6411002.354 9 -19360580.550 9
  21544822.908    21544827.684    34890946.941 9 -41123295.955 8
  23587340.463    23587347.953    77488897.576 9 -96305785.279 8
  24887989.116    24887996.067   -15984400.810 9   8027337.502 7
 86  6 12  3 58 53.0800000  0  4G12G13G 9G 7
  20987595.009    20987600.428     6416734.872 8 -19356113.657 7
  21546512.652    21546516.799    34899823.354 9 -41116379.258 8
  23592002.563    23592008.886    77513393.741 9 -96286697.352 7
  24885457.173    24885463.873   -15997711.781 9   8016965.721 8
 86  6 12  3 58 59.0800000  0  4G12G13G 9G 7
  20988689.976    20988695.683     6422492.976 8 -19351626.822 8
  21548202.518    21548206.098    34908703.641 9 -41109459.548 8
  23596664.984    23596671.387    77537895.377 9 -96267605.163 7
  24882929.032    24882933.811   -16010999.255 9   8006611.849 7
 86  6 12  3 59  5.0800000  0  4G12G13G 9G 7
  20989790.596    20989796.661     6428276.626 8 -19347120.069 8
  21549893.284    21549896.396    34917587.784 9 -41102536.827 7
  23601329.051    23601333.951    77562402.293 8 -96248508.851 7
  24880404.332    24880410.321   -16024267.522 9   7996272.944 9
 86  6 12  3 59 11.0800000  0  4G12G13G 9G 7
  20990895.967    20990902.876     6434085.872 8 -19342593.403 8
  21551584.578    21551587.729    34926475.757 9 -41095611.114 8
  23605993.468    23605999.141    77586914.641 9 -96229408.326 6
  24877883.823    24877889.040   -16037518.969 9   7985947.141 8
 86  6 12  3 59 17.0800000  0  4G12G13G 9G 7
  20992007.034    20992013.069     6439920.661 8 -19338046.802 8
  21553277.051    21553279.991    34935367.524 9 -41088682.469 8
  23610658.115    23610664.102    77611432.313 9 -96210303.623 6
  24875364.753    24875369.768   -16050755.470 9   7975633.003 7
 86  6 12  3 59 23.0800000  0  4G12G13G 9G 7
  20993120.904    20993128.156     6445781.010 9 -19333480.314 9
  21554969.939    21554973.172    34944263.107 9 -41081750.835 7
  23615324.922    23615331.260    77635955.339 9 -96191194.785 7
  24872848.407    24872853.343   -16063976.975 9   7965330.538 8
 86  6 12  3 59 29.0800000  0  4G12G13G 9G 7
  20994241.945    20994248.509     6451667.005 9 -19328893.820 8
  21556663.454    21556665.263    34953162.612 9 -41074816.150 8
  23619991.551    23619997.830    77660483.745 9 -96172081.719 6
                  24870340.742                     7955042.753 8
 86  6 12  3 59 35.0800000  0  4G12G13G 9G 7
  20995365.572    20995374.156     6457578.575 7 -19324287.392 8
  21558357.719    21558360.527    34962066.073 9 -41067878.374 7
  23624661.134    23624666.577    77685017.502 7 -96152964.503 7
  24867884.877    24867833.593   -16113483.351 9   7944775.250 8
 86  6 12  3 59 41.0800000  0  4G12G13G 9G 7
  20996494.897    20996502.923     6463515.691 9 -19319661.085 7
  21560052.425    21560055.744    34970973.330 9 -41060937.653 8
  23629331.232    23629335.381    77709556.483 8 -96133843.201 7
  24865326.970    24865330.823   -16126628.895 9   7934532.287 7
 86  6 12  3 59 47.0800000  0  4G12G13G 9G 7
  20997631.106    20997637.785     6469478.361 8 -19315014.830 7
  21561748.315    21561751.812    34979884.476 9 -41053993.899 8
  23634000.515    23634007.454    77734100.911 8 -96114717.695 7
  24862831.737    24862836.526   -16139742.616 9   7924313.795 8
 86  6 12  3 59 53.0800000  0  4G12G13G 9G 7
  20998770.719    20998777.369     6475466.617 8 -19310348.666 8
  21563444.208    21563448.761    34988799.434 9 -41047047.171 9
  23638671.901    23638678.968    77758650.378 8 -96095588.230 8
  24860340.785    24860346.531   -16152828.198 8   7914116.856 9
 86  6 12  3 59 59.0800000  0  4G12G13G 9G 7
  20999914.552    20999920.816     6481480.354 8 -19305662.636 7
  21565140.763    21565146.082    34997718.138 9 -41040097.530 7
  23643344.531    23643351.714    77783205.094 8 -96076454.702 7
  24857855.107    24857861.468   -16165891.346 9   7903937.775 8
 86  6 12  4  0  5.0800000  0  4G12G13G 9G 7
  21001063.638    21001070.074     6487519.532 9 -19300956.778 7
  21566838.881    21566843.857    35006640.644 9 -41033144.924 7
  23648018.143    23648024.287    77807764.917 8 -96057317.172 8
  24855373.221    24855379.485   -16178935.207 9   7893773.726 8
 86  6 12  4  0 11.0800000  0  4G12G13G 9G 7
  21002216.787    21002223.709     6493584.127 9 -19296231.117 8
  21568537.465    21568541.536    35015566.938 9 -41026189.357 7
  23652693.256    23652698.363    77832329.772 8 -96038175.733 7
  24852893.907    24852898.732   -16191962.265 9   7883622.782 7
 86  6 12  4  0 17.0800000  0  4G12G13G 9G 7
  21003376.862    21003384.443     6499674.252 8 -19291485.560 7
  21570236.477    21570241.828    35024497.026 9 -41019230.851 8
  23657368.170    23657374.507    77856899.759 8 -96019030.280 7
  24850418.463    24850424.189   -16204974.266 9   7873483.553 8
 86  6 12  4  0 23.0800000  0  4G12G13G 9G 7
  21004541.029    21004547.408     6505789.865 8 -19286720.159 8
  21571935.652    21571941.056    35033430.919 8 -41012269.380 8
  23662044.765    23662051.825    77881474.764 8 -95999880.936 8
  24847945.459    24847951.011   -16217970.902 9   7863356.314 9
 86  6 12  4  0 29.0800000  0  4G12G13G 9G 7
  21005709.676    21005716.097     6511930.965 8 -19281934.897 8
  21573635.082    21573643.059    35042368.588 9 -41005304.971 8
  23666722.367    23666729.687    77906054.840 8 -95980727.624 7
                  24845481.166                     7853244.076 8
 86  6 12  4  0 35.0800000  0  4G12G13G 9G 7
  21006884.690    21006889.738     6518097.530 9 -19277129.771 9
  21575336.731    21575345.277    35051310.050 9 -40998337.597 8
  23671401.916    23671407.468    77930639.937 9 -95961570.406 8
                  24843016.440                     7843152.608 8
 86  6 12  4  0 41.0800000  0  4G12G13G 9G 7
  21008062.250    21008068.443     6524289.579 8 -19272304.816 7
  21577039.036    21577047.292    35060255.199 8 -40991367.353 9
  23676080.987    23676086.574    77955230.056 9 -95942409.278 7
  24840553.027    24840557.616   -16280482.066 9   7833085.787 8
 86  6 12  4  0 47.0800000  0  4G12G13G 9G 7
  21009245.492    21009250.696     6530507.070 8 -19267460.009 7
  21578740.691    21578750.489    35069204.097 8 -40984394.195 8
  23680761.202    23680767.897    77979825.209 9 -95923244.210 7
  24838099.676    24838105.453   -16293369.631 9   7823043.518 8
 86  6 12  4  0 53.0800000  0  4G12G13G 9G 7
  21010432.670    21010439.133     6536750.014 9 -19262595.382 8
  21580445.338    21580453.283    35078156.748 8 -40977418.111 9
  23685441.331    23685448.184    78004425.257 8 -95904075.342 7
  24835652.966    24835658.382   -16306229.578 9   7813022.782 7
 86  6 12  4  0 59.0800000  0  4G12G13G 9G 7
  21011625.754    21011632.177     6543018.368 9 -19257710.946 7
  21582149.095    21582158.818    35087113.117 8 -40970439.123 9
  23690124.579    23690130.588    78029030.255 8 -95884902.620 7
  24833209.210    24833215.331   -16319066.602 9   7803019.911 7
 86  6 12  4  1  5.0800000  0  4G12G13G 9G 7
  21012822.992    21012830.257     6549312.209 9 -19252806.651 8
  21583855.169    21583862.849    35096073.299 9 -40963457.174 9
  23694808.364    23694813.886    78053640.076 9 -95865726.139 7
  24830770.995    24830776.372   -16331884.151 9   7793032.212 8
 86  6 12  4  1 11.0800000  0  4G12G13G 9G 7
  21014026.294    21014032.515     6555631.529 8 -19247882.514 8
  21585560.953    21585569.764    35105037.254 9 -40956472.272 8
  23699492.422    23699497.499    78078254.922 8 -95846545.731 7
  24828335.159    24828340.379   -16344684.664 9   7783057.787 8
 86  6 12  4  1 17.0800000  0  4G12G13G 9G 7
  21015232.545    21015239.067     6561976.345 8 -19242938.496 8
  21587267.930    21587274.962    35114005.010 9 -40949484.408 8
  23704176.149    23704181.649    78102874.715 8 -95827361.464 8
  24825902.615    24825908.199   -16357469.755 8   7773095.379 8
 86  6 12  4  1 23.0800000  0  4G12G13G 9G 7
  21016444.848    21016453.001     6568346.714 8 -19237974.575 8
  21588975.545    21588982.750    35122976.603 9 -40942493.567 8
  23708861.651    23708868.182    78127499.481 8 -95808173.338 8
  24823472.285    24823479.168   -16370239.009 9   7763145.304 8
 86  6 12  4  1 29.0800000  0  4G12G13G 9G 7
  21017661.860    21017669.740     6574742.625 7 -19232990.754 7
  21590684.529    21590690.999    35131951.985 9 -40935499.759 7
  23713548.512    23713555.258    78152129.212 8 -95788981.340 7
                  24821052.593                     7753210.840 8
 86  6 12  4  1 35.0800000  0  4G12G13G 9G 7
  21018883.993    21018890.830     6581163.918 9 -19227987.139 8
  21592394.208    21592400.007    35140931.107 9 -40928503.027 8
  23718237.557    23718242.792    78176763.818 8 -95769785.515 8
  24818660.912    24818631.635   -16419296.890 9   7743297.471 8
 86  6 12  4  1 41.0800000  0  4G12G13G 9G 7
  21020110.606    21020117.958     6587610.756 7 -19222963.629 7
  21594103.928    21594108.431    35149914.034 9 -40921503.350 8
  23722926.322    23722931.943    78201403.213 8 -95750585.986 7
  24816209.984    24816216.495   -16431986.630 9   7733409.393 8
 86  6 12  4  1 47.0800000  0  4G12G13G 9G 7
  21021343.344    21021349.693     6594083.043 9 -19217920.298 8
  21595813.454    21595818.169    35158900.672 9 -40914500.780 8
  23727614.378    23727620.943    78226047.425 7 -95731382.700 7
  24813801.890    24813807.711   -16444644.807 9   7723545.889 9
 86  6 12  4  1 53.0800000  0  4G12G13G 9G 7
  21022578.799    21022585.607     6600580.632 9 -19212857.230 8
  21597525.202    21597529.673    35167890.965 9 -40907495.345 8
  23732306.211    23732311.218    78250696.304 7 -95712175.786 8
  24811397.702    24811403.702   -16457276.020 9   7713703.777 8
 86  6 12  4  1 59.0800000  0  4G12G13G 9G 7
  21023820.594    21023826.930     6607103.497 8 -19207774.488 7
  21599235.841    21599241.003    35176884.901 9 -40900487.076 9
  23736996.921    23737003.246    78275349.853 7 -95692965.215 7
  24809000.538    24809003.864   -16469883.902 9   7703879.447 8
 86  6 12  4  2  5.0800000  0  4G12G13G 9G 7
  21025066.853    21025073.919     6613651.646 8 -19202672.028 7
  21600948.505    21600952.067    35185882.435 9 -40893476.007 8
  23741689.271    23741695.343    78300008.009 7 -95673751.065 8
  24806604.320    24806609.858   -16482472.352 9   7694070.252 8
 86  6 12  4  2 11.0800000  0  4G12G13G 9G 7
  21026316.948    21026324.142     6620225.191 8 -19197549.778 8
  21602661.512    21602664.885    35194883.669 9 -40886462.064 7
  23746382.822    23746388.866    78324670.763 7 -95654533.342 8
  24804211.852    24804216.721   -16495043.570 9   7684274.496 8
 86  6 12  4  2 17.0800000  0  4G12G13G 9G 7
  21027572.522    21027580.231     6626824.101 7 -19192407.779 7
  21604374.741    21604378.583    35203888.567 9 -40879445.258 8
  23751074.963    23751082.295    78349338.107 7 -95635312.042 7
  24801822.772    24801828.030   -16507599.374 9   7674490.750 8
 86  6 12  4  2 23.0800000  0  4G12G13G 9G 7
  21028833.291    21028840.700     6633448.342 8 -19187246.048 7
  21606089.000    21606092.137    35212897.146 9 -40872425.578 7
  23755770.624    23755776.240    78374010.140 8 -95616087.099 8
  24799435.888    24799441.636   -16520139.113 9   7664719.532 8
 86  6 12  4  2 29.0800000  0  4G12G13G 9G 7
  21030097.966    21030105.575     6640097.881 7 -19182064.569 8
  21607803.874    21607805.974    35221909.347 8 -40865403.068 8
  23760468.998    23760473.626    78398686.773 7 -95596858.553 9
                  24797059.227                     7654964.263 8
 86  6 12  4  2 35.0800000  0  4G12G13G 9G 7
  21031368.780    21031375.488     6646772.716 9 -19176863.409 9
  21609518.785    21609523.478    35230925.138 9 -40858377.773 9
  23765163.979    23765170.367    78423367.841 7 -95577626.559 7
  24794608.976    24794682.339   -16568964.481 9   7645230.514 8
 86  6 12  4  2 41.0800000  0  4G12G13G 9G 7
  21032644.516    21032651.410     6653472.871 8 -19171642.511 8
  21611235.720    21611239.258    35239944.525 9 -40851349.667 8
  23769860.163    23769867.740    78448053.418 7 -95558391.037 7
  24792304.674    24792310.229   -16581423.363 9   7635522.330 8
 86  6 12  4  2 47.0800000  0  4G12G13G 9G 7
  21033924.129    21033929.622     6660198.246 9 -19166401.952 8
  21612952.515    21612956.764    35248967.452 9 -40844318.813 7
  23774558.745    23774566.199    78472743.443 8 -95539152.063 7
  24789941.053    24789946.340   -16593850.329 9   7625838.587 8
 86  6 12  4  2 53.0800000  0  4G12G13G 9G 7
  21035208.294    21035215.417     6666948.824 7 -19161141.773 7
  21614670.297    21614673.699    35257993.929 9 -40837285.196 8
  23779257.131    23779264.879    78497437.778 7 -95519909.735 8
  24787581.671    24787585.730   -16606250.414 9   7616176.185 8
 86  6 12  4  2 59.0800000  0  4G12G13G 9G 7
  21036497.610    21036504.561     6673724.523 8 -19155861.985 8
  21616389.333    21616392.166    35267023.926 9 -40830248.821 7
  23783959.175    23783965.349    78522136.476 7 -95500663.996 8
  24785226.431    24785231.690   -16618627.738 9   7606531.514 9
 86  6 12  4  3  5.0800000  0  4G12G13G 9G 7
  21037792.148    21037798.455     6680525.387 8 -19150562.614 8
  21618107.591    21618111.451    35276057.363 9 -40823209.767 8
  23788658.908    23788666.484    78546839.369 8 -95481414.980 8
  24782874.269    24782878.403   -16630985.589 9   7596902.011 8
 86  6 12  4  3 11.0800000  0  4G12G13G 9G 7
  21039090.694    21039097.358     6687351.375 8 -19145243.664 8
  21619827.076    21619830.761    35285094.213 9 -40816168.055 8
  23793360.823    23793366.760    78571546.562 8 -95462162.612 8
  24780525.444    24780531.922   -16643326.421 9   7587285.781 8
 86  6 12  4  3 17.0800000  0  4G12G13G 9G 7
  21040395.291    21040402.213     6694202.467 9 -19139905.169 7
  21621548.168    21621550.537    35294134.477 9 -40809123.690 7
  23798063.546    23798070.212    78596258.000 8 -95442906.945 9
  24778179.923    24778184.860   -16655651.773 9   7577681.604 9
 86  6 12  4  3 23.0800000  0  4G12G13G 9G 7
  21041703.396    21041708.728     6701078.803 8 -19134546.972 8
  21623268.391    21623272.125    35303178.284 8 -40802076.563 8
  23802765.876    23802773.344    78620973.751 8 -95423647.928 8
  24775837.441    24775843.140   -16667960.861 9   7568090.115 8
 86  6 12  4  3 29.0800000  0  4G12G13G 9G 7
  21043016.507    21043022.914     6707980.337 8 -19129169.155 7
  21624988.356    21624994.359    35312225.724 9 -40795026.604 8
  23807470.451    23807477.928    78645693.788 8 -95404385.569 9
                  24773504.835                     7558515.206 8
 86  6 12  4  3 35.0800000  0  4G12G13G 9G 7
  21044334.269    21044340.361     6714906.980 8 -19123771.785 7
  21626710.786    21626717.553    35321276.618 9 -40787973.960 8
  23812175.207    23812183.018    78670417.990 8 -95385119.953 9
  24771105.417    24771171.382   -16716558.181 8   7548962.233 8
 86  6 12  4  3 41.0800000  0  4G12G13G 9G 7
  21045657.912    21045663.876     6721858.865 9 -19118354.730 7
  21628432.754    21628440.097    35330331.068 8 -40780918.555 9
  23816880.391    23816889.362    78695146.469 7 -95365851.019 8
  24768840.558    24768845.256   -16728784.942 9   7539434.998 8
 86  6 12  4  3 47.0800000  0  4G12G13G 9G 7
  21046984.876    21046991.569     6728836.064 9 -19112917.949 7
  21630156.105    21630163.257    35339389.109 9 -40773860.340 9
  23821586.291    23821593.916    78719879.241 7 -95346578.718 9
  24766519.711    24766524.308   -16740979.938 9   7529932.404 8
 86  6 12  4  3 53.0800000  0  4G12G13G 9G 7
  21048318.077    21048324.613     6735838.433 8 -19107461.552 7
  21631881.032    21631888.956    35348450.673 9 -40766799.397 8
  23826293.772    23826302.478    78744616.202 7 -95327303.176 7
  24764203.901    24764208.916   -16753147.407 8   7520451.265 8
 86  6 12  4  3 59.0800000  0  4G12G13G 9G 7
  21049655.571    21049659.946     6742865.996 7 -19101985.537 8
  21633606.188    21633614.144    35357515.677 8 -40759735.754 8
  23831001.603    23831009.086    78769357.345 7 -95308024.370 8
  24761894.236    24761898.021   -16765292.065 9   7510987.898 9
 86  6 12  4  4  5.0800000  0  4G12G13G 9G 7
  21050998.246    21051004.039     6749918.807 8 -19096489.827 7
  21635331.304    21635338.809    35366584.219 8 -40752669.368 8
  23835711.953    23835719.587    78794102.798 7 -95288742.193 9
  24759586.793    24759591.233   -16777417.069 9   7501539.844 8
 86  6 12  4  4 11.0800000  0  4G12G13G 9G 7
  21052344.055    21052351.450     6756996.756 8 -19090974.549 7
  21637059.411    21637065.535    35375656.335 9 -40745600.188 8
  23840420.386    23840428.585    78818852.354 8 -95269456.836 9
  24757283.360    24757287.700   -16789524.673 9   7492105.333 8
 86  6 12  4  4 17.0800000  0  4G12G13G 9G 7
  21053695.730    21053701.980     6764099.892 8 -19085439.629 7
  21638786.099    21638793.013    35384731.918 8 -40738528.314 9
  23845132.031    23845138.448    78843606.010 7 -95250168.283 8
  24754982.024    24754985.881   -16801616.447 9   7482683.176 8
 86  6 12  4  4 23.0800000  0  4G12G13G 9G 7
  21055052.242    21055059.322     6771228.249 8 -19079885.070 6
  21640514.223    21640521.284    35393811.036 9 -40731453.678 8
  23849841.908    23849850.329    78868363.753 8 -95230876.524 9
  24752683.914    24752688.114   -16813691.523 9   7473274.025 8
 86  6 12  4  4 29.0800000  0  4G12G13G 9G 7
  21056412.961    21056419.409     6778381.734 8 -19074310.941 7
  21642243.117    21642248.682    35402893.610 8 -40724376.340 8
  23854554.112    23854561.938    78893125.475 7 -95211581.684 8
                  24750394.604                     7463881.734 9
 86  6 12  4  4 35.0800000  0  4G12G13G 9G 7
  21057779.989    21057787.026     6785560.405 8 -19068717.170 7
  21643973.012    21643977.977    35411979.716 9 -40717296.261 7
  23859267.581    23859273.783    78917891.266 8 -95192283.651 8
  24748102.784    24748106.863   -16862051.038 9   7454511.960 8
 86  6 12  4  4 41.0800000  0  4G12G13G 9G 7
  21059150.179    21059157.332     6792764.102 8 -19063103.893 6
  21645702.672    21645707.551    35421069.341 9 -40710213.433 8
  23863981.023    23863987.997    78942661.065 7 -95172982.522 8
  24745819.570    24745824.639   -16874042.406 9   7445168.026 8
 86  6 12  4  4 47.0800000  0  4G12G13G 9G 7
  21060527.254    21060531.988     6799992.895 8 -19057471.083 7
  21647434.088    21647437.697    35430162.354 9 -40703127.971 8
  23868695.085    23868701.788    78967434.761 7 -95153678.349 8
  24743544.616    24743548.333   -16886002.621 9   7435848.778 8
 86  6 12  4  4 53.0800000  0  4G12G13G 9G 7
  21061907.075    21061911.822     6807246.687 9 -19051818.775 8
  21649164.552    21649168.658    35439258.758 9 -40696039.854 9
  23873412.441    23873418.134    78992212.478 7 -95134371.056 8
  24741272.659    24741277.575   -16897934.898 9   7426550.897 8
 86  6 12  4  4 59.0800000  0  4G12G13G 9G 7
  21063292.377    21063297.840     6814525.458 9 -19046147.011 9
  21650896.175    21650900.986    35448358.546 9 -40688949.100 9
  23878125.952    23878133.300    79016994.061 7 -95115060.730 8
  24739005.175    24739010.884   -16909844.272 9   7417270.857 8
 86  6 12  4  5  5.0800000  0  4G12G13G 9G 7
  21064680.812    21064687.493     6821829.243 9 -19040455.740 8
  21652627.716    21652632.746    35457461.618 9 -40681855.798 9
  23882842.942    23882849.387    79041779.340 7 -95095747.510 8
  24736741.346    24736748.007   -16921734.119 9   7408006.047 9
 86  6 12  4  5 11.0800000  0  4G12G13G 9G 7
  21066076.073    21066082.409     6829158.030 8 -19034744.984 8
  21654361.629    21654365.338    35466568.095 9 -40674759.833 8
  23887560.274    23887567.786    79066568.473 8 -95076431.320 8
  24734482.433    24734489.445   -16933606.656 9   7398754.719 8
 86  6 12  4  5 17.0800000  0  4G12G13G 9G 7
  21067475.827    21067482.592     6836511.785 9 -19029014.801 8
  21656094.683    21656099.481    35475677.878 9 -40667661.292 8
  23892278.023    23892285.484    79091361.407 8 -95057112.147 7
  24732226.174    24732232.710   -16945463.254 9   7389515.828 8
 86  6 12  4  5 23.0800000  0  4G12G13G 9G 7
  21068879.273    21068886.239     6843890.513 9 -19023265.148 7
  21657829.165    21657832.760    35484791.069 9 -40660560.087 8
  23896996.300    23897003.688    79116158.103 8 -95037790.035 7
  24729972.770    24729980.118   -16957302.852 8   7380290.180 7
 86  6 12  4  5 29.0800000  0  4G12G13G 9G 7
  21070287.441    21070295.236     6851294.168 8 -19017496.063 8
  21659563.350    21659567.911    35493907.530 9 -40653456.362 9
  23901717.181    23901723.033    79140958.516 8 -95018465.041 9
                  24727731.197                     7371081.982 8
 86  6 12  4  5 35.0800000  0  4G12G13G 9G 7
  21071702.506    21071709.443     6858722.780 8 -19011707.538 8
  21661298.432    21661304.538    35503027.341 9 -40646350.010 9
  23906436.496    23906442.819    79165762.510 7 -94999137.264 8
  24725384.943    24725487.555   -17005433.518 9   7361896.580 8
 86  6 12  4  5 41.0800000  0  4G12G13G 9G 7
  21073121.806    21073126.539     6866176.332 8 -19005899.567 7
  21663034.009    21663039.967    35512150.566 9 -40639241.002 9
  23911156.554    23911164.202    79190570.412 7 -94979806.416 8
  24723246.219    24723252.105   -17017187.873 9   7352737.325 7
 86  6 12  4  5 47.0800000  0  4G12G13G 9G 7
  21074544.339    21074549.731     6873654.902 9 -19000072.128 7
  21664770.432    21664776.628    35521277.178 9 -40632129.368 8
  23915878.273    23915885.784    79215381.871 8 -94960472.807 7
  24721016.078    24721019.602   -17028910.176 9   7343602.672 8
 86  6 12  4  5 53.0800000  0  4G12G13G 9G 7
  21075971.181    21075978.247     6881158.358 9 -18994225.272 8
  21666507.432    21666513.903    35530407.197 9 -40625015.063 8
  23920600.156    23920607.124    79240197.000 9 -94941136.353 7
  24718789.987    24718795.618   -17040605.608 9   7334489.339 8
 86  6 12  4  5 59.0800000  0  4G12G13G 9G 7
  21077404.719    21077411.742     6888686.809 9 -18988358.945 7
  21668245.488    21668251.261    35539540.531 8 -40617898.194 8
  23925324.443    23925330.260    79265015.818 9 -94921797.012 7
  24716568.149    24716573.292   -17052278.228 9   7325393.798 8
 86  6 12  4  6  5.0800000  0  4G12G13G 9G 7
  21078840.932    21078848.127     6896240.160 9 -18982473.210 7
  21669983.822    21669990.275    35548677.169 9 -40610778.735 9
  23930048.201    23930054.010    79289838.122 9 -94902454.947 7
  24714351.372    24714356.678   -17063931.288 8   7316313.506 9
 86  6 12  4  6 11.0800000  0  4G12G13G 9G 7
  21080283.929    21080289.321     6903818.369 8 -18976568.117 8
  21671722.994    21671728.846    35557817.036 9 -40603656.760 9
  23934772.989    23934778.047    79314664.048 8 -94883110.063 8
  24712137.247    24712142.764   -17075566.878 9   7307246.819 7
 86  6 12  4  6 17.0800000  0  4G12G13G 9G 7
  21081730.718    21081737.296     6911421.491 9 -18970643.612 7
  21673463.660    21673469.523    35566960.223 9 -40596532.198 8
  23939497.512    23939503.070    79339493.561 9 -94863762.384 7
  24709925.904    24709931.650   -17087186.305 9   7298192.719 8
 86  6 12  4  6 23.0800000  0  4G12G13G 9G 7
  21083182.643    21083188.993     6919049.449 9 -18964699.776 7
  21675204.953    21675209.659    35576106.591 9 -40589405.155 8
  23944223.187    23944228.202    79364326.391 8 -94844412.125 7
  24707718.866    24707723.548   -17098788.311 9   7289152.208 8
 86  6 12  4  6 29.0800000  0  4G12G13G 9G 7
  21084639.005    21084644.896     6926702.207 9 -18958736.570 7
  21676946.078    21676950.138    35585256.141 9 -40582275.631 9
  23948949.428    23948954.994    79389162.786 9 -94825059.079 8
                  24705520.745                     7280129.443 8
 86  6 12  4  6 35.0800000  0  4G12G13G 9G 7
  21086099.229    21086106.609     6934379.811 8 -18952754.015 7
  21678687.733    21678691.123    35594408.906 9 -40575143.600 8
  23953675.274    23953681.813    79414002.509 9 -94805703.456 8
  24703319.390    24703322.638   -17146681.390 9   7271129.915 8
 86  6 12  4  6 41.0800000  0  4G12G13G 9G 7
  21087565.248    21087571.441     6942082.257 9 -18946752.109 7
  21680430.452    21680434.989    35603564.791 9 -40568009.138 8
  23958402.423    23958408.354    79438845.619 9 -94786345.191 8
  24701126.864    24701132.102   -17158197.214 9   7262156.559 8
 86  6 12  4  6 47.0800000  0  4G12G13G 9G 7
  21089035.819    21089041.968     6949809.469 9 -18940730.917 7
  21682172.990    21682177.189    35612723.917 9 -40560872.158 8
  23963130.110    23963136.747    79463692.062 9 -94766984.334 8
  24698941.679    24698946.498   -17169681.879 9   7253207.862 8
 86  6 12  4  6 53.0800000  0  4G12G13G 9G 7
  21090511.311    21090517.561     6957561.470 8 -18934690.380 8
  21683916.189    21683921.587    35621886.271 9 -40553732.649 9
  23967860.249    23967866.487    79488541.887 9 -94747620.821 7
  24696760.042    24696765.806   -17181138.845 9   7244280.359 7
 86  6 12  4  6 59.0800000  0  4G12G13G 9G 7
  21091990.610    21091996.845     6965338.315 9 -18928630.507 7
  21685660.376    21685665.463    35631051.840 9 -40546590.647 8
  23972589.222    23972595.732    79513395.092 9 -94728254.690 7
  24694584.108    24694589.586   -17192573.029 9   7235370.605 8
 86  6 12  4  7  5.0800000  0  4G12G13G 9G 7
  21093474.860    21093482.713     6973140.065 9 -18922551.226 7
  21687405.300    21687410.329    35640220.699 9 -40539446.069 8
  23977319.162    23977325.428    79538251.662 8 -94708885.933 8
  24692410.477    24692418.996   -17203987.293 9   7226476.383 8
 86  6 12  4  7 11.0800000  0  4G12G13G 9G 7
  21094964.747    21094972.043     6980966.677 8 -18916452.559 7
  21689151.290    21689155.718    35649392.896 9 -40532298.912 8
  23982049.465    23982056.290    79563111.723 9 -94689514.453 8
  24690243.204    24690249.275   -17215383.841 8   7217595.975 9
 86  6 12  4  7 17.0800000  0  4G12G13G 9G 7
  21096458.370    21096465.207     6988818.152 9 -18910334.541 7
  21690896.853    21690902.241    35658568.391 9 -40525149.150 8
  23986780.736    23986787.195    79587975.126 9 -94670140.369 8
  24688077.072    24688082.495   -17226764.055 9   7208728.285 7
 86  6 12  4  7 23.0800000  0  4G12G13G 9G 7
  21097958.217    21097962.863     6996694.370 9 -18904197.209 7
  21692643.455    21692647.965    35667747.202 9 -40517996.829 8
  23991513.401    23991520.190    79612841.810 9 -94650763.737 8
  24685915.761    24685921.264   -17238126.540 9   7199874.414 8
 86  6 12  4  7 29.0800000  0  4G12G13G 9G 7
  21099460.810    21099467.360     7004595.373 8 -18898040.595 8
  21694390.500    21694395.068    35676929.346 9 -40510841.914 9
  23996246.360    23996251.760    79637711.788 8 -94631384.529 8
                  24683763.287                     7191038.928 8
 86  6 12  4  7 35.0800000  0  4G12G13G 9G 7
  21100968.871    21100975.493     7012521.156 8 -18891864.666 7
  21696137.595    21696143.118    35686114.697 9 -40503684.497 8
  24000978.868    24000985.262    79662585.111 8 -94612002.727 8
  24681606.051    24681611.642   -17285780.242 9   7182227.287 8
 86  6 12  4  7 41.0800000  0  4G12G13G 9G 7
  21102482.211    21102487.687     7020471.721 9 -18885669.417 7
  21697885.113    21697890.267    35695303.324 9 -40496524.525 7
  24005713.092    24005719.108    79687461.583 9 -94592618.454 8
  24679459.436    24679465.608   -17297054.591 8   7173442.070 8
 86  6 12  4  7 47.0800000  0  4G12G13G 9G 7
  21103999.558    21104004.148     7028447.051 9 -18879454.885 8
  21699635.201    21699640.524    35704495.142 9 -40489362.066 8
  24010446.938    24010453.762    79712341.230 9 -94573231.710 6
  24677319.619    24677326.247   -17308296.803 9   7164681.521 8
 86  6 12  4  7 53.0800000  0  4G12G13G 9G 7
  21105521.612    21105527.476     7036447.042 8 -18873221.116 7
  21701383.928    21701390.399    35713690.070 8 -40482197.188 8
  24015183.832    24015188.381    79737224.075 9 -94553842.487 8
  24675184.115    24675191.945   -17319512.338 8   7155942.154 8
 86  6 12  4  7 59.0800000  0  4G12G13G 9G 7
  21107050.035    21107054.524     7044471.657 8 -18866968.179 7
  21703135.274    21703139.881    35722888.175 9 -40475029.842 8
  24019918.221    24019922.970    79762110.044 8 -94534450.819 7
  24673055.633    24673062.605   -17330705.040 8   7147220.576 8
 86  6 12  4  8  5.0800000  0  4G12G13G 9G 7
  21108580.245    21108586.611     7052520.849 9 -18860696.081 7
  21704886.728    21704891.619    35732089.350 9 -40467860.090 8
  24024654.435    24024660.672    79786998.941 9 -94515056.858 8
  24670928.995    24670935.497   -17341878.087 8   7138514.314 8
 86  6 12  4  8 11.0800000  0  4G12G13G 9G 7
  21110117.568    21110124.419     7060594.703 9 -18854404.772 6
  21706638.049    21706643.065    35741293.651 9 -40460687.908 8
  24029391.858    24029396.786    79811890.910 9 -94495660.530 8
  24668806.634    24668812.501   -17353033.551 9   7129821.754 8
 86  6 12  4  8 17.0800000  0  4G12G13G 9G 7
  21111657.767    21111663.373     7068693.103 9 -18848094.328 7
  21708390.542    21708396.115    35750501.092 9 -40453513.280 8
  24034129.682    24034135.940    79836785.856 9 -94476261.867 7
  24666688.498    24666693.380   -17364172.402 9   7121142.146 7
 86  6 12  4  8 23.0800000  0  4G12G13G 9G 7
  21113204.619    21113210.168     7076816.195 9 -18841764.629 7
  21710144.374    21710147.572    35759711.662 9 -40446336.201 8
  24038866.596    24038872.412    79861683.767 9 -94456860.893 8
  24664573.288    24664578.128   -17375293.099 9   7112476.667 7
 86  6 12  4  8 29.0800000  0  4G12G13G 9G 7
  21114754.333    21114760.884     7084964.009 9 -18835415.698 8
  21711896.602    21711902.279    35768925.349 9 -40439156.698 9
  24043605.644    24043611.817    79886584.671 8 -94437457.587 8
                  24662465.998                     7103829.867 8
 86  6 12  4  8 35.0800000  0  4G12G13G 9G 7
  21116308.855    21116316.236     7093136.432 8 -18829047.570 8
  21713650.082    21713655.724    35778142.136 9 -40431974.789 8
  24048344.140    24048350.227    79911488.525 9 -94418051.986 7
  24660355.947    24660361.396   -17422707.056 8   7095207.249 7
 86  6 12  4  8 41.0800000  0  4G12G13G 9G 7
  21117868.358    21117875.938     7101333.461 9 -18822660.288 7
  21715405.137    21715410.238    35787362.066 9 -40424790.427 8
  24053084.718    24053088.973    79936395.270 8 -94398644.120 7
  24658257.304    24658260.086   -17433738.626 9   7086611.177 8
 86  6 12  4  8 47.0800000  0  4G12G13G 9G 7
  21119432.667    21119440.506     7109555.072 7 -18816253.820 6
  21717160.078    21717164.663    35796585.126 9 -40417603.628 8
  24057823.879    24057829.416    79961304.964 8 -94379233.966 8
  24656163.541    24656167.457   -17444739.036 9   7078039.819 7
 86  6 12  4  8 53.0800000  0  4G12G13G 9G 7
  21121002.915    21121008.935     7117801.265 8 -18809828.233 7
  21718915.644    21718920.516    35805811.295 9 -40410414.398 8
  24062564.171    24062570.165    79986217.429 9 -94359821.668 8
  24654075.196    24654079.737   -17455711.933 9   7069489.523 8
 86  6 12  4  8 59.0800000  0  4G12G13G 9G 7
  21122577.599    21122582.631     7126071.916 8 -18803383.573 7
  21720671.675    21720677.058    35815040.539 9 -40403222.769 9
  24067305.207    24067311.866    80011132.796 9 -94340407.102 8
  24651990.605    24651995.921   -17466661.996 9   7060957.001 8
 86  6 12  4  9  5.0800000  0  4G12G13G 9G 7
  21124155.760    21124163.627     7134367.111 8 -18796919.772 7
  21722428.518    21722433.991    35824272.831 9 -40396028.787 8
  24072046.429    24072055.186    80036050.916 8 -94320990.380 7
  24649910.979    24649915.854   -17477592.192 9   7052439.966 8
 86  6 12  4  9 11.0800000  0  4G12G13G 9G 7
  21125738.456    21125745.194     7142686.892 8 -18790436.832 7
  21724186.213    21724190.960    35833508.161 9 -40388832.413 8
  24076788.216    24076795.657    80060971.923 7 -94301571.411 7
  24647833.284    24647839.382   -17488504.693 9   7043936.717 7
 86  6 12  4  9 17.0800000  0  4G12G13G 9G 7
  21127326.105    21127333.542     7151031.274 9 -18783934.735 7
  21725943.335    21725949.366    35842746.636 9 -40381633.604 8
  24081531.771    24081538.203    80085895.657 7 -94282150.335 7
  24645760.794    24645764.908   -17499400.386 9   7035446.559 7
 86  6 12  4  9 23.0800000  0  4G12G13G 9G 7
  21128918.360    21128924.753     7159400.234 8 -18777413.452 7
  21727702.010    21727707.203    35851988.269 8 -40374432.336 8
  24086276.585    24086280.926    80110822.150 8 -94262727.073 7
  24643691.349    24643695.652   -17510277.573 9   7026970.850 8
 86  6 12  4  9 29.0800000  0  4G12G13G 9G 7
  21130516.240    21130522.289     7167793.728 8 -18770873.057 7
  21729460.989    21729466.894    35861232.999 8 -40367228.642 8
  24091019.145    24091025.598    80135751.417 8 -94243301.661 7
                  24641631.143                     7018514.289 8
 86  6 12  4  9 35.0800000  0  4G12G13G 9G 7
  21132116.937    21132123.860     7176211.692 9 -18764313.611 7
  21731220.662    21731226.665    35870480.757 8 -40360022.614 8
  24095764.546    24095769.587    80160683.283 8 -94223874.226 7
  24639567.422    24639572.759   -17557445.260 9   7010082.262 7
 86  6 12  4  9 41.0800000  0  4G12G13G 9G 7
  21133724.031    21133730.953     7184654.091 8 -18757735.115 8
  21732980.517    21732986.598    35879731.522 8 -40352814.234 8
  24100509.551    24100515.303    80185617.754 8 -94204444.747 7
  24637514.111    24637520.006   -17568232.103 9   7001676.922 8
 86  6 12  4  9 47.0800000  0  4G12G13G 9G 7
  21135336.306    21135341.568     7193120.947 9 -18751137.561 7
  21734741.289    21734747.073    35888985.226 8 -40345603.553 8
  24105253.664    24105260.016    80210554.883 8 -94185013.226 6
  24635465.950    24635472.422   -17578987.413 9   6993296.182 8
 86  6 12  4  9 53.0800000  0  4G12G13G 9G 7
  21136951.657    21136957.763     7201612.176 9 -18744521.035 7
  21736503.491    21736508.912    35898241.857 8 -40338390.587 8
  24109999.795    24110005.009    80235494.521 8 -94165579.729 7
  24633424.111    24633431.530   -17589715.717 9   6984936.471 9
 86  6 12  4  9 59.0800000  0  4G12G13G 9G 7
  21138571.686    21138579.854     7210127.753 9 -18737885.510 8
  21738265.854    21738271.319    35907501.434 8 -40331175.337 8
  24114746.025    24114751.791    80260436.646 9 -94146144.304 7
  24631387.141    24631394.789   -17600421.415 7   6976594.380 8
 86  6 12  4 10  5.0800000  0  4G12G13G 9G 7
  21140198.055    21140202.430     7218667.758 9 -18731230.967 8
  21740027.594    21740033.793    35916764.074 9 -40323957.699 8
  24119494.151    24119499.424    80285381.391 8 -94126706.832 7
  24629353.973    24629360.698   -17611107.087 8   6968267.897 8
 86  6 12  4 10 11.0800000  0  4G12G13G 9G 7
  21141827.085    21141833.191     7227232.148 8 -18724557.421 8
  21741791.825    21741797.094    35926029.714 9 -40316737.708 8
  24124239.731    24124246.898    80310328.685 7 -94107267.392 7
  24627325.179    24627330.302   -17621774.974 9   6959955.264 7
 86  6 12  4 10 17.0800000  0  4G12G13G 9G 7
  21143461.853    21143468.532     7235820.912 9 -18717864.870 7
  21743556.363    21743560.877    35935298.317 9 -40309515.429 9
  24128988.673    24128992.756    80335278.480 7 -94087825.966 7
  24625298.204    24625303.634   -17632426.007 8   6951655.765 8
 86  6 12  4 10 23.0800000  0  4G12G13G 9G 7
  21145101.830    21145106.677     7244433.976 8 -18711153.389 7
  21745320.207    21745324.928    35944569.826 9 -40302290.864 8
  24133737.493    24133742.823    80360230.610 8 -94068382.744 7
  24623274.924    24623279.496   -17643058.017 9   6943371.092 7
 86  6 12  4 10 29.0800000  0  4G12G13G 9G 7
  21146745.441    21146750.718     7253071.396 9 -18704422.931 6
  21747084.702    21747089.652    35953844.229 9 -40295064.042 9
  24138486.306    24138491.928    80385185.264 6 -94048937.570 7
                  24621261.752                     6935106.027 7
 86  6 12  4 10 35.0800000  0  4G12G13G 9G 7
  21148393.760    21148397.963     7261733.213 9 -18697673.457 7
  21748851.275    21748855.847    35963121.681 9 -40287834.842 8
  24143234.433    24143239.961    80410142.312 6 -94029490.513 7
  24619245.072    24619248.456   -17689987.730 7   6926865.881 8
 86  6 12  4 10 41.0800000  0  4G12G13G 9G 7
  21150045.742    21150051.591     7270419.391 8 -18690905.021 7
  21750618.042    21750621.529    35972402.196 9 -40280603.281 8
  24147984.625    24147989.754    80435101.782 7 -94010041.566 6
  24617239.321    24617242.545   -17700528.301 9   6918652.435 8
 86  6 12  4 10 47.0800000  0  4G12G13G 9G 7
  21151702.189    21151708.223     7279129.903 9 -18684117.606 8
  21752384.748    21752388.543    35981685.618 9 -40273369.434 9
  24152734.418    24152739.884    80460063.701 6 -93990590.730 7
  24615239.820    24615244.180   -17711037.218 9   6910463.676 7
 86  6 12  4 10 53.0800000  0  4G12G13G 9G 7
  21153363.829    21153370.580     7287864.722 9 -18677311.263 8
  21754151.008    21754156.044    35990971.951 9 -40266133.327 8
  24157483.833    24157489.069    80485027.930 7 -93971138.091 7
  24613245.719    24613247.232   -17721519.159 9   6902295.924 8
 86  6 12  4 10 59.0800000  0  4G12G13G 9G 7
  21155031.565    21155038.289     7296623.829 9 -18670485.982 7
  21755919.816    21755921.546    36000261.216 9 -40258894.920 8
  24162234.184    24162242.769    80509994.322 7 -93951683.754 8
  24611254.588    24611257.317   -17731978.284 9   6894145.951 7
 86  6 12  4 11  5.0800000  0  4G12G13G 9G 7
  21156703.466    21156709.887     7305407.211 8 -18663641.792 7
  21757687.688    21757691.694    36009553.417 9 -40251654.242 8
  24166986.404    24166994.480    80534963.047 7 -93932227.624 7
  24609267.649    24609270.808   -17742417.441 9   6886011.542 8
 86  6 12  4 11 11.0800000  0  4G12G13G 9G 7
  21158379.502    21158385.524     7314214.822 9 -18656778.713 8
  21759456.652    21759459.705    36018848.510 9 -40244411.303 8
  24171738.393    24171743.930    80559934.049 7 -93912769.700 7
  24607283.958    24607289.407   -17752838.718 9   6877891.073 8
 86  6 12  4 11 17.0800000  0  4G12G13G 9G 7
  21160061.304    21160066.882     7323046.622 8 -18649896.797 7
  21761225.264    21761230.240    36028146.465 9 -40237166.140 8
  24176488.907    24176496.856    80584907.142 6 -93893310.144 7
  24605304.554    24605309.648   -17763242.953 9   6869783.865 8
 86  6 12  4 11 23.0800000  0  4G12G13G 9G 7
  21161745.368    21161751.245     7331902.625 8 -18642996.019 7
  21762994.056    21763000.354    36037447.245 9 -40229918.782 8
  24181244.176    24181250.591    80609882.452 7 -93873848.875 8
  24603327.707    24603332.086   -17773627.968 9   6861691.653 8
 86  6 12  4 11 29.0800000  0  4G12G13G 9G 7
  21163435.470    21163441.935     7340782.784 8 -18636076.398 8
  21764764.997    21764770.825    36046750.878 8 -40222669.195 9
  24185997.546    24186003.426    80634859.989 8 -93854385.853 9
                  24601359.846                     6853619.377 8
 86  6 12  4 11 35.0800000  0  4G12G13G 9G 7
  21165129.492    21165136.544     7349687.084 9 -18629137.994 7
  21766534.218    21766542.278    36056057.409 8 -40215417.355 8
  24190750.573    24190756.346    80659839.561 7 -93834921.263 8
  24599390.037    24599396.931   -17820311.472 8   6845572.295 8
 86  6 12  4 11 41.0800000  0  4G12G13G 9G 7
  21166829.295    21166833.700     7358615.524 9 -18622180.765 8
  21768304.686    21768313.183    36065366.840 9 -40208163.256 9
  24195501.118    24195511.148    80684821.603 7 -93815454.737 8
  24597431.971    24597437.730   -17830603.984 9   6837552.144 7
 86  6 12  4 11 47.0800000  0  4G12G13G 9G 7
  21168532.319    21168538.525     7367568.207 9 -18615204.646 8
  21770077.790    21770085.712    36074679.173 8 -40200906.907 8
  24200257.993    24200264.189    80709805.531 7 -93795986.746 7
  24595479.506    24595484.575   -17840864.987 9   6829556.563 8
 86  6 12  4 11 53.0800000  0  4G12G13G 9G 7
  21170241.152    21170246.842     7376545.058 8 -18608209.705 7
  21771850.033    21771857.884    36083994.408 8 -40193648.292 9
  24205012.652    24205019.878    80734791.447 8 -93776517.211 8
  24593532.136    24593538.482   -17851098.901 9   6821582.092 8
 86  6 12  4 11 59.0800000  0  4G12G13G 9G 7
  21171953.747    21171960.226     7385546.143 8 -18601195.883 7
  21773623.225    21773630.163    36093312.652 8 -40186387.330 9
  24209768.642    24209774.515    80759780.000 8 -93757045.587 7
  24591589.077    24591595.451   -17861309.888 9   6813625.475 8
 86  6 12  4 12  5.0800000  0  4G12G13G 9G 7
  21173669.977    21173677.673     7394571.442 8 -18594163.167 7
  21775397.671    21775405.243    36102633.774 8 -40179124.118 8
  24214525.103    24214529.910    80784770.200 8 -93737572.707 8
  24589649.191    24589655.457   -17871500.578 9   6805684.688 8
 86  6 12  4 12 11.0800000  0  4G12G13G 9G 7
  21175393.062    21175398.667     7403621.014 9 -18587111.557 7
  21777172.785    21777178.550    36111957.874 8 -40171858.592 9
  24219279.003    24219285.970    80809762.690 8 -93718098.031 8
  24587713.492    24587719.264   -17881673.251 9   6797757.945 8
 86  6 12  4 12 17.0800000  0  4G12G13G 9G 7
  21177119.709    21177125.158     7412694.786 9 -18580041.087 8
  21778947.843    21778954.009    36121284.891 9 -40164590.780 8
  24224036.687    24224042.460    80834757.291 8 -93698621.709 7
  24585781.119    24585788.657   -17891828.515 9   6789844.766 8
 86  6 12  4 12 23.0800000  0  4G12G13G 9G 7
  21178850.449    21178856.942     7421792.796 9 -18572951.723 7
  21780722.584    21780728.682    36130614.916 8 -40157320.622 8
  24228792.512    24228798.829    80859754.363 7 -93679143.481 7
  24583853.202    24583860.021   -17901963.913 9   6781947.064 8
 86  6 12  4 12 29.0800000  0  4G12G13G 9G 7
  21180586.941    21180593.077     7430914.968 8 -18565843.531 7
  21782498.848    21782504.810    36139947.934 8 -40150048.143 8
  24233550.039    24233555.891    80884752.533 8 -93659664.374 7
                  24581935.996                     6774069.950 7
 86  6 12  4 12 35.0800000  0  4G12G13G 9G 7
  21182327.511    21182332.444     7440061.307 9 -18558716.526 7
  21784276.872    21784281.870    36149283.743 9 -40142773.484 8
  24238306.787    24238312.939    80909752.886 9 -93640183.572 8
  24580013.635    24580017.655   -17948395.652 9   6766218.331 8
 86  6 12  4 12 41.0800000  0  4G12G13G 9G 7
  21184072.288    21184077.165     7449231.683 8 -18551570.773 7
  21786052.947    21786059.422    36158622.283 9 -40135496.689 8
  24243066.039    24243070.008    80934755.264 8 -93620701.215 7
  24578101.816    24578107.101   -17958437.349 9   6758393.635 7
 86  6 12  4 12 47.0800000  0  4G12G13G 9G 7
  21185821.945    21185826.750     7458426.082 9 -18544406.316 7
  21787832.048    21787836.640    36167963.523 8 -40128217.790 8
  24247823.680    24247828.615    80959759.178 8 -93601217.626 7
  24576197.320    24576202.808   -17968447.072 9   6750593.460 9
 86  6 12  4 12 53.0800000  0  4G12G13G 9G 7
  21187576.252    21187582.517     7467644.569 9 -18537223.081 7
  21789609.761    21789614.755    36177307.652 9 -40120936.639 8
  24252582.983    24252586.923    80984765.425 8 -93581732.228 7
  24574297.224    24574303.750   -17978430.265 9   6742814.347 8
 86  6 12  4 12 59.0800000  0  4G12G13G 9G 7
  21189334.036    21189340.830     7476887.021 9 -18530021.165 8
  21791388.548    21791392.654    36186654.548 9 -40113653.342 8
  24257340.402    24257346.618    81009773.295 8 -93562245.556 8
  24572402.881    24572407.473   -17988390.715 9   6735052.959 8
 86  6 12  4 13  5.0800000  0  4G12G13G 9G 7
  21191098.489    21191105.183     7486153.433 9 -18522800.592 7
  21793166.834    21793172.560    36196004.168 8 -40106367.922 8
  24262100.055    24262104.519    81034782.744 7 -93542757.666 7
  24570510.572    24570515.509   -17998331.066 9   6727307.233 8
 86  6 12  4 13 11.0800000  0  4G12G13G 9G 7
  21192865.559    21192873.398     7495443.754 9 -18515561.388 6
  21794945.491    21794952.098    36205356.515 9 -40099080.381 8
  24266859.235    24266865.422    81059794.298 8 -93523268.133 9
  24568622.507    24568628.563   -18008253.362 9   6719575.576 9
 86  6 12  4 13 17.0800000  0  4G12G13G 9G 7
  21194639.528    21194645.334     7504758.009 9 -18508303.517 7
  21796725.064    21796731.182    36214711.648 8 -40091790.671 8
  24271617.906    24271624.946    81084807.685 8 -93503777.200 7
  24566737.639    24566743.356   -18018158.054 9   6711857.638 8
 86  6 12  4 13 23.0800000  0  4G12G13G 9G 7
  21196416.457    21196421.362     7514096.184 9 -18501027.017 7
  21798506.395    21798511.885    36224069.437 9 -40084498.875 8
  24276378.568    24276385.543    81109822.360 6 -93484285.247 7
  24564856.446    24564862.284   -18028042.581 9   6704155.410 8
 86  6 12  4 13 29.0800000  0  4G12G13G 9G 7
  21198197.724    21198202.428     7523458.165 9 -18493731.975 8
  21800286.841    21800293.649    36233430.025 9 -40077204.914 8
  24281138.386    24281144.687    81134838.667 8 -93464792.020 8
                  24562986.152                     6696474.000 8
 86  6 12  4 13 35.0800000  0  4G12G13G 9G 7
  21199983.296    21199989.045     7532843.963 9 -18486418.349 8
  21802068.346    21802075.153    36242793.359 8 -40069908.814 8
  24285898.939    24285906.300    81159856.603 8 -93445297.531 8
  24561111.491    24561115.308   -18074225.570 9   6688818.418 8
 86  6 12  4 13 41.0800000  0  4G12G13G 9G 7
  21201773.076    21201778.324     7542253.598 9 -18479086.184 7
  21803851.314    21803857.516    36252159.326 8 -40062610.654 8
  24290659.557    24290667.490    81184876.030 8 -93425801.897 7
  24559247.376    24559253.314   -18084015.742 9   6681189.699 8
 86  6 12  4 13 47.0800000  0  4G12G13G 9G 7
  21203568.049    21203574.785     7551686.980 9 -18471735.490 7
  21805634.319    21805639.444    36261527.868 8 -40055310.487 8
  24295422.794    24295429.353    81209896.920 7 -93406305.091 9
  24557390.443    24557394.675   -18093775.126 9   6673585.383 7
 86  6 12  4 13 53.0800000  0  4G12G13G 9G 7
  21205367.559    21205374.567     7561144.120 8 -18464366.298 8
  21807418.195    21807423.704    36270899.020 8 -40048008.297 9
  24300183.927    24300191.223    81234919.192 7 -93386807.222 8
  24555537.417    24555541.659   -18103507.379 9   6666001.805 8
 86  6 12  4 13 59.0800000  0  4G12G13G 9G 7
  21207172.407    21207179.042     7570624.977 8 -18456978.622 7
  21809202.001    21809207.183    36280272.754 9 -40040704.101 8
  24304944.538    24304952.457    81259942.848 7 -93367308.264 8
  24553690.029    24553695.581   -18113216.801 9   6658436.033 7
 86  6 12  4 14  5.0800000  0  4G12G13G 9G 7
  21208981.561    21208987.410     7580129.664 9 -18449572.376 7
  21810986.454    21810993.214    36289649.087 9 -40033397.868 9
  24309708.404    24309714.463    81284968.065 8 -93347808.102 8
  24551845.821    24551851.484   -18122906.186 8   6650885.861 8
 86  6 12  4 14 11.0800000  0  4G12G13G 9G 7
  21210794.908    21210800.040     7589658.161 8 -18442147.566 8
  21812772.856    21812778.246    36299028.089 8 -40026089.556 8
  24314470.424    24314476.362    81309994.587 8 -93328306.908 9
  24550006.650    24550011.676   -18132577.391 9   6643349.851 8
 86  6 12  4 14 17.0800000  0  4G12G13G 9G 7
  21212613.449    21212618.883     7599210.439 9 -18434704.251 6
  21814557.252    21814562.740    36308409.845 8 -40018779.106 9
  24319233.582    24319239.206    81335022.780 8 -93308804.418 7
  24548169.182    24548174.791   -18142230.799 9   6635827.720 6
 86  6 12  4 14 23.0800000  0  4G12G13G 9G 7
  21214434.393    21214440.014     7608786.508 9 -18427242.358 7
  21816343.644    21816348.887    36317794.336 9 -40011466.516 8
  24323996.655    24324002.342    81360052.195 8 -93289300.989 8
  24546335.857    24546341.251   -18151863.609 9   6628321.648 8
 86  6 12  4 14 29.0800000  0  4G12G13G 9G 7
  21216261.806    21216268.270     7618386.449 8 -18419761.901 8
  21818129.713    21818136.281    36327181.571 9 -40004151.784 8
  24328759.606    24328765.536    81385083.305 9 -93269796.217 7
                  24544513.380                     6620836.955 8
 86  6 12  4 14 35.0800000  0  4G12G13G 9G 7
  21218091.007    21218098.703     7628010.261 9 -18412262.825 7
  21819916.863    21819922.977    36336571.593 9 -39996834.884 8
  24333524.030    24333528.701    81410115.762 8 -93250290.402 8
  24542686.695    24542691.412   -18197793.159 9   6613378.995 8
 86  6 12  4 14 41.0800000  0  4G12G13G 9G 7
  21219927.764    21219936.174     7637657.898 9 -18404745.204 7
  21821704.235    21821709.032    36345964.347 9 -39989515.856 8
  24338286.344    24338292.918    81435149.760 8 -93230783.376 9
  24540872.600    24540876.929   -18207330.483 9   6605947.203 8
 86  6 12  4 14 47.0800000  0  4G12G13G 9G 7
  21221769.029    21221776.166     7647329.341 7 -18397208.994 8
  21823491.962    21823497.681    36355359.863 9 -39982194.655 8
  24343050.632    24343057.750    81460185.048 8 -93211275.373 8
  24539062.594    24539069.112   -18216835.803 9   6598540.469 7
 86  6 12  4 14 53.0800000  0  4G12G13G 9G 7
  21223613.597    21223619.848     7657024.590 9 -18389654.271 7
  21825280.138    21825283.879    36364758.137 9 -39974871.301 7
  24347814.713    24347821.073    81485221.794 9 -93191766.215 7
  24537260.141    24537262.981   -18226314.302 9   6591154.622 8
 86  6 12  4 14 59.0800000  0  4G12G13G 9G 7
  21225462.617    21225470.141     7666743.584 9 -18382081.023 7
  21827069.306    21827074.339    36374159.102 9 -39967545.869 7
  24352579.395    24352585.089    81510259.927 8 -93172255.986 7
  24535460.553    24535465.861   -18235769.936 9   6583786.604 7
 86  6 12  4 15  5.0800000  0  4G12G13G 9G 7
  21227317.518    21227323.782     7676486.218 8 -18374489.349 7
  21828859.261    21828861.746    36383562.775 9 -39960218.318 8
  24357343.605    24357350.509    81535299.279 7 -93152744.811 8
  24533665.214    24533670.755   -18245205.254 9   6576434.410 8
 86  6 12  4 15 11.0800000  0  4G12G13G 9G 7
  21229176.755    21229181.573     7686252.511 8 -18366879.257 7
  21830649.054    21830652.157    36392969.095 8 -39952888.697 7
  24362108.480    24362115.520    81560339.820 7 -93133232.695 9
  24531874.098    24531878.322   -18254622.314 9   6569096.437 7
 86  6 12  4 15 17.0800000  0  4G12G13G 9G 7
  21231038.194    21231045.633     7696042.512 9 -18359250.696 7
  21832439.449    21832443.330    36402378.079 9 -39945557.022 8
  24366874.285    24366880.408    81585381.623 9 -93113719.602 8
  24530085.548    24530089.616   -18264021.454 9   6561772.443 8
 86  6 12  4 15 23.0800000  0  4G12G13G 9G 7
  21232905.774    21232914.070     7705856.093 9 -18351603.748 7
  21834230.971    21834234.756    36411789.670 9 -39938223.295 8
  24371639.905    24371646.715    81610424.615 9 -93094205.588 8
  24528301.486    24528305.910   -18273399.583 9   6554464.812 8
 86  6 12  4 15 29.0800000  0  4G12G13G 9G 7
  21234777.817    21234783.938     7715693.335 8 -18343938.369 7
  21836021.394    21836024.177    36421203.853 9 -39930887.569 8
  24376404.866    24376413.522    81635468.772 8 -93074690.659 7
                  24526527.192                     6547178.911 8
 86  6 12  4 15 35.0800000  0  4G12G13G 9G 7
  21236653.866    21236661.332     7725554.188 8 -18336254.589 7
  21837813.517    21837815.394    36430620.661 9 -39923549.792 7
  24381170.857    24381177.603    81660514.156 8 -93055174.792 8
  24524748.421    24524750.302   -18319075.071 9   6539919.509 8
 86  6 12  4 15 41.0800000  0  4G12G13G 9G 7
  21238535.640    21238541.933     7735438.606 9 -18328552.460 7
  21839606.555    21839609.346    36440040.037 9 -39916210.020 7
  24385937.742    24385944.438    81685560.568 8 -93035658.103 8
  24522982.040    24522986.698   -18328356.467 9   6532687.260 9
 86  6 12  4 15 47.0800000  0  4G12G13G 9G 7
  21240420.704    21240429.058     7745346.578 9 -18320831.955 7
  21841397.823    21841403.042    36449461.960 9 -39908868.254 8
  24390704.063    24390710.500    81710608.045 8 -93016140.576 8
  24521221.985    24521227.001   -18337606.425 9   6525479.507 8
 86  6 12  4 15 53.0800000  0  4G12G13G 9G 7
  21242310.405    21242318.387     7755278.057 8 -18313093.144 7
  21843191.001    21843195.954    36458886.492 8 -39901524.457 8
  24395470.111    24395478.196    81735656.546 8 -92996622.278 8
  24519466.762    24519471.320   -18346829.839 9   6518292.436 8
 86  6 12  4 15 59.0800000  0  4G12G13G 9G 7
  21244204.857    21244212.437     7765233.160 9 -18305335.916 6
  21844983.600    21844989.998    36468313.657 7 -39894178.624 8
  24400236.925    24400243.671    81760706.030 8 -92977103.179 8
  24517715.553    24517719.994   -18356030.359 9   6511123.197 8
 86  6 12  4 16  5.0800000  0  4G12G13G 9G 7
  21246103.844    21246110.753     7775211.822 9 -18297560.339 7
  21846778.132    21846784.768    36477743.411 8 -39886830.767 8
  24405003.797    24405010.177    81785756.465 8 -92957583.358 8
  24515967.857    24515974.279   -18365210.461 9   6503969.866 8
 86  6 12  4 16 11.0800000  0  4G12G13G 9G 7
  21248007.454    21248014.734     7785213.954 9 -18289766.477 8
  21848574.509    21848580.712    36487175.767 8 -39879480.878 8
  24409770.782    24409778.015    81810807.981 8 -92938062.693 8
  24514223.616    24514230.604   -18374372.263 9   6496830.806 8
 86  6 12  4 16 17.0800000  0  4G12G13G 9G 7
  21249915.141    21249922.893     7795239.637 9 -18281954.263 7
  21850368.578    21850375.296    36496610.750 9 -39872128.951 8
  24414539.486    24414545.014    81835860.526 8 -92918541.229 7
  24512483.637    24512490.724   -18383515.928 9   6489705.890 8
 86  6 12  4 16 23.0800000  0  4G12G13G 9G 7
  21251828.366    21251833.199     7805288.867 8 -18274123.687 7
  21852165.025    21852171.960    36506048.363 9 -39864774.965 8
  24419306.342    24419312.831    81860913.986 9 -92899019.055 8
  24510748.022    24510755.008   -18392638.064 9   6482597.720 9
 86  6 12  4 16 29.0800000  0  4G12G13G 9G 7
  21253744.381    21253749.628     7815361.559 8 -18266274.837 8
  21853962.972    21853968.198    36515488.550 9 -39857418.969 9
  24424074.509    24424082.421    81885968.456 8 -92879496.075 9
                  24509023.700                     6475511.757 8
 86  6 12  4 16 35.0800000  0  4G12G13G 9G 7
  21255665.790    21255672.384     7825457.623 9 -18258407.767 7
  21855758.507    21855765.722    36524931.338 9 -39850060.957 8
  24428841.544    24428850.193    81911023.766 8 -92859972.453 7
  24507293.592    24507299.859   -18438061.661 9   6468452.477 8
 86  6 12  4 16 41.0800000  0  4G12G13G 9G 7
  21257591.264    21257598.372     7835577.200 9 -18250522.402 8
  21857556.438    21857562.241    36534376.648 9 -39842700.976 8
  24433610.576    24433617.737    81936079.970 8 -92840448.147 8
  24505576.820    24505581.459   -18447086.229 9   6461420.361 7
 86  6 12  4 16 47.0800000  0  4G12G13G 9G 7
  21259521.731    21259527.738     7845720.189 8 -18242618.766 7
  21859354.564    21859360.953    36543824.439 9 -39835339.061 8
  24438379.157    24438386.461    81961136.954 8 -92820923.223 7
  24503864.540    24503870.635   -18456079.059 9   6454412.578 8
 86  6 12  4 16 53.0800000  0  4G12G13G 9G 7
  21261457.036    21261462.141     7855886.516 8 -18234696.961 7
  21861153.960    21861158.731    36553274.732 9 -39827975.187 8
  24443145.563    24443153.576    81986194.699 7 -92801397.707 8
  24502158.827    24502164.339   -18465045.676 9   6447425.603 8
 86  6 12  4 16 59.0800000  0  4G12G13G 9G 7
  21263396.361    21263401.867     7866076.148 9 -18226756.990 7
  21862952.238    21862957.640    36562727.482 9 -39820609.410 9
  24447914.003    24447922.243    82011253.012 8 -92781871.754 8
  24500456.323    24500463.347   -18473989.476 9   6440456.429 8
 86  6 12  4 17  5.0800000  0  4G12G13G 9G 7
  21265338.362    21265344.369     7876289.068 9 -18218798.877 7
  21864752.203    21864756.316    36572182.683 9 -39813241.714 8
  24452683.048    24452690.653    82036312.175 8 -92762345.129 8
  24498758.712    24498764.811   -18482913.065 8   6433502.984 7
 86  6 12  4 17 11.0800000  0  4G12G13G 9G 7
  21267286.802    21267291.793     7886525.282 8 -18210822.601 7
  21866551.498    21866557.260    36581640.304 8 -39805872.132 8
  24457452.638    24457457.988    82061371.891 8 -92742818.068 8
  24497064.629    24497069.461   -18491818.245 8   6426563.894 8
 86  6 12  4 17 17.0800000  0  4G12G13G 9G 7
  21269238.762    21269245.026     7896784.866 9 -18202828.125 8
  21868351.666    21868357.064    36591100.425 9 -39798500.607 8
  24462220.511    24462228.502    82086432.418 8 -92723290.404 7
  24495373.569    24495379.211   -18500704.959 8   6419639.175 8
 86  6 12  4 17 23.0800000  0  4G12G13G 9G 7
  21271195.888    21271201.664     7907067.805 8 -18194815.452 8
  21870152.632    21870157.800    36600563.098 9 -39791127.092 8
  24466988.978    24466997.835    82111493.579 8 -92703762.205 7
  24493687.059    24493692.594   -18509569.716 9   6412731.576 8
 86  6 12  4 17 29.0800000  0  4G12G13G 9G 7
  21273157.120    21273162.939     7917374.120 8 -18186784.550 8
  21871953.358    21871959.499    36610028.384 8 -39783751.532 8
  24471757.623    24471766.459    82136555.555 7 -92684233.407 8
                  24492010.709                     6405846.516 8
 86  6 12  4 17 35.0800000  0  4G12G13G 9G 7
  21275122.774    21275129.081     7927703.758 8 -18178735.477 7
  21873754.824    21873760.168    36619496.222 9 -39776373.988 7
  24476526.526    24476535.705    82161618.196 6 -92664704.071 8
  24490330.592    24490336.932   -18554736.202 9   6398988.475 8
 86  6 12  4 17 41.0800000  0  4G12G13G 9G 7
  21277092.233    21277099.199     7938056.753 9 -18170668.234 7
  21875556.927    21875562.182    36628966.671 9 -39768994.416 8
  24481296.518    24481303.836    82186681.572 7 -92645174.182 7
  24488662.909    24488667.707   -18563502.230 9   6392157.814 9
 86  6 12  4 17 47.0800000  0  4G12G13G 9G 7
  21279067.632    21279072.780     7948433.067 9 -18162582.780 7
  21877357.181    21877365.047    36638439.690 8 -39761612.845 8
  24486066.902    24486075.650    82211745.531 7 -92625643.846 8
  24487001.823    24487004.911   -18572237.388 9   6385351.588 8
 86  6 12  4 17 53.0800000  0  4G12G13G 9G 7
  21281046.235    21281052.514     7958832.751 8 -18154479.138 8
  21879159.884    21879167.229    36647915.327 9 -39754229.237 8
  24490836.441    24490844.811    82236810.252 7 -92606112.891 7
  24485343.728    24485348.576   -18580945.387 9   6378566.132 8
 86  6 12  4 17 59.0800000  0  4G12G13G 9G 7
  21283029.790    21283035.053     7969255.756 9 -18146357.320 6
  21880963.755    21880971.439    36657393.511 8 -39746843.652 8
  24495606.969    24495615.339    82261875.539 7 -92586581.510 6
  24483691.285    24483696.368   -18589630.447 9   6371798.547 8
 86  6 12  4 18  5.0800000  0  4G12G13G 9G 7
  21285018.111    21285023.859     7979702.092 9 -18138217.325 7
  21882767.955    21882775.477    36666874.179 8 -39739456.095 7
  24500376.702    24500384.972    82286941.412 8 -92567049.672 8
  24482041.828    24482046.733   -18598294.972 9   6365046.975 8
 86  6 12  4 18 11.0800000  0  4G12G13G 9G 7
  21287009.792    21287014.583     7990171.643 9 -18130059.232 7
  21884572.595    21884580.193    36676357.286 8 -39732066.671 8
  24505147.007    24505153.246    82312007.649 7 -92547517.536 7
  24480397.005    24480401.654   -18606940.991 9   6358309.821 8
 86  6 12  4 18 17.0800000  0  4G12G13G 9G 7
  21289007.914    21289012.691     8000664.312 9 -18121883.118 8
  21886379.054    21886385.015    36685842.950 8 -39724675.245 8
  24509915.280    24509924.166    82337074.405 7 -92527985.003 6
  24478754.997    24478760.030   -18615568.555 9   6351587.045 8
 86  6 12  4 18 23.0800000  0  4G12G13G 9G 7
  21291009.627    21291012.571     8011180.037 8 -18113689.048 7
  21888184.511    21888190.549    36695331.026 8 -39717281.924 8
  24514685.871    24514693.755    82362141.492 7 -92508452.189 7
                  24477122.572                     6344881.637 8
 86  6 12  4 18 29.0800000  0  4G12G13G 9G 7
  21293013.686    21293018.062     8021718.808 9 -18105477.008 7
  21889989.740    21889996.075    36704821.530 9 -39709886.728 7
  24519455.820    24519464.313    82387209.029 8 -92488919.038 7
  24475534.799    24475490.841   -18660538.504 9   6338198.944 8
 86  6 12  4 18 35.0800000  0  4G12G13G 9G 7
  21295023.455    21295028.447     8032280.773 9 -18097246.925 7
  21891796.740    21891802.875    36714314.365 9 -39702489.718 8
  24524227.606    24524233.973    82412276.870 6 -92469385.641 6
  24473859.379    24473865.909   -18669079.542 9   6331543.553 8
 86  6 12  4 18 41.0800000  0  4G12G13G 9G 7
  21297036.273    21297043.581     8042865.784 9 -18088998.859 7
  21893605.218    21893609.697    36723809.457 9 -39695090.948 7
  24528995.802    24529003.685    82437345.053 7 -92449852.004 6
  24472239.567    24472247.001   -18677585.702 8   6324915.388 8
 86  6 12  4 18 47.0800000  0  4G12G13G 9G 7
  21299055.558    21299063.153     8053473.805 9 -18080732.877 7
  21895412.541    21895416.719    36733306.903 9 -39687690.331 8
  24533765.878    24533774.541    82462413.453 7 -92430318.183 7
  24470627.453    24470635.383   -18686060.292 9   6318311.440 9
 86  6 12  4 18 53.0800000  0  4G12G13G 9G 7
  21301078.062    21301085.156     8064104.747 8 -18072449.037 7
  21897221.205    21897224.822    36742806.610 9 -39680287.957 8
  24538535.367    24538544.855    82487481.962 6 -92410784.292 6
  24469019.800    24469026.833   -18694508.923 8   6311728.103 9
 86  6 12  4 18 59.0800000  0  4G12G13G 9G 7
  21303106.046    21303112.110     8074758.584 9 -18064147.338 8
  21899028.857    21899032.169    36752308.596 9 -39672883.807 8
  24543307.448    24543315.188    82512550.650 6 -92391250.262 7
  24467415.421    24467423.621   -18702934.726 9   6305162.558 8
 86  6 12  4 19  5.0800000  0  4G12G13G 9G 7
  21305137.680    21305144.302     8085435.300 8 -18055827.826 8
  21900837.729    21900842.002    36761812.915 9 -39665477.826 8
  24548077.581    24548085.822    82537619.486 7 -92371716.110 7
  24465817.672    24465823.084   -18711340.222 9   6298612.819 9
 86  6 12  4 19 11.0800000  0  4G12G13G 9G 7
  21307174.737    21307179.297     8096135.069 9 -18047490.354 8
  21902645.563    21902650.750    36771319.576 9 -39658070.033 8
  24552847.322    24552856.902    82562688.496 6 -92352181.826 6
  24464220.905    24464227.151   -18719727.109 9   6292077.593 9
 86  6 12  4 19 17.0800000  0  4G12G13G 9G 7
  21309215.786    21309220.562     8106857.825 9 -18039134.946 8
  21904455.081    21904460.328    36780828.575 9 -39650660.421 9
  24557617.891    24557629.146    82587757.726 6 -92332647.385 7
  24462628.256    24462634.077   -18728095.194 8   6285557.023 8
 86  6 12  4 19 23.0800000  0  4G12G13G 9G 7
  21311259.897    21311266.261     8117603.563 9 -18030761.652 7
  21906266.475    21906271.240    36790340.039 9 -39643248.883 7
  24562391.553    24562397.827    82612827.120 7 -92313112.786 8
                  24461046.865                     6279054.160 7
 86  6 12  4 19 29.0800000  0  4G12G13G 9G 7
  21313308.401    21313314.937     8128372.376 9 -18022370.367 8
  21908077.253    21908080.898    36799853.913 9 -39635835.466 8
  24567160.097    24567166.995    82637896.716 7 -92293578.023 7
  24459485.868    24459463.847   -18772807.306 8   6272574.560 9
 86  6 12  4 19 35.0800000  0  4G12G13G 9G 7
  21315362.257    21315368.220     8139164.568 8 -18013960.866 7
  21909887.960    21909891.694    36809370.498 9 -39628419.951 8
  24571930.303    24571938.259    82662966.842 7 -92274042.875 7
  24457882.603    24457888.448   -18781087.276 9   6266122.815 8
 86  6 12  4 19 41.0800000  0  4G12G13G 9G 7
  21317421.021    21317427.112     8149979.774 9 -18005533.450 7
  21911698.942    21911703.785    36818889.604 9 -39621002.452 8
  24576701.603    24576710.733    82688037.185 8 -92254507.564 7
  24456314.208    24456320.007   -18789331.872 8   6259698.450 8
 86  6 12  4 19 47.0800000  0  4G12G13G 9G 7
  21319482.503    21319490.127     8160817.933 8 -17997088.136 7
  21913510.543    21913515.049    36828411.177 9 -39613583.042 8
  24581472.818    24581480.673    82713107.607 6 -92234972.165 7
  24454751.366    24454757.293   -18797545.838 8   6253298.370 9
 86  6 12  4 19 53.0800000  0  4G12G13G 9G 7
  21321549.939    21321555.401     8171679.084 9 -17988624.909 7
  21915322.791    21915326.758    36837935.232 8 -39606161.703 8
  24586244.333    24586251.402    82738178.262 7 -92215436.586 7
  24453193.767    24453199.923   -18805732.741 8   6246918.969 8
 86  6 12  4 19 59.0800000  0  4G12G13G 9G 7
  21323621.895    21323628.174     8182563.102 9 -17980143.854 8
  21917135.744    21917140.288    36847461.554 9 -39598738.595 8
  24591014.559    24591023.738    82763248.880 7 -92195901.051 7
  24451641.910    24451645.734   -18813896.727 9   6240557.420 9
 86  6 12  4 20  5.0800000  0  4G12G13G 9G 7
  21325697.430    21325703.637     8193470.021 9 -17971644.954 8
  21918948.755    21918953.044    36856990.243 9 -39591313.636 8
  24595785.981    24595793.177    82788319.558 7 -92176365.471 7
  24450090.984    24450096.410   -18822040.278 9   6234211.795 8
 86  6 12  4 20 11.0800000  0  4G12G13G 9G 7
  21327776.684    21327782.304     8204399.670 9 -17963128.332 7
  21920763.518    21920767.410    36866521.182 9 -39583886.938 8
  24600556.395    24600563.104    82813390.041 7 -92156830.010 7
  24448545.355    24448549.498   -18830165.062 9   6227880.784 7
 86  6 12  4 20 17.0800000  0  4G12G13G 9G 7
  21329861.633    21329866.868     8215352.061 9 -17954594.009 8
  21922576.625    21922582.045    36876054.358 9 -39576458.492 8
  24605327.063    24605334.354    82838460.431 7 -92137294.655 7
  24447002.448    24447005.926   -18838270.893 9   6221564.552 7
 86  6 12  4 20 23.0800000  0  4G12G13G 9G 7
  21331948.844    21331955.667     8226327.228 9 -17946041.943 8
  21924389.732    21924395.545    36885589.910 8 -39569028.191 9
  24610098.892    24610104.702    82863530.781 8 -92117759.326 7
                  24445469.105                     6215266.367 8
 86  6 12  4 20 29.0800000  0  4G12G13G 9G 7
  21334041.893    21334048.328     8237325.200 9 -17937472.098 7
  21926203.419    21926209.912    36895127.854 8 -39561596.023 9
  24614871.459    24614875.409    82888601.047 7 -92098224.070 7
  24443884.247    24443935.588   -18882719.522 9   6208991.648 7
 86  6 12  4 20 35.0800000  0  4G12G13G 9G 7
  21336138.905    21336144.740     8248346.000 9 -17928884.465 7
  21928018.472    21928026.541    36904668.157 8 -39554162.038 8
  24619640.406    24619644.955    82913671.197 8 -92078688.895 6
  24442406.372    24442410.340   -18890736.408 9   6202744.785 8
 86  6 12  4 20 41.0800000  0  4G12G13G 9G 7
  21338239.924    21338247.046     8259389.558 9 -17920279.089 8
  21929835.325    21929842.504    36914210.704 8 -39546726.295 8
  24624410.934    24624418.058    82938741.201 7 -92059153.832 7
  24440887.789    24440892.517   -18898717.797 9   6196525.146 8
 86  6 12  4 20 47.0800000  0  4G12G13G 9G 7
  21340347.024    21340352.473     8270455.855 9 -17911656.004 7
  21931652.059    21931658.115    36923755.558 8 -39539288.741 7
  24629182.798    24629186.625    82963811.057 8 -92039618.884 6
  24439376.150    24439379.639   -18906668.600 9   6190329.702 8
 86  6 12  4 20 53.0800000  0  4G12G13G 9G 7
  21342456.372    21342463.651     8281544.874 9 -17903015.208 8
  21933468.582    21933474.320    36933302.759 9 -39531849.363 7
  24633952.568    24633957.597    82988880.772 8 -92020084.029 6
  24437869.029    24437870.184   -18914592.928 9   6184154.905 8
 86  6 12  4 20 59.0800000  0  4G12G13G 9G 7
  21344570.211    21344576.633     8292656.687 8 -17894356.654 6
  21935286.426    21935291.970    36942852.317 9 -39524408.152 8
  24638723.166    24638728.481    83013950.275 8 -92000549.365 6
  24436363.623    24436367.930   -18922494.217 9   6177998.066 8
 86  6 12  4 21  5.0800000  0  4G12G13G 9G 7
  21346690.347    21346695.681     8303791.324 9 -17885680.315 8
  21937104.728    21937109.129    36952404.176 9 -39516965.137 7
  24643493.622    24643499.051    83039019.608 8 -91981014.797 6
  24434863.468    24434868.713   -18930374.860 9   6171857.299 7
 86  6 12  4 21 11.0800000  0  4G12G13G 9G 7
  21348813.202    21348819.823     8314948.760 9 -17876986.217 8
  21938922.638    21938927.757    36961958.399 9 -39509520.279 8
  24648264.386    24648269.829    83064088.900 8 -91961480.294 7
  24433366.566    24433372.983   -18938236.484 9   6165731.361 8
 86  6 12  4 21 17.0800000  0  4G12G13G 9G 7
  21350939.819    21350946.713     8326128.902 9 -17868274.425 7
  21940741.487    21940746.076    36971514.996 9 -39502073.574 8
  24653035.177    24653038.853    83089157.971 9 -91941945.944 6
  24431875.173    24431880.556   -18946078.795 9   6159620.474 7
 86  6 12  4 21 23.0800000  0  4G12G13G 9G 7
  21353072.461    21353078.812     8337331.740 9 -17859544.941 8
  21942560.475    21942566.031    36981073.970 9 -39494625.024 8
  24657804.603    24657810.884    83114226.788 9 -91922411.817 6
                  24430392.938                     6153528.084 7
 86  6 12  4 21 29.0800000  0  4G12G13G 9G 7
  21355208.667    21355214.430     8348557.237 9 -17850797.801 7
  21944380.461    21944384.739    36990635.256 9 -39487174.653 9
  24662575.445    24662580.911    83139295.106 8 -91902878.066 7
  24428880.574    24428909.951   -18990268.057 9   6147459.568 9
 86  6 12  4 21 35.0800000  0  4G12G13G 9G 7
  21357350.567    21357355.516     8359805.295 9 -17842033.077 7
  21946200.393    21946204.715    37000198.788 9 -39479722.537 8
  24667346.366    24667351.266    83164363.109 8 -91883344.555 7
  24427429.344    24427434.026   -18998020.484 9   6141418.915 8
 86  6 12  4 21 41.0800000  0  4G12G13G 9G 7
  21359494.384    21359499.719     8371075.882 9 -17833250.798 8
  21948020.759    21948025.616    37009764.525 9 -39472268.707 8
  24672115.920    24672122.093    83189430.704 9 -91863811.374 6
  24425961.625    24425966.457   -19005737.754 9   6135405.457 9
 86  6 12  4 21 47.0800000  0  4G12G13G 9G 7
  21361642.753    21361648.331     8382368.962 8 -17824450.998 8
  21949841.225    21949846.011    37019332.488 9 -39464813.143 8
  24676885.975    24676891.305    83214497.740 8 -91844278.613 7
  24424497.669    24424503.386   -19013424.146 8   6129416.066 8
 86  6 12  4 21 53.0800000  0  4G12G13G 9G 7
  21363795.556    21363802.379     8393684.440 8 -17815633.746 7
  21951662.481    21951668.369    37028902.542 9 -39457355.954 8
  24681655.514    24681662.111    83239564.215 9 -91824746.306 7
  24423039.980    24423044.950   -19021084.146 9   6123447.243 8
 86  6 12  4 21 59.0800000  0  4G12G13G 9G 7
  21365952.681    21365959.118     8405022.240 9 -17806799.095 8
  21953484.154    21953489.198    37038474.782 9 -39449897.070 9
  24686426.107    24686430.770    83264630.112 9 -91805214.450 6
  24421586.182    24421592.631   -19028721.302 9   6117496.214 8
 86  6 12  4 22  5.0800000  0  4G12G13G 9G 7
  21368115.444    21368121.580     8416382.507 9 -17797946.943 8
  21955306.049    21955311.200    37048049.145 9 -39442436.524 8
  24691194.630    24691201.935    83289695.321 8 -91785683.115 7
  24420137.187    24420142.527   -19036338.051 9   6111561.096 8
 86  6 12  4 22 11.0800000  0  4G12G13G 9G 7
  21370282.472    21370286.933     8427765.201 8 -17789077.315 8
  21957128.485    21957134.019    37057625.720 9 -39434974.254 8
  24695965.208    24695970.401    83314760.001 8 -91766152.191 7
  24418691.407    24418697.250   -19043935.879 9   6105640.712 9
 86  6 12  4 22 17.0800000  0  4G12G13G 9G 7
  21372452.847    21372458.266     8439170.269 9 -17780190.245 7
  21958951.097    21958957.370    37067204.496 9 -39427510.255 9
  24700735.993    24700739.297    83339824.084 9 -91746621.734 5
  24417249.632    24417255.748   -19051514.269 9   6099735.483 8
 86  6 12  4 22 23.0800000  0  4G12G13G 9G 7
  21374625.870    21374632.492     8450597.790 9 -17771285.690 8
  21960773.602    21960779.764    37076785.489 9 -39420044.548 9
  24705503.637    24705510.297    83364887.708 9 -91727091.634 7
                  24415817.657                     6093848.960 9
 86  6 12  4 22 29.0800000  0  4G12G13G 9G 7
  21376806.377    21376811.037     8462047.769 9 -17762363.632 8
  21962596.399    21962602.509    37086368.634 9 -39412577.174 9
  24710273.570    24710276.802    83389950.620 9 -91707562.088 7
  24414312.530    24414385.721   -19095440.120 9   6087986.621 8
 86  6 12  4 22 35.0800000  0  4G12G13G 9G 7
  21378988.743    21378995.308     8473520.131 9 -17753424.142 8
  21964420.496    21964426.941    37095953.901 9 -39405108.146 8
  24715041.973    24715047.589    83415012.879 9 -91688033.063 6
  24412956.176    24412961.378   -19102927.160 9   6082152.451 8
 86  6 12  4 22 41.0800000  0  4G12G13G 9G 7
  21381176.232    21381180.120     8485014.933 9 -17744467.136 7
  21966245.372    21966251.417    37105541.396 9 -39397637.374 9
  24719811.656    24719817.600    83440074.567 8 -91668504.473 6
  24411538.623    24411543.040   -19110379.302 9   6076345.581 8
 86  6 12  4 22 47.0800000  0  4G12G13G 9G 7
  21383367.457    21383372.346     8496532.119 9 -17735492.703 6
  21968069.375    21968076.687    37115131.100 9 -39390164.888 8
  24724580.623    24724585.393    83465135.628 8 -91648976.382 7
  24410126.312    24410131.084   -19117800.388 9   6070562.902 8
 86  6 12  4 22 53.0800000  0  4G12G13G 9G 7
  21385562.944    21385567.519     8508071.576 8 -17726500.923 7
  21969895.554    21969901.674    37124722.934 8 -39382690.743 9
  24729350.234    24729355.335    83490195.910 8 -91629448.892 6
  24408719.415    24408724.155   -19125195.333 9   6064800.621 9
 86  6 12  4 22 59.0800000  0  4G12G13G 9G 7
  21387763.512    21387768.589     8519633.219 9 -17717491.852 7
  21971721.829    21971727.452    37134316.983 9 -39375214.869 9
  24734118.258    24734123.158    83515255.376 8 -91609922.010 7
  24407316.520    24407320.126   -19132567.318 9   6059056.208 8
 86  6 12  4 23  5.0800000  0  4G12G13G 9G 7
  21389967.844    21389972.834     8531217.194 9 -17708465.367 7
  21973547.647    21973553.245    37143913.179 9 -39367737.319 9
  24738886.424    24738893.191    83540314.107 8 -91590395.716 5
  24405917.779    24405922.251   -19139918.745 9   6053327.815 7
 86  6 12  4 23 11.0800000  0  4G12G13G 9G 7
  21392176.653    21392182.316     8542823.483 9 -17699421.506 7
  21975374.830    21975379.713    37153511.538 9 -39360258.085 9
  24743654.496    24743658.888    83565372.012 8 -91570870.080 6
  24404521.992    24404527.623   -19147251.108 9   6047614.294 7
 86  6 12  4 23 17.0800000  0  4G12G13G 9G 7
  21394389.340    21394394.632     8554452.016 8 -17690360.320 7
  21977201.906    21977207.354    37163112.035 9 -39352777.192 8
  24748421.898    24748428.680    83590429.127 7 -91551345.069 7
  24403129.466    24403135.790   -19154563.675 9   6041916.176 7
 86  6 12  4 23 23.0800000  0  4G12G13G 9G 7
  21396606.766    21396613.559     8566102.816 9 -17681281.777 8
  21979028.851    21979034.302    37172714.755 9 -39345294.545 8
  24753191.387    24753196.831    83615485.438 7 -91531820.661 7
                  24401748.098                     6036237.111 8
 86  6 12  4 23 29.0800000  0  4G12G13G 9G 7
  21398827.810    21398833.373     8577775.916 9 -17672185.851 8
  21980857.332    21980861.700    37182319.682 9 -39337810.194 7
  24757957.565    24757965.199    83640540.875 8 -91512296.944 6
  24400369.776    24400366.739   -19198223.906 9   6030582.590 8
 86  6 12  4 23 35.0800000  0  4G12G13G 9G 7
  21401052.746    21401057.621     8589471.309 8 -17663072.562 7
  21982684.999    21982689.667    37191926.772 9 -39330324.130 8
  24762725.703    24762733.221    83665595.487 8 -91492773.877 6
  24398987.123    24398992.024   -19205444.140 9   6024956.470 8
 86  6 12  4 23 41.0800000  0  4G12G13G 9G 7
  21403282.647    21403288.540     8601188.954 9 -17653941.927 6
  21984513.184    21984518.131    37201536.037 9 -39322836.383 7
  24767492.710    24767500.493    83690649.196 7 -91473251.539 6
  24397621.171    24397625.990   -19212630.009 8   6019357.489 8
 86  6 12  4 23 47.0800000  0  4G12G13G 9G 7
  21405517.043    21405521.976     8612928.759 9 -17644794.035 7
  21986342.121    21986346.277    37211147.465 9 -39315346.958 8
  24772261.247    24772265.232    83715702.031 7 -91453729.835 6
  24396259.409    24396264.698   -19219784.579 9   6013782.502 9
 86  6 12  4 23 53.0800000  0  4G12G13G 9G 7
  21407754.471    21407761.937     8624690.668 9 -17635628.919 8
  21988171.505    21988175.008    37220760.998 9 -39307855.896 8
  24777027.289    24777034.357    83740753.862 7 -91434208.953 6
  24394903.040    24394907.985   -19226912.721 9   6008228.091 8
 86  6 12  4 23 59.0800000  0  4G12G13G 9G 7
  21409997.551    21410002.899     8636474.795 8 -17626446.479 8
  21990001.743    21990005.960    37230376.721 9 -39300363.104 8
  24781795.162    24781801.773    83765804.780 8 -91414688.772 6
  24393551.788    24393556.557   -19234017.854 9   6002691.623 7
 86  6 12  4 24  5.0800000  0  4G12G13G 9G 7
  21412244.065    21412249.958     8648281.103 9 -17617246.749 7
  21991831.990    21991836.436    37239994.687 9 -39292868.588 7
  24786561.640    24786567.362    83790854.804 8 -91395169.268 7
  24392202.327    24392208.641   -19241102.340 9   5997171.258 8
 86  6 12  4 24 11.0800000  0  4G12G13G 9G 7
  21414493.973    21414500.481     8660109.585 9 -17608029.767 7
  21993663.626    21993667.039    37249614.822 9 -39285372.369 8
  24791328.963    24791335.358    83815903.922 9 -91375650.485 6
  24390858.465    24390864.489   -19248167.580 9   5991665.871 8
 86  6 12  4 24 17.0800000  0  4G12G13G 9G 7
  21416749.129    21416756.237     8671960.185 8 -17598795.523 8
  21995493.780    21995497.443    37259237.105 9 -39277874.483 7
  24796095.755    24796102.093    83840951.973 9 -91356132.533 6
  24389517.919    24389522.083   -19255212.869 9   5986176.046 7
 86  6 12  4 24 23.0800000  0  4G12G13G 9G 7
  21419008.737    21419014.399     8683832.882 8 -17589544.073 8
  21997324.587    21997328.952    37268861.495 9 -39270374.933 8
  24800862.441    24800868.148    83865998.975 9 -91336615.382 7
                  24388187.253                     5980705.579 7
 86  6 12  4 24 29.0800000  0  4G12G13G 9G 7
  21421273.453    21421278.859     8695727.644 9 -17580275.415 7
  21999156.858    21999159.680    37278487.964 9 -39262873.783 7
  24805629.032    24805633.811    83891044.843 8 -91317099.138 7
  24386776.619    24386857.237   -19298611.314 9   5975260.033 8
 86  6 12  4 24 35.0800000  0  4G12G13G 9G 7
  21423540.186    21423546.294     8707644.401 9 -17570989.636 7
  22000989.175    22000992.913    37288116.489 9 -39255371.037 8
  24810395.016    24810399.637    83916089.590 9 -91297583.739 6
  24385529.565    24385533.286   -19305563.182 9   5969842.933 8
 86  6 12  4 24 41.0800000  0  4G12G13G 9G 7
  21425812.100    21425819.108     8719583.140 9 -17561686.715 7
  22002821.302    22002826.046    37297747.018 8 -39247866.714 8
  24815159.756    24815164.025    83941133.094 8 -91278069.325 7
  24384212.927    24384216.471   -19312479.846 9   5964452.938 7
 86  6 12  4 24 47.0800000  0  4G12G13G 9G 7
  21428088.035    21428094.728     8731543.774 9 -17552366.756 6
  22004654.371    22004659.532    37307379.568 9 -39240360.829 8
  24819925.574    24819929.158    83966175.397 8 -91258555.845 6
  24382902.910    24382907.728   -19319366.197 9   5959086.949 7
 86  6 12  4 24 53.0800000  0  4G12G13G 9G 7
  21430368.619    21430374.354     8743526.142 9 -17543029.850 6
  22006486.888    22006493.434    37317014.049 9 -39232853.436 9
  24824690.894    24824695.307    83991216.316 8 -91239043.439 6
  24381597.221    24381601.557   -19326226.507 9   5953741.248 8
 86  6 12  4 24 59.0800000  0  4G12G13G 9G 7
  21432653.197    21432660.019     8755530.399 9 -17533675.881 8
  22008321.137    22008327.090    37326650.543 9 -39225344.474 8
  24829454.624    24829460.217    84016255.966 9 -91219532.037 7
  24380296.319    24380300.519   -19333064.021 9   5948413.322 8
 86  6 12  4 25  5.0800000  0  4G12G13G 9G 7
  21434940.765    21434946.857     8767556.550 9 -17524304.857 7
  22010154.853    22010161.535    37336289.131 9 -39217833.890 8
  24834220.086    24834225.107    84041294.280 9 -91200021.673 6
  24378999.248    24379003.712   -19339880.933 9   5943101.456 7
 86  6 12  4 25 11.0800000  0  4G12G13G 9G 7
  21437234.070    21437242.167     8779604.501 9 -17514916.851 7
  22011988.956    22011995.512    37345929.688 7 -39210321.758 8
  24838984.576    24838988.574    84066331.228 9 -91180512.357 8
  24377705.178    24377709.969   -19346678.635 9   5937804.545 8
 86  6 12  4 25 17.0800000  0  4G12G13G 9G 7
  21439531.254    21439536.959     8791674.290 9 -17505511.816 8
  22013824.137    22013829.961    37355572.253 8 -39202808.086 8
  24843747.948    24843752.876    84091366.846 9 -91161004.095 7
  24376415.874    24376420.711   -19353456.193 9   5932523.331 8
 86  6 12  4 25 23.0800000  0  4G12G13G 9G 7
  21441831.414    21441838.537     8803765.947 8 -17496089.744 8
  22015658.902    22015666.231    37365216.816 8 -39195292.859 8
  24848512.229    24848517.078    84116401.065 9 -91141496.903 8
                  24375136.540                     5927261.886 8
 86  6 12  4 25 29.0800000  0  4G12G13G 9G 7
  21444136.739    21444142.688     8815879.475 9 -17486650.634 7
  22017495.189    22017501.363    37374863.437 8 -39187776.008 9
  24853276.138    24853281.123    84141433.988 9 -91121990.737 8
  24373851.552    24373855.658   -19396586.722 7   5922025.635 7
 86  6 12  4 25 35.0800000  0  4G12G13G 9G 7
  21446445.742    21446452.536     8828014.806 8 -17477194.532 8
  22019331.732    22019336.939    37384512.116 9 -39180257.579 9
  24858040.391    24858044.719    84166465.434 8 -91102485.718 7
  24372580.028    24372584.920   -19403270.071 9   5916817.819 8
 86  6 12  4 25 41.0800000  0  4G12G13G 9G 7
  21448759.138    21448765.217     8840171.932 9 -17467721.446 8
  22021168.799    22021173.310    37394162.793 9 -39172737.572 8
  24862802.362    24862807.720    84191495.596 8 -91082981.703 8
  24371315.531    24371320.364   -19409919.028 9   5911637.216 8
 86  6 12  4 25 47.0800000  0  4G12G13G 9G 7
  21451076.268    21451083.878     8852350.860 9 -17458231.382 6
  22023004.514    22023010.638    37403815.509 9 -39165215.965 7
  24867564.818    24867570.612    84216524.284 8 -91063478.828 7
  24370056.401    24370060.556   -19416536.886 9   5906480.441 8
 86  6 12  4 25 53.0800000  0  4G12G13G 9G 7
  21453397.935    21453404.486     8864551.531 9 -17448724.356 7
  22024841.898    22024847.735    37413470.286 8 -39157692.780 9
  24872327.454    24872332.698    84241551.547 9 -91043977.089 8
  24368800.927    24368805.903   -19423128.614 9   5901344.044 7
 86  6 12  4 25 59.0800000  0  4G12G13G 9G 7
  21455724.581    21455731.646     8876773.935 9 -17439200.401 7
  22026680.814    22026685.443    37423127.091 8 -39150168.009 9
  24877089.024    24877095.505    84266577.287 8 -91024476.519 7
  24367551.252    24367555.670   -19429697.357 9   5896225.531 7
 86  6 12  4 26  5.0800000  0  4G12G13G 9G 7
  21458054.718    21458062.471     8889018.147 9 -17429659.468 8
  22028517.256    22028524.225    37432785.994 9 -39142641.576 8
  24881851.788    24881858.349    84291601.733 8 -91004976.965 8
  24366304.853    24366309.325   -19436245.350 9   5891123.206 8
 86  6 12  4 26 11.0800000  0  4G12G13G 9G 7
  21460389.636    21460395.557     8901284.135 8 -17420101.546 8
  22030356.585    22030363.700    37442447.045 9 -39135113.498 9
  24886613.787    24886618.530    84316624.725 8 -90985478.538 7
  24365062.866    24365067.438   -19442773.895 9   5886036.033 8
 86  6 12  4 26 17.0800000  0  4G12G13G 9G 7
  21462728.787    21462734.022     8913571.855 9 -17410526.704 7
  22032196.107    22032200.793    37452110.093 9 -39127583.851 9
  24891375.071    24891381.495    84341646.138 7 -90965981.336 9
  24363824.667    24363830.047   -19449282.012 9   5880964.763 8
 86  6 12  4 26 23.0800000  0  4G12G13G 9G 7
  21465070.688    21465076.409     8925881.264 8 -17400934.965 6
  22034035.671    22034041.373    37461775.099 9 -39120052.671 9
  24896136.154    24896141.462    84366665.926 8 -90946485.421 7
                  24362595.363                     5875913.525 7
 86  6 12  4 26 29.0800000  0  4G12G13G 9G 7
  21467416.923    21467423.144     8938212.329 9 -17391326.336 7
  22035875.798    22035879.522    37471442.196 9 -39112519.865 8
  24900897.530    24900901.965    84391684.160 8 -90926990.696 8
  24361365.487    24361366.678   -19492146.736 5   5870887.888 8
 86  6 12  4 26 35.0800000  0  4G12G13G 9G 7
  21469767.466    21469773.259     8950565.148 8 -17381700.780 8
  22037715.112    22037720.442    37481111.417 9 -39104985.403 8
  24905656.131    24905663.320    84416700.874 7 -90907497.167 8
  24360143.842    24360147.373   -19498559.393 9   5865890.842 7
 86  6 12  4 26 41.0800000  0  4G12G13G 9G 7
  21472122.916    21472127.062     8962939.639 9 -17372058.297 7
  22039556.058    22039560.547    37490782.672 9 -39097449.365 9
  24910416.842    24910422.958    84441715.993 8 -90888004.878 8
  24358930.051    24358934.115   -19504936.772 9   5860921.074 8
 86  6 12  4 26 47.0800000  0  4G12G13G 9G 7
  21474480.327    21474485.618     8975335.681 8 -17362399.062 7
  22041397.382    22041400.998    37500455.879 9 -39089911.792 8
  24915176.845    24915183.139    84466729.396 8 -90868513.922 7
  24357721.654    24357726.255   -19511284.104 9   5855975.091 8
 86  6 12  4 26 53.0800000  0  4G12G13G 9G 7
  21476844.091    21476851.386     8987753.248 8 -17352723.041 7
  22043237.985    22043242.305    37510131.070 9 -39082372.673 8
  24919935.352    24919941.347    84491741.161 8 -90849024.250 7
  24356518.320    24356522.108   -19517605.407 9   5851049.397 8
 86  6 12  4 26 59.0800000  0  4G12G13G 9G 7
  21479211.119    21479216.896     9000192.396 8 -17343030.200 7
  22045079.828    22045083.852    37519808.230 9 -39074832.033 7
  24924696.006    24924701.236    84516751.187 8 -90829535.907 8
  24355318.962    24355323.759   -19523903.689 9   5846141.639 8
 86  6 12  4 27  5.0800000  0  4G12G13G 9G 7
  21481582.996    21481588.387     9012653.110 8 -17333320.548 8
  22046922.047    22046925.210    37529487.374 8 -39067289.829 8
  24929453.920    24929460.207    84541759.528 7 -90810048.889 7
  24354124.445    24354129.796   -19530181.152 9   5841250.125 8
 86  6 12  4 27 11.0800000  0  4G12G13G 9G 7
  21483958.350    21483963.656     9025135.359 9 -17323594.120 8
  22048762.408    22048766.429    37539168.529 8 -39059746.082 8
  24934213.565    24934218.301    84566766.126 8 -90790563.234 7
  24352933.924    24352939.665   -19536439.164 9   5836373.740 8
 86  6 12  4 27 17.0800000  0  4G12G13G 9G 7
  21486337.126    21486343.847     9037639.066 8 -17313850.962 8
  22050605.079    22050609.894    37548851.666 8 -39052200.780 8
  24938972.165    24938978.053    84591770.871 8 -90771079.026 8
  24351746.479    24351752.067   -19542676.444 9   5831513.522 8
 86  6 12  4 27 23.0800000  0  4G12G13G 9G 7
  21488719.849    21488726.099     9050164.191 8 -17304091.124 8
  22052447.463    22052452.793    37558536.791 9 -39044653.935 9
  24943727.482    24943736.532    84616773.777 8 -90751596.262 7
                  24350570.365                     5826673.681 7
 86  6 12  4 27 29.0800000  0  4G12G13G 9G 7
  21491107.667    21491113.760     9062710.739 9 -17294314.605 8
  22054290.262    22054295.935    37568223.797 8 -39037105.628 9
  24948487.221    24948492.893    84641774.837 7 -90732114.930 7
  24349390.489    24349395.183   -19585271.075 7   5821859.692 8
 86  6 12  4 27 35.0800000  0  4G12G13G 9G 7
  21493498.232    21493506.085     9075278.688 8 -17284521.401 7
  22056134.484    22056139.796    37577912.695 9 -39029555.829 8
  24953243.860    24953250.128    84666774.069 7 -90712635.012 8
  24348221.389    24348227.309   -19591412.097 8   5817074.453 8
 86  6 12  4 27 41.0800000  0  4G12G13G 9G 7
  21495894.964    21495901.416     9087868.021 8 -17274711.528 8
  22057978.489    22057984.429    37587603.496 9 -39022004.555 8
  24958001.059    24958007.404    84691771.358 8 -90693156.617 7
  24347059.444    24347065.289   -19597518.926 9   5812316.276 8
 86  6 12  4 27 47.0800000  0  4G12G13G 9G 7
  21498294.631    21498302.126     9100478.632 9 -17264885.080 8
  22059824.613    22059828.859    37597296.157 8 -39014451.842 8
  24962756.204    24962763.951    84716766.669 7 -90673679.773 7
  24345903.243    24345908.805   -19603594.987 9   5807581.684 8
 86  6 12  4 27 53.0800000  0  4G12G13G 9G 7
  21500698.590    21500704.840     9113110.507 8 -17255042.070 8
  22061667.938    22061674.101    37606990.655 9 -39006897.675 8
  24967513.301    24967518.617    84741759.949 8 -90654204.509 7
  24344751.392    24344757.063   -19609645.050 9   5802867.351 8
 86  6 12  4 27 59.0800000  0  4G12G13G 9G 7
  21503105.381    21503112.304     9125763.650 8 -17245182.474 7
  22063513.408    22063519.201    37616687.045 9 -38999342.055 9
  24972268.610    24972275.836    84766751.089 7 -90634730.889 7
  24343604.539    24343611.115   -19615672.222 9   5798170.866 8
 86  6 12  4 28  5.0800000  0  4G12G13G 9G 7
  21505517.568    21505524.434     9138438.171 8 -17235306.236 7
  22065359.796    22065364.438    37626385.372 9 -38991784.914 8
  24977025.516    24977030.330    84791740.314 8 -90615258.778 7
  24342461.640    24342466.998   -19621678.503 9   5793490.654 8
 86  6 12  4 28 11.0800000  0  4G12G13G 9G 7
  21507933.403    21507939.368     9151134.010 8 -17225413.372 7
  22067205.520    22067210.563    37636085.692 8 -38984226.230 8
  24981780.783    24981786.512    84816727.576 8 -90595788.174 7
  24341323.498    24341327.732   -19627665.116 9   5788825.771 8
 86  6 12  4 28 17.0800000  0  4G12G13G 9G 7
  21510353.489    21510360.541     9163851.163 8 -17215503.918 8
  22069052.486    22069056.338    37645787.883 8 -38976666.087 9
  24986533.301    24986539.667    84841712.838 8 -90576319.155 8
  24340188.950    24340192.793   -19633630.793 9   5784177.195 8
 86  6 12  4 28 23.0800000  0  4G12G13G 9G 7
  21512777.623    21512783.516     9176589.553 8 -17205577.880 8
  22070898.630    22070902.886    37655491.934 8 -38969104.479 8
  24991289.060    24991294.234    84866696.120 6 -90556851.665 8
                  24339062.555                     5779549.345 8
 86  6 12  4 28 29.0800000  0  4G12G13G 9G 7
  21515204.118    21515212.759     9189349.237 9 -17195635.280 8
  22072745.485    22072749.805    37665197.896 9 -38961541.387 8
  24996041.846    24996048.543    84891677.263 6 -90537385.871 8
  24337934.577    24337940.242   -19675954.336 8   5774947.663 7
 86  6 12  4 28 35.0800000  0  4G12G13G 9G 7
  21517636.653    21517644.062     9202130.193 8 -17185676.102 7
  22074591.882    22074596.361    37674905.791 9 -38953976.810 8
  25000797.799    25000802.184    84916656.357 6 -90517921.663 7
  24336817.241    24336820.989   -19681822.926 9   5770374.735 8
 86  6 12  4 28 41.0800000  0  4G12G13G 9G 7
  21520073.881    21520079.430     9214932.303 8 -17175700.422 8
  22076440.354    22076445.080    37684615.565 9 -38946410.747 8
  25005547.835    25005554.410    84941633.255 5 -90498459.166 7
  24335706.082    24335712.421   -19687656.715 9   5765828.947 8
 86  6 12  4 28 47.0800000  0  3G12G13G 7
  21522515.412    21522521.029     9227755.522 8 -17165708.305 7
  22078287.410    22078292.808    37694327.175 9 -38938843.264 8
  24334600.900    24334607.111   -19693460.262 8   5761306.714 8
 86  6 12  4 28 53.0800000  0  3G12G13G 7
  21524959.218    21524963.883     9240600.038 8 -17155699.591 8
  22080137.217    22080142.414    37704040.872 9 -38931274.132 8
  24333501.147    24333507.656   -19699237.635 9   5756804.873 8
 86  6 12  4 28 59.0800000  0  3G12G13G 7
  21527406.409    21527412.634     9253465.743 8 -17145674.367 8
  22081985.421    22081990.303    37713756.498 8 -38923703.522 8
  24332407.574    24332413.133   -19704991.964 8   5752320.988 8
 86  6 12  4 29  5.0800000  0  3G12G13G 7
  21529858.560    21529864.824     9266352.557 8 -17135632.695 8
  22083834.683    22083839.967    37723474.048 8 -38916131.396 8
  24331317.256    24331321.843   -19710725.650 8   5747853.181 8
 86  6 12  4 29 11.0800000  0  3G12G13G 7
  21532315.227    21532322.175     9279260.530 7 -17125574.530 8
  22085684.319    22085691.262    37733193.564 8 -38908557.764 9
  24330229.658    24330233.943   -19716439.666 9   5743400.702 8
 86  6 12  4 29 17.0800000  0  3G12G13G 7
  21534775.768    21534781.563     9292189.652 8 -17115499.880 7
  22087534.082    22087540.238    37742914.972 9 -38900982.621 9
  24329146.080    24329151.496   -19722132.442 9   5738964.788 8
 86  6 12  4 29 23.0800000  0  3G12G13G 7
  21537240.312    21537246.150     9305139.848 8 -17105408.818 8
  22089384.876    22089390.130    37752638.347 8 -38893405.975 8
                  24328073.140                     5734549.947 8
 86  6 12  4 29 29.0800000  0  3G12G13G 7
  21539709.306    21539714.365     9318111.116 8 -17095301.344 8
  22091235.956    22091240.710    37762363.566 8 -38885827.881 8
  24326996.037    24326999.710   -19764187.927 9   5730161.572 8
 86  6 12  4 29 35.0800000  0  3G12G13G 7
  21542180.686    21542186.663     9331103.367 7 -17085177.501 9
  22093086.665    22093091.632    37772090.683 8 -38878248.311 8
  24325932.465    24325936.800   -19769782.612 9   5725802.060 9
 86  6 12  4 29 41.0800000  0  3G12G13G 7
  21544656.978    21544662.212     9344116.582 9 -17075037.334 7
  22094937.486    22094943.728    37781819.755 8 -38870667.217 9
  24324873.420    24324878.328   -19775342.753 9   5721469.490 8
 86  6 12  4 29 47.0800000  0  3G12G13G 7
  21547136.987    21547142.116     9357150.853 7 -17064880.767 8
  22096788.867    22096794.650    37791550.664 9 -38863084.692 8
  24323820.893    24323827.003   -19780872.665 9   5717160.464 8
 86  6 12  4 29 53.0800000  0  3G12G13G 7
  21549620.411    21549628.633     9370206.076 8 -17054707.865 8
  22098640.704    22098646.175    37801283.290 8 -38855500.826 8
  24322773.361    24322779.435   -19786376.748 9   5712871.573 9
 86  6 12  4 29 59.0800000  0  3G12G13G 7
  21552109.101    21552115.981     9383282.148 8 -17044518.733 8
  22100493.430    22100498.700    37811017.686 8 -38847915.580 8
  24321730.772    24321736.968   -19791857.980 9   5708600.494 8
 86  6 12  4 30  5.0800000  0  3G12G13G 7
  21554600.583    21554608.393     9396379.008 8 -17034313.379 9
  22102346.042    22102351.797    37820753.854 9 -38840328.952 7
  24320691.022    24320698.636   -19797318.461 9   5704345.567 9
 86  6 12  4 30 11.0800000  0  3G12G13G 7
  21557098.417    21557103.901     9409496.745 7 -17024091.776 8
  22104200.185    22104203.750    37830491.892 8 -38832740.872 8
  24319657.098    24319661.792   -19802759.144 8   5700106.080 9
 86  6 12  4 30 17.0800000  0  3G12G13G 7
  21559599.091    21559604.830     9422635.327 8 -17013853.918 8
  22106052.152    22106059.023    37840231.817 8 -38825151.330 8
  24318626.694    24318630.199   -19808178.403 9   5695883.299 8
 86  6 12  4 30 23.0800000  0  3G12G13G 7
  21562102.903    21562109.430     9435794.819 9 -17003599.762 9
  22107906.051    22107912.694    37849973.606 8 -38817560.333 9
                  24317603.515                     5691681.839 8
 86  6 12  4 30 29.0800000  0  3G12G13G 7
  21564612.156    21564616.961     9448975.243 8 -16993329.306 7
  22109759.192    22109767.222    37859717.276 8 -38809967.873 8
  24316579.120    24316584.228   -19849956.402 9   5687507.073 8
 86  6 12  4 30 35.0800000  0  3G12G13G 7
  21567123.674    21567130.285     9462176.434 8 -16983042.660 7
  22111613.333    22111620.834    37869462.808 7 -38802373.956 9
  24315567.031    24315572.039   -19855276.764 9   5683361.336 9
 86  6 12  4 30 41.0800000  0  3G12G13G 7
  21569639.305    21569645.558     9475398.346 7 -16972739.862 8
  22113469.678    22113474.904    37879210.077 7 -38794778.692 9
  24314560.308    24314566.525   -19860562.024 8   5679242.569 8
 86  6 12  4 30 47.0800000  0  3G12G13G 7
  21572159.021    21572165.464     9488640.990 8 -16962420.929 7
  22115323.835    22115330.693    37888959.166 9 -38787181.990 8
  24313560.275    24313566.163   -19865817.580 8   5675147.329 9
 86  6 12  4 30 53.0800000  0  3G12G13G 7
  21574683.506    21574688.920     9501904.391 8 -16952085.817 7
  22117179.092    22117185.450    37898710.040 8 -38779583.917 8
  24312565.249    24312571.896   -19871047.303 9   5671072.235 8
 86  6 12  4 30 59.0800000  0  3G12G13G 7
  21577210.452    21577218.123     9515188.514 8 -16941734.542 8
  22119035.024    22119041.353    37908462.713 8 -38771984.410 9
  24311574.116    24311580.448   -19876254.018 9   5667015.053 8
 86  6 12  4 31  5.0800000  0  3G12G13G 7
  21579743.384    21579748.814     9528493.364 8 -16931367.135 8
  22120892.129    22120897.685    37918217.254 9 -38764383.482 7
  24310587.397    24310593.744   -19881439.955 8   5662974.062 8
 86  6 12  4 31 11.0800000  0  3G12G13G 7
  21582278.608    21582285.129     9541818.971 8 -16920983.543 7
  22122748.889    22122754.502    37927973.678 9 -38756781.091 8
  24309604.671    24309610.487   -19886606.145 8   5658948.457 8
 86  6 12  4 31 17.0800000  0  3G12G13G 7
  21584818.383    21584825.244     9555165.297 8 -16910583.798 9
  22124606.022    22124611.578    37937731.985 9 -38749177.204 8
  24308625.901    24308631.553   -19891750.607 9   5654939.791 8
 86  6 12  4 31 23.0800000  0  3G12G13G 7
  21587362.643    21587367.991     9568532.371 8 -16900167.910 7
  22126464.572    22126469.024    37947492.127 8 -38741571.898 8
                  24307657.068                     5650952.876 8
 86  6 12  4 31 29.0800000  0  3G12G13G 7
  21589910.091    21589915.800     9581920.132 8 -16889735.879 8
  22128322.535    22128326.787    37957254.112 9 -38733965.161 8
  24306685.854    24306691.257   -19933257.582 8   5646992.938 8
 86  6 12  4 31 35.0800000  0  3G12G13G 7
  21592461.706    21592467.530     9595328.499 8 -16879287.800 7
  22130180.011    22130185.008    37967017.932 9 -38726356.975 8
  24305724.999    24305730.222   -19938302.258 8   5643062.036 8
 86  6 12  4 31 41.0800000  0  3G12G13G 7
  21595017.721    21595022.648     9608757.463 8 -16868823.671 8
  22132038.832    22132042.026    37976783.610 9 -38718747.357 9
  24304772.179    24304777.115   -19943313.002 9   5639157.950 8
 86  6 12  4 31 47.0800000  0  3G12G13G 7
  21597576.949    21597581.453     9622206.892 8 -16858343.589 9
  22133897.267    22133901.047    37986551.087 9 -38711136.338 7
  24303824.281    24303828.981   -19948293.151 9   5635277.324 8
 86  6 12  4 31 53.0800000  0  3G12G13G 7
  21600140.069    21600143.986     9635676.820 8 -16847847.542 7
  22135755.916    22135760.671    37996320.318 9 -38703523.949 8
  24302880.840    24302887.737   -19953247.521 8   5631416.781 7
 86  6 12  4 31 59.0800000  0  3G12G13G 7
  21602707.238    21602711.893     9649167.245 8 -16837335.521 8
  22137615.511    22137620.637    38006091.253 9 -38695910.225 9
  24301942.980    24301948.588   -19958179.007 9   5627574.060 9
 86  6 12  4 32  5.0800000  0  3G12G13G 7
  21605277.780    21605282.539     9662677.908 8 -16826807.736 8
  22139475.090    22139479.487    38015863.747 8 -38688295.291 9
  24301009.677    24301015.108   -19963089.938 9   5623747.365 7
 86  6 12  4 32 11.0800000  0  3G12G13G 7
  21607852.252    21607858.741     9676208.924 8 -16816264.081 8
  22141335.471    22141339.739    38025637.908 8 -38680679.050 8
  24300077.970    24300083.480   -19967980.943 9   5619936.197 9
 86  6 12  4 32 17.0800000  0  3G12G13G 7
  21610431.355    21610438.309     9689760.337 8 -16805704.548 8
  22143195.838    22143200.249    38035413.880 9 -38673061.425 9
  24299152.194    24299156.823   -19972849.955 9   5616142.157 8
 86  6 12  4 32 23.0800000  0  3G12G13G 7
  21613014.679    21613020.060     9703332.232 8 -16795129.038 8
  22145056.377    22145061.131    38045191.575 8 -38665442.424 8
                  24298235.583                     5612369.994 8
 86  6 12  4 32 29.0800000  0  3G12G13G 7
  21615600.422    21615607.015     9716924.620 8 -16784537.566 8
  22146915.756    22146921.268    38054970.992 8 -38657822.110 9
  24297314.943    24297321.899   -20014081.995 8   5608624.992 8
 86  6 12  4 32 35.0800000  0  3G12G13G 7
  21618190.905    21618195.905     9730537.346 8 -16773930.249 7
  22148776.152    22148782.837    38064752.227 8 -38650200.361 8
  24296408.658    24296413.781   -20018850.821 8   5604909.018 9
 86  6 12  4 32 41.0800000  0  3G12G13G 7
  21620784.575    21620790.968     9744170.469 8 -16763307.032 8
  22150638.335    22150644.520    38074535.260 7 -38642577.220 8
  24295506.121    24295513.446   -20023585.204 9   5601219.908 8
 86  6 12  4 32 47.0800000  0  3G12G13G 7
  21623383.392    21623389.242     9757823.976 8 -16752667.945 8
  22152498.545    22152505.974    38084320.128 7 -38634952.664 8
  24294611.044    24294617.319   -20028289.477 9   5597554.235 8
 86  6 12  4 32 53.0800000  0  3G12G13G 7
  21625985.126    21625991.253     9771497.874 8 -16742012.957 8
  22154361.128    22154367.199    38094106.763 7 -38627326.712 8
  24293720.398    24293726.866   -20032967.933 9   5593908.698 9
 86  6 12  4 32 59.0800000  0  3G12G13G 7
  21628593.033    21628597.366     9785192.046 8 -16731342.178 8
  22156223.900    22156231.459    38103895.291 7 -38619699.292 9
  24292835.059    24292840.919   -20037623.261 8   5590281.168 9
 86  6 12  4 33  5.0800000  0  3G12G13G 7
  21631202.032    21631207.388     9798906.680 8 -16720655.448 8
  22158086.385    22158094.000    38113685.722 7 -38612070.379 8
  24291952.604    24291959.516   -20042257.651 9   5586669.975 9
 86  6 12  4 33 11.0800000  0  3G12G13G 7
  21633815.159    21633820.718     9812641.766 9 -16709952.778 8
  22159951.430    22159957.829    38123478.018 8 -38604440.029 8
  24291074.128    24291080.810   -20046871.886 9   5583074.464 8
 86  6 12  4 33 17.0800000  0  3G12G13G 7
  21636433.229    21636438.266     9826397.250 8 -16699234.218 8
  22161815.875    22161821.315    38133272.162 7 -38596808.245 7
  24290200.659    24290207.892   -20051463.755 9   5579496.398 8
 86  6 12  4 33 23.0800000  0  3G12G13G 7
  21639054.524    21639059.067     9840172.930 8 -16688499.919 8
  22163681.636    22163686.204    38143067.993 7 -38589175.123 8
                  24289338.666                     5575940.568 8
 86  6 12  4 33 29.0800000  0  3G12G13G 7
  21641679.309    21641685.817     9853968.693 8 -16677749.973 9
  22165546.324    22165550.062    38152865.477 9 -38581540.721 8
  24288471.672    24288477.087   -20092421.741 8   5572412.135 8
 86  6 12  4 33 35.0800000  0  3G12G13G 7
  21644308.050    21644315.010     9867784.486 9 -16666984.427 9
  22167411.128    22167413.863    38162664.542 9 -38573905.073 9
  24287617.063    24287623.002   -20096912.726 9   5568912.665 9
 86  6 12  4 33 41.0800000  0  3G12G13G 7
  21646941.075    21646946.895     9881620.211 7 -16656203.341 9
  22169275.343    22169280.154    38172465.232 8 -38566268.180 8
  24286769.351    24286774.838   -20101369.143 9   5565439.742 8
 86  6 12  4 33 47.0800000  0  3G12G13G 7
  21649578.638    21649584.326     9895475.915 8 -16645406.684 9
  22171140.531    22171145.414    38182267.381 8 -38558630.147 7
  24285926.297    24285932.607   -20105796.378 9   5561989.938 9
 86  6 12  4 33 53.0800000  0  3G12G13G 7
  21652217.561    21652224.047     9909351.445 8 -16634594.579 9
  22173006.393    22173009.473    38192071.040 9 -38550990.930 8
  24285088.501    24285094.654   -20110198.195 9   5558559.967 8
 86  6 12  4 33 59.0800000  0  3G12G13G 7
  21654862.761    21654868.865     9923246.936 8 -16623766.920 8
  22174871.525    22174876.278    38201876.290 9 -38543350.471 7
  24284254.768    24284261.995   -20114577.140 8   5555147.793 9
 86  6 12  4 34  5.0800000  0  3G12G13G 7
  21657510.485    21657516.388     9937162.403 9 -16612923.699 8
  22176737.602    22176742.254    38211683.143 9 -38535708.753 8
  24283426.109    24283431.382   -20118935.327 8   5551751.829 9
 86  6 12  4 34 11.0800000  0  3G12G13G 7
  21660162.418    21660169.123     9951097.833 9 -16602064.919 8
  22178604.650    22178607.544    38221491.602 9 -38528065.789 7
  24282601.864    24282605.349   -20123273.512 9   5548371.418 8
 86  6 12  4 34 17.0800000  0  3G12G13G 7
  21662817.875    21662823.331     9965053.359 8 -16591190.488 8
  22180470.983    22180475.379    38231301.775 8 -38520421.491 8
  24281780.208    24281784.294   -20127589.249 9   5545008.502 8
 86  6 12  4 34 23.0800000  0  3G12G13G 7
  21665476.678    21665483.274     9979029.042 8 -16580300.344 8
  22182337.188    22182342.099    38241113.930 8 -38512775.662 8
                  24280968.720                     5541668.259 8
 86  6 12  4 34 29.0800000  0  3G12G13G 7
  21668140.334    21668146.197     9993024.789 8 -16569394.562 9
  22184206.470    22184209.621    38250927.891 9 -38505128.419 7
  24280156.867    24280159.242   -20168272.467 9   5538355.748 9
 86  6 12  4 34 35.0800000  0  3G12G13G 7
  21670806.881    21670814.031    10007040.560 9 -16558473.176 8
  22186073.734    22186079.432    38260743.582 9 -38497479.835 8
  24279354.465    24279358.072   -20172486.089 9   5535072.404 9
 86  6 12  4 34 41.0800000  0  3G12G13G 7
  21673478.103    21673485.014    10021076.342 8 -16547536.219 9
  22187941.512    22187946.208    38270561.043 9 -38489829.857 8
  24278558.488    24278562.967   -20176665.777 9   5531815.885 8
 86  6 12  4 34 47.0800000  0  3G12G13G 7
  21676152.311    21676159.430    10035132.101 8 -16536583.676 9
  22189809.663    22189815.791    38280380.392 9 -38482178.428 8
  24277768.864    24277774.996   -20180815.098 8   5528582.650 9
